<?xml version="1.0" encoding="UTF-8" standalone="no" ?>
<gpx xmlns="http://www.topografix.com/GPX/1/1" xmlns:xsi="http://www.w3.org/2001/XMLSchema-instance" xsi:schemaLocation="http://www.topografix.com/GPX/1/1 http://www.topografix.com/GPX/1/1/gpx.xsd" version="1.1" creator="VisuGPX - https://www.visugpx.com">
  <metadata>
    <name>Peñalara desde Valsain</name>
    <desc><![CDATA[Ascensión invernal desde Valsain hasta la cumbre de Peñalara. Necesario crampones y piolet.]]></desc>
  </metadata>
  <wpt lat="40.87293" lon="-4.02037">
    <ele>1210.857666</ele>
    <name><![CDATA[001_Aparcamiento CNEAM]]></name>
  </wpt>
  <wpt lat="40.8719" lon="-4.01811">
    <ele>1228.246826</ele>
    <name><![CDATA[002_CNEAM]]></name>
  </wpt>
  <wpt lat="40.87089" lon="-4.01779">
    <ele>1232.426514</ele>
    <name><![CDATA[003_]]></name>
  </wpt>
  <wpt lat="40.8695" lon="-4.01623">
    <ele>1245.920532</ele>
    <name><![CDATA[004_]]></name>
  </wpt>
  <wpt lat="40.86865" lon="-4.01387">
    <ele>1260.766479</ele>
    <name><![CDATA[005_]]></name>
  </wpt>
  <wpt lat="40.86515" lon="-4.00363">
    <ele>1321.768311</ele>
    <name><![CDATA[006_]]></name>
  </wpt>
  <wpt lat="40.86547" lon="-4.00242">
    <ele>1332.852417</ele>
    <name><![CDATA[007_]]></name>
  </wpt>
  <wpt lat="40.86708" lon="-3.99648">
    <ele>1405.29834</ele>
    <name><![CDATA[008_]]></name>
  </wpt>
  <wpt lat="40.86603" lon="-3.98744">
    <ele>1481.031738</ele>
    <name><![CDATA[009_ArroyoChorranca]]></name>
  </wpt>
  <wpt lat="40.86709" lon="-3.98107">
    <ele>1600.805908</ele>
    <name><![CDATA[010_Cascadas]]></name>
  </wpt>
  <wpt lat="40.86765" lon="-3.98073">
    <ele>1629.101196</ele>
    <name><![CDATA[011_]]></name>
  </wpt>
  <wpt lat="40.86801" lon="-3.98043">
    <ele>1647.587402</ele>
    <name><![CDATA[012_]]></name>
  </wpt>
  <wpt lat="40.86886" lon="-3.97891">
    <ele>1658.613647</ele>
    <name><![CDATA[013_]]></name>
  </wpt>
  <wpt lat="40.86953" lon="-3.97365">
    <ele>1702.59082</ele>
    <name><![CDATA[014_]]></name>
  </wpt>
  <wpt lat="40.86973" lon="-3.97311">
    <ele>1707.838379</ele>
    <name><![CDATA[015_]]></name>
  </wpt>
  <wpt lat="40.87002" lon="-3.96906">
    <ele>1749.455933</ele>
    <name><![CDATA[016_]]></name>
  </wpt>
  <wpt lat="40.86836" lon="-3.96697">
    <ele>1828.821167</ele>
    <name><![CDATA[017_]]></name>
  </wpt>
  <wpt lat="40.86748" lon="-3.96691">
    <ele>1836.006226</ele>
    <name><![CDATA[018_]]></name>
  </wpt>
  <wpt lat="40.86302" lon="-3.96675">
    <ele>1854.969727</ele>
    <name><![CDATA[019_ArroyoAlmasdelDiablo]]></name>
  </wpt>
  <wpt lat="40.85769" lon="-3.96685">
    <ele>1891.895996</ele>
    <name><![CDATA[020_MajadaAranguez]]></name>
  </wpt>
  <wpt lat="40.8528" lon="-3.96903">
    <ele>2011.19104</ele>
    <name><![CDATA[021_]]></name>
  </wpt>
  <wpt lat="40.84891" lon="-3.96765">
    <ele>2203.626953</ele>
    <name><![CDATA[022_]]></name>
  </wpt>
  <wpt lat="40.85003" lon="-3.95601">
    <ele>2427.936279</ele>
    <name><![CDATA[023_Peñalara]]></name>
  </wpt>
  <wpt lat="40.8684" lon="-3.97787">
    <ele>1678.130371</ele>
    <name><![CDATA[024_SendaDerecha]]></name>
  </wpt>
  <wpt lat="40.86455" lon="-3.98424">
    <ele>1569.841187</ele>
    <name><![CDATA[025_]]></name>
  </wpt>
  <wpt lat="40.86548" lon="-3.98767">
    <ele>1486.616577</ele>
    <name><![CDATA[026_]]></name>
  </wpt>
  <trk>
    <name><![CDATA[20141211_PeñalaraxValsain]]></name>
    <trkseg>
      <trkpt lat="40.87289" lon="-4.02043">
        <ele>1210.92</ele>
        <time>2014-12-11T06:32:20Z</time>
      </trkpt>
      <trkpt lat="40.87289" lon="-4.02045">
        <ele>1210.92</ele>
        <time>2014-12-11T06:32:43Z</time>
      </trkpt>
      <trkpt lat="40.8729" lon="-4.02045">
        <ele>1210.92</ele>
        <time>2014-12-11T06:32:45Z</time>
      </trkpt>
      <trkpt lat="40.87292" lon="-4.02042">
        <ele>1210.92</ele>
        <time>2014-12-11T06:32:50Z</time>
      </trkpt>
      <trkpt lat="40.87293" lon="-4.0202">
        <ele>1212.36</ele>
        <time>2014-12-11T06:33:07Z</time>
      </trkpt>
      <trkpt lat="40.8729" lon="-4.02002">
        <ele>1214.28</ele>
        <time>2014-12-11T06:33:23Z</time>
      </trkpt>
      <trkpt lat="40.87279" lon="-4.01993">
        <ele>1215.24</ele>
        <time>2014-12-11T06:33:35Z</time>
      </trkpt>
      <trkpt lat="40.87271" lon="-4.01988">
        <ele>1215.72</ele>
        <time>2014-12-11T06:33:43Z</time>
      </trkpt>
      <trkpt lat="40.87269" lon="-4.01985">
        <ele>1216.21</ele>
        <time>2014-12-11T06:33:45Z</time>
      </trkpt>
      <trkpt lat="40.87253" lon="-4.01977">
        <ele>1216.69</ele>
        <time>2014-12-11T06:34:00Z</time>
      </trkpt>
      <trkpt lat="40.87241" lon="-4.01972">
        <ele>1217.65</ele>
        <time>2014-12-11T06:34:10Z</time>
      </trkpt>
      <trkpt lat="40.87229" lon="-4.01966">
        <ele>1218.13</ele>
        <time>2014-12-11T06:34:23Z</time>
      </trkpt>
      <trkpt lat="40.87214" lon="-4.01957">
        <ele>1219.09</ele>
        <time>2014-12-11T06:34:38Z</time>
      </trkpt>
      <trkpt lat="40.87205" lon="-4.0195">
        <ele>1220.05</ele>
        <time>2014-12-11T06:34:47Z</time>
      </trkpt>
      <trkpt lat="40.872" lon="-4.01939">
        <ele>1220.53</ele>
        <time>2014-12-11T06:34:56Z</time>
      </trkpt>
      <trkpt lat="40.87191" lon="-4.01926">
        <ele>1221.97</ele>
        <time>2014-12-11T06:35:08Z</time>
      </trkpt>
      <trkpt lat="40.8719" lon="-4.0192">
        <ele>1221.97</ele>
        <time>2014-12-11T06:35:12Z</time>
      </trkpt>
      <trkpt lat="40.8719" lon="-4.01912">
        <ele>1222.93</ele>
        <time>2014-12-11T06:35:18Z</time>
      </trkpt>
      <trkpt lat="40.87189" lon="-4.01889">
        <ele>1223.42</ele>
        <time>2014-12-11T06:35:33Z</time>
      </trkpt>
      <trkpt lat="40.87189" lon="-4.01867">
        <ele>1224.38</ele>
        <time>2014-12-11T06:35:48Z</time>
      </trkpt>
      <trkpt lat="40.87195" lon="-4.0185">
        <ele>1224.86</ele>
        <time>2014-12-11T06:36:02Z</time>
      </trkpt>
      <trkpt lat="40.8719" lon="-4.01833">
        <ele>1225.82</ele>
        <time>2014-12-11T06:36:15Z</time>
      </trkpt>
      <trkpt lat="40.87187" lon="-4.01817">
        <ele>1227.26</ele>
        <time>2014-12-11T06:36:30Z</time>
      </trkpt>
      <trkpt lat="40.87194" lon="-4.01807">
        <ele>1228.22</ele>
        <time>2014-12-11T06:36:47Z</time>
      </trkpt>
      <trkpt lat="40.87186" lon="-4.01803">
        <ele>1227.74</ele>
        <time>2014-12-11T06:37:03Z</time>
      </trkpt>
      <trkpt lat="40.87181" lon="-4.01799">
        <ele>1228.7</ele>
        <time>2014-12-11T06:37:09Z</time>
      </trkpt>
      <trkpt lat="40.87178" lon="-4.01795">
        <ele>1228.22</ele>
        <time>2014-12-11T06:37:13Z</time>
      </trkpt>
      <trkpt lat="40.87171" lon="-4.01791">
        <ele>1228.22</ele>
        <time>2014-12-11T06:37:20Z</time>
      </trkpt>
      <trkpt lat="40.87152" lon="-4.01794">
        <ele>1229.18</ele>
        <time>2014-12-11T06:37:35Z</time>
      </trkpt>
      <trkpt lat="40.87137" lon="-4.01793">
        <ele>1229.18</ele>
        <time>2014-12-11T06:37:49Z</time>
      </trkpt>
      <trkpt lat="40.87121" lon="-4.01796">
        <ele>1229.66</ele>
        <time>2014-12-11T06:38:02Z</time>
      </trkpt>
      <trkpt lat="40.8712" lon="-4.01796">
        <ele>1229.66</ele>
        <time>2014-12-11T06:38:03Z</time>
      </trkpt>
      <trkpt lat="40.87115" lon="-4.01796">
        <ele>1229.66</ele>
        <time>2014-12-11T06:38:07Z</time>
      </trkpt>
      <trkpt lat="40.8711" lon="-4.01795">
        <ele>1230.62</ele>
        <time>2014-12-11T06:38:13Z</time>
      </trkpt>
      <trkpt lat="40.87104" lon="-4.01793">
        <ele>1231.11</ele>
        <time>2014-12-11T06:38:18Z</time>
      </trkpt>
      <trkpt lat="40.87092" lon="-4.01782">
        <ele>1232.07</ele>
        <time>2014-12-11T06:38:32Z</time>
      </trkpt>
      <trkpt lat="40.87091" lon="-4.01781">
        <ele>1232.07</ele>
        <time>2014-12-11T06:38:34Z</time>
      </trkpt>
      <trkpt lat="40.87088" lon="-4.01778">
        <ele>1234.47</ele>
        <time>2014-12-11T06:38:53Z</time>
      </trkpt>
      <trkpt lat="40.87088" lon="-4.01776">
        <ele>1232.55</ele>
        <time>2014-12-11T06:38:55Z</time>
      </trkpt>
      <trkpt lat="40.87086" lon="-4.01755">
        <ele>1233.51</ele>
        <time>2014-12-11T06:39:11Z</time>
      </trkpt>
      <trkpt lat="40.87082" lon="-4.01731">
        <ele>1234.95</ele>
        <time>2014-12-11T06:39:28Z</time>
      </trkpt>
      <trkpt lat="40.87073" lon="-4.01712">
        <ele>1236.39</ele>
        <time>2014-12-11T06:39:42Z</time>
      </trkpt>
      <trkpt lat="40.87071" lon="-4.01707">
        <ele>1236.39</ele>
        <time>2014-12-11T06:39:47Z</time>
      </trkpt>
      <trkpt lat="40.87069" lon="-4.01709">
        <ele>1236.87</ele>
        <time>2014-12-11T06:39:57Z</time>
      </trkpt>
      <trkpt lat="40.87072" lon="-4.01709">
        <ele>1237.35</ele>
        <time>2014-12-11T06:40:10Z</time>
      </trkpt>
      <trkpt lat="40.87063" lon="-4.01694">
        <ele>1237.83</ele>
        <time>2014-12-11T06:40:26Z</time>
      </trkpt>
      <trkpt lat="40.87055" lon="-4.01687">
        <ele>1237.83</ele>
        <time>2014-12-11T06:40:35Z</time>
      </trkpt>
      <trkpt lat="40.8704" lon="-4.01677">
        <ele>1238.32</ele>
        <time>2014-12-11T06:40:50Z</time>
      </trkpt>
      <trkpt lat="40.87025" lon="-4.01671">
        <ele>1239.76</ele>
        <time>2014-12-11T06:41:03Z</time>
      </trkpt>
      <trkpt lat="40.8701" lon="-4.01661">
        <ele>1240.72</ele>
        <time>2014-12-11T06:41:17Z</time>
      </trkpt>
      <trkpt lat="40.86997" lon="-4.01655">
        <ele>1240.72</ele>
        <time>2014-12-11T06:41:30Z</time>
      </trkpt>
      <trkpt lat="40.86996" lon="-4.01655">
        <ele>1240.72</ele>
        <time>2014-12-11T06:41:31Z</time>
      </trkpt>
      <trkpt lat="40.86983" lon="-4.01655">
        <ele>1241.68</ele>
        <time>2014-12-11T06:41:43Z</time>
      </trkpt>
      <trkpt lat="40.86972" lon="-4.01652">
        <ele>1243.12</ele>
        <time>2014-12-11T06:41:56Z</time>
      </trkpt>
      <trkpt lat="40.86964" lon="-4.01647">
        <ele>1243.6</ele>
        <time>2014-12-11T06:42:05Z</time>
      </trkpt>
      <trkpt lat="40.86954" lon="-4.0163">
        <ele>1245.04</ele>
        <time>2014-12-11T06:42:21Z</time>
      </trkpt>
      <trkpt lat="40.86951" lon="-4.01627">
        <ele>1245.04</ele>
        <time>2014-12-11T06:42:35Z</time>
      </trkpt>
      <trkpt lat="40.86951" lon="-4.01625">
        <ele>1245.04</ele>
        <time>2014-12-11T06:42:50Z</time>
      </trkpt>
      <trkpt lat="40.86945" lon="-4.01615">
        <ele>1246.49</ele>
        <time>2014-12-11T06:43:02Z</time>
      </trkpt>
      <trkpt lat="40.86939" lon="-4.01605">
        <ele>1246.97</ele>
        <time>2014-12-11T06:43:12Z</time>
      </trkpt>
      <trkpt lat="40.86926" lon="-4.01586">
        <ele>1248.41</ele>
        <time>2014-12-11T06:43:29Z</time>
      </trkpt>
      <trkpt lat="40.86918" lon="-4.01573">
        <ele>1249.85</ele>
        <time>2014-12-11T06:43:42Z</time>
      </trkpt>
      <trkpt lat="40.86906" lon="-4.01557">
        <ele>1250.33</ele>
        <time>2014-12-11T06:43:56Z</time>
      </trkpt>
      <trkpt lat="40.86902" lon="-4.01543">
        <ele>1251.29</ele>
        <time>2014-12-11T06:44:05Z</time>
      </trkpt>
      <trkpt lat="40.86901" lon="-4.01538">
        <ele>1251.77</ele>
        <time>2014-12-11T06:44:08Z</time>
      </trkpt>
      <trkpt lat="40.86897" lon="-4.01529">
        <ele>1252.25</ele>
        <time>2014-12-11T06:44:15Z</time>
      </trkpt>
      <trkpt lat="40.86893" lon="-4.01521">
        <ele>1253.22</ele>
        <time>2014-12-11T06:44:29Z</time>
      </trkpt>
      <trkpt lat="40.86889" lon="-4.01509">
        <ele>1253.7</ele>
        <time>2014-12-11T06:44:46Z</time>
      </trkpt>
      <trkpt lat="40.86888" lon="-4.01506">
        <ele>1253.7</ele>
        <time>2014-12-11T06:44:49Z</time>
      </trkpt>
      <trkpt lat="40.86887" lon="-4.01503">
        <ele>1253.7</ele>
        <time>2014-12-11T06:44:51Z</time>
      </trkpt>
      <trkpt lat="40.86883" lon="-4.01487">
        <ele>1254.66</ele>
        <time>2014-12-11T06:45:02Z</time>
      </trkpt>
      <trkpt lat="40.86881" lon="-4.01463">
        <ele>1255.62</ele>
        <time>2014-12-11T06:45:17Z</time>
      </trkpt>
      <trkpt lat="40.86875" lon="-4.01441">
        <ele>1257.06</ele>
        <time>2014-12-11T06:45:32Z</time>
      </trkpt>
      <trkpt lat="40.8687" lon="-4.01418">
        <ele>1258.5</ele>
        <time>2014-12-11T06:45:47Z</time>
      </trkpt>
      <trkpt lat="40.86868" lon="-4.01397">
        <ele>1260.43</ele>
        <time>2014-12-11T06:46:01Z</time>
      </trkpt>
      <trkpt lat="40.86865" lon="-4.01387">
        <ele>1260.91</ele>
        <time>2014-12-11T06:46:15Z</time>
      </trkpt>
      <trkpt lat="40.86865" lon="-4.0138">
        <ele>1261.39</ele>
        <time>2014-12-11T06:46:33Z</time>
      </trkpt>
      <trkpt lat="40.86861" lon="-4.01357">
        <ele>1261.39</ele>
        <time>2014-12-11T06:46:49Z</time>
      </trkpt>
      <trkpt lat="40.8686" lon="-4.01353">
        <ele>1261.39</ele>
        <time>2014-12-11T06:46:52Z</time>
      </trkpt>
      <trkpt lat="40.86858" lon="-4.01348">
        <ele>1261.39</ele>
        <time>2014-12-11T06:46:56Z</time>
      </trkpt>
      <trkpt lat="40.86857" lon="-4.01343">
        <ele>1262.35</ele>
        <time>2014-12-11T06:46:59Z</time>
      </trkpt>
      <trkpt lat="40.86846" lon="-4.01332">
        <ele>1262.83</ele>
        <time>2014-12-11T06:47:10Z</time>
      </trkpt>
      <trkpt lat="40.86834" lon="-4.01322">
        <ele>1263.31</ele>
        <time>2014-12-11T06:47:22Z</time>
      </trkpt>
      <trkpt lat="40.8683" lon="-4.01319">
        <ele>1263.31</ele>
        <time>2014-12-11T06:47:26Z</time>
      </trkpt>
      <trkpt lat="40.86816" lon="-4.01302">
        <ele>1262.83</ele>
        <time>2014-12-11T06:47:41Z</time>
      </trkpt>
      <trkpt lat="40.86812" lon="-4.01291">
        <ele>1263.31</ele>
        <time>2014-12-11T06:47:49Z</time>
      </trkpt>
      <trkpt lat="40.86812" lon="-4.01287">
        <ele>1263.79</ele>
        <time>2014-12-11T06:47:52Z</time>
      </trkpt>
      <trkpt lat="40.86808" lon="-4.01281">
        <ele>1263.31</ele>
        <time>2014-12-11T06:47:57Z</time>
      </trkpt>
      <trkpt lat="40.86804" lon="-4.01258">
        <ele>1265.23</ele>
        <time>2014-12-11T06:48:12Z</time>
      </trkpt>
      <trkpt lat="40.86808" lon="-4.01244">
        <ele>1266.67</ele>
        <time>2014-12-11T06:48:22Z</time>
      </trkpt>
      <trkpt lat="40.86815" lon="-4.01232">
        <ele>1268.12</ele>
        <time>2014-12-11T06:48:32Z</time>
      </trkpt>
      <trkpt lat="40.86827" lon="-4.01223">
        <ele>1269.56</ele>
        <time>2014-12-11T06:48:44Z</time>
      </trkpt>
      <trkpt lat="40.86831" lon="-4.01216">
        <ele>1270.04</ele>
        <time>2014-12-11T06:48:49Z</time>
      </trkpt>
      <trkpt lat="40.86827" lon="-4.01191">
        <ele>1271.48</ele>
        <time>2014-12-11T06:49:05Z</time>
      </trkpt>
      <trkpt lat="40.86821" lon="-4.01181">
        <ele>1271.48</ele>
        <time>2014-12-11T06:49:12Z</time>
      </trkpt>
      <trkpt lat="40.86808" lon="-4.01169">
        <ele>1271.48</ele>
        <time>2014-12-11T06:49:26Z</time>
      </trkpt>
      <trkpt lat="40.86793" lon="-4.0116">
        <ele>1271.48</ele>
        <time>2014-12-11T06:49:41Z</time>
      </trkpt>
      <trkpt lat="40.86788" lon="-4.01157">
        <ele>1271.48</ele>
        <time>2014-12-11T06:49:48Z</time>
      </trkpt>
      <trkpt lat="40.86786" lon="-4.01156">
        <ele>1271.48</ele>
        <time>2014-12-11T06:49:50Z</time>
      </trkpt>
      <trkpt lat="40.86781" lon="-4.01153">
        <ele>1271.48</ele>
        <time>2014-12-11T06:49:55Z</time>
      </trkpt>
      <trkpt lat="40.86777" lon="-4.01149">
        <ele>1271.96</ele>
        <time>2014-12-11T06:49:59Z</time>
      </trkpt>
      <trkpt lat="40.86762" lon="-4.01141">
        <ele>1272.92</ele>
        <time>2014-12-11T06:50:14Z</time>
      </trkpt>
      <trkpt lat="40.86756" lon="-4.01132">
        <ele>1274.36</ele>
        <time>2014-12-11T06:50:23Z</time>
      </trkpt>
      <trkpt lat="40.86753" lon="-4.01122">
        <ele>1274.85</ele>
        <time>2014-12-11T06:50:30Z</time>
      </trkpt>
      <trkpt lat="40.86754" lon="-4.01103">
        <ele>1276.77</ele>
        <time>2014-12-11T06:50:43Z</time>
      </trkpt>
      <trkpt lat="40.86756" lon="-4.0109">
        <ele>1277.73</ele>
        <time>2014-12-11T06:50:51Z</time>
      </trkpt>
      <trkpt lat="40.86758" lon="-4.01084">
        <ele>1278.21</ele>
        <time>2014-12-11T06:50:55Z</time>
      </trkpt>
      <trkpt lat="40.86759" lon="-4.0108">
        <ele>1277.73</ele>
        <time>2014-12-11T06:50:58Z</time>
      </trkpt>
      <trkpt lat="40.8676" lon="-4.01071">
        <ele>1278.69</ele>
        <time>2014-12-11T06:51:03Z</time>
      </trkpt>
      <trkpt lat="40.86757" lon="-4.01056">
        <ele>1278.69</ele>
        <time>2014-12-11T06:51:12Z</time>
      </trkpt>
      <trkpt lat="40.86756" lon="-4.01036">
        <ele>1280.13</ele>
        <time>2014-12-11T06:51:27Z</time>
      </trkpt>
      <trkpt lat="40.86753" lon="-4.01014">
        <ele>1281.09</ele>
        <time>2014-12-11T06:51:42Z</time>
      </trkpt>
      <trkpt lat="40.86751" lon="-4.00994">
        <ele>1282.54</ele>
        <time>2014-12-11T06:51:56Z</time>
      </trkpt>
      <trkpt lat="40.8675" lon="-4.00974">
        <ele>1284.94</ele>
        <time>2014-12-11T06:52:10Z</time>
      </trkpt>
      <trkpt lat="40.86747" lon="-4.00957">
        <ele>1286.38</ele>
        <time>2014-12-11T06:52:23Z</time>
      </trkpt>
      <trkpt lat="40.86744" lon="-4.00948">
        <ele>1287.34</ele>
        <time>2014-12-11T06:52:31Z</time>
      </trkpt>
      <trkpt lat="40.86734" lon="-4.00929">
        <ele>1288.78</ele>
        <time>2014-12-11T06:52:45Z</time>
      </trkpt>
      <trkpt lat="40.86728" lon="-4.0091">
        <ele>1289.75</ele>
        <time>2014-12-11T06:52:58Z</time>
      </trkpt>
      <trkpt lat="40.86723" lon="-4.0089">
        <ele>1291.19</ele>
        <time>2014-12-11T06:53:13Z</time>
      </trkpt>
      <trkpt lat="40.86721" lon="-4.00886">
        <ele>1291.67</ele>
        <time>2014-12-11T06:53:16Z</time>
      </trkpt>
      <trkpt lat="40.86715" lon="-4.00873">
        <ele>1292.63</ele>
        <time>2014-12-11T06:53:27Z</time>
      </trkpt>
      <trkpt lat="40.86715" lon="-4.00851">
        <ele>1293.59</ele>
        <time>2014-12-11T06:53:42Z</time>
      </trkpt>
      <trkpt lat="40.86713" lon="-4.0084">
        <ele>1293.59</ele>
        <time>2014-12-11T06:53:48Z</time>
      </trkpt>
      <trkpt lat="40.86703" lon="-4.00822">
        <ele>1295.03</ele>
        <time>2014-12-11T06:54:02Z</time>
      </trkpt>
      <trkpt lat="40.86701" lon="-4.00818">
        <ele>1295.51</ele>
        <time>2014-12-11T06:54:05Z</time>
      </trkpt>
      <trkpt lat="40.86696" lon="-4.00802">
        <ele>1296.48</ele>
        <time>2014-12-11T06:54:16Z</time>
      </trkpt>
      <trkpt lat="40.86689" lon="-4.00785">
        <ele>1297.44</ele>
        <time>2014-12-11T06:54:29Z</time>
      </trkpt>
      <trkpt lat="40.86684" lon="-4.0076">
        <ele>1298.4</ele>
        <time>2014-12-11T06:54:45Z</time>
      </trkpt>
      <trkpt lat="40.86684" lon="-4.00736">
        <ele>1300.8</ele>
        <time>2014-12-11T06:55:00Z</time>
      </trkpt>
      <trkpt lat="40.8668" lon="-4.00722">
        <ele>1299.84</ele>
        <time>2014-12-11T06:55:09Z</time>
      </trkpt>
      <trkpt lat="40.86673" lon="-4.00709">
        <ele>1300.32</ele>
        <time>2014-12-11T06:55:18Z</time>
      </trkpt>
      <trkpt lat="40.86665" lon="-4.00697">
        <ele>1300.8</ele>
        <time>2014-12-11T06:55:28Z</time>
      </trkpt>
      <trkpt lat="40.86664" lon="-4.00694">
        <ele>1300.8</ele>
        <time>2014-12-11T06:55:30Z</time>
      </trkpt>
      <trkpt lat="40.86656" lon="-4.00673">
        <ele>1300.8</ele>
        <time>2014-12-11T06:55:45Z</time>
      </trkpt>
      <trkpt lat="40.86651" lon="-4.00652">
        <ele>1301.28</ele>
        <time>2014-12-11T06:55:58Z</time>
      </trkpt>
      <trkpt lat="40.8665" lon="-4.00644">
        <ele>1301.28</ele>
        <time>2014-12-11T06:56:03Z</time>
      </trkpt>
      <trkpt lat="40.86647" lon="-4.00624">
        <ele>1302.24</ele>
        <time>2014-12-11T06:56:15Z</time>
      </trkpt>
      <trkpt lat="40.86646" lon="-4.00602">
        <ele>1303.2</ele>
        <time>2014-12-11T06:56:28Z</time>
      </trkpt>
      <trkpt lat="40.86638" lon="-4.00583">
        <ele>1304.65</ele>
        <time>2014-12-11T06:56:42Z</time>
      </trkpt>
      <trkpt lat="40.86637" lon="-4.00581">
        <ele>1305.13</ele>
        <time>2014-12-11T06:56:43Z</time>
      </trkpt>
      <trkpt lat="40.86628" lon="-4.00562">
        <ele>1306.57</ele>
        <time>2014-12-11T06:56:58Z</time>
      </trkpt>
      <trkpt lat="40.86619" lon="-4.0055">
        <ele>1308.01</ele>
        <time>2014-12-11T06:57:09Z</time>
      </trkpt>
      <trkpt lat="40.86614" lon="-4.0054">
        <ele>1308.97</ele>
        <time>2014-12-11T06:57:17Z</time>
      </trkpt>
      <trkpt lat="40.86612" lon="-4.00537">
        <ele>1309.45</ele>
        <time>2014-12-11T06:57:19Z</time>
      </trkpt>
      <trkpt lat="40.86608" lon="-4.00531">
        <ele>1309.93</ele>
        <time>2014-12-11T06:57:24Z</time>
      </trkpt>
      <trkpt lat="40.86603" lon="-4.00523">
        <ele>1310.41</ele>
        <time>2014-12-11T06:57:31Z</time>
      </trkpt>
      <trkpt lat="40.86599" lon="-4.00515">
        <ele>1311.38</ele>
        <time>2014-12-11T06:57:39Z</time>
      </trkpt>
      <trkpt lat="40.86589" lon="-4.00498">
        <ele>1311.86</ele>
        <time>2014-12-11T06:57:54Z</time>
      </trkpt>
      <trkpt lat="40.86588" lon="-4.00496">
        <ele>1312.82</ele>
        <time>2014-12-11T06:57:56Z</time>
      </trkpt>
      <trkpt lat="40.86587" lon="-4.00489">
        <ele>1313.78</ele>
        <time>2014-12-11T06:58:01Z</time>
      </trkpt>
      <trkpt lat="40.86585" lon="-4.00482">
        <ele>1313.78</ele>
        <time>2014-12-11T06:58:06Z</time>
      </trkpt>
      <trkpt lat="40.86583" lon="-4.0048">
        <ele>1313.78</ele>
        <time>2014-12-11T06:58:08Z</time>
      </trkpt>
      <trkpt lat="40.86583" lon="-4.00476">
        <ele>1314.26</ele>
        <time>2014-12-11T06:58:11Z</time>
      </trkpt>
      <trkpt lat="40.86581" lon="-4.00472">
        <ele>1314.26</ele>
        <time>2014-12-11T06:58:14Z</time>
      </trkpt>
      <trkpt lat="40.86569" lon="-4.00451">
        <ele>1315.7</ele>
        <time>2014-12-11T06:58:30Z</time>
      </trkpt>
      <trkpt lat="40.86559" lon="-4.00439">
        <ele>1317.14</ele>
        <time>2014-12-11T06:58:42Z</time>
      </trkpt>
      <trkpt lat="40.86547" lon="-4.00427">
        <ele>1318.1</ele>
        <time>2014-12-11T06:58:55Z</time>
      </trkpt>
      <trkpt lat="40.86539" lon="-4.00418">
        <ele>1319.07</ele>
        <time>2014-12-11T06:59:04Z</time>
      </trkpt>
      <trkpt lat="40.86533" lon="-4.00408">
        <ele>1319.55</ele>
        <time>2014-12-11T06:59:13Z</time>
      </trkpt>
      <trkpt lat="40.86524" lon="-4.00388">
        <ele>1320.03</ele>
        <time>2014-12-11T06:59:28Z</time>
      </trkpt>
      <trkpt lat="40.86515" lon="-4.00372">
        <ele>1320.99</ele>
        <time>2014-12-11T06:59:42Z</time>
      </trkpt>
      <trkpt lat="40.86516" lon="-4.00361">
        <ele>1321.95</ele>
        <time>2014-12-11T06:59:50Z</time>
      </trkpt>
      <trkpt lat="40.86521" lon="-4.00339">
        <ele>1323.87</ele>
        <time>2014-12-11T07:00:07Z</time>
      </trkpt>
      <trkpt lat="40.86531" lon="-4.00324">
        <ele>1324.83</ele>
        <time>2014-12-11T07:00:20Z</time>
      </trkpt>
      <trkpt lat="40.86545" lon="-4.00309">
        <ele>1326.28</ele>
        <time>2014-12-11T07:00:35Z</time>
      </trkpt>
      <trkpt lat="40.86553" lon="-4.00293">
        <ele>1328.2</ele>
        <time>2014-12-11T07:00:48Z</time>
      </trkpt>
      <trkpt lat="40.86554" lon="-4.00274">
        <ele>1331.56</ele>
        <time>2014-12-11T07:01:01Z</time>
      </trkpt>
      <trkpt lat="40.86554" lon="-4.00269">
        <ele>1331.08</ele>
        <time>2014-12-11T07:01:04Z</time>
      </trkpt>
      <trkpt lat="40.86555" lon="-4.00263">
        <ele>1331.56</ele>
        <time>2014-12-11T07:01:07Z</time>
      </trkpt>
      <trkpt lat="40.86554" lon="-4.00254">
        <ele>1332.04</ele>
        <time>2014-12-11T07:01:14Z</time>
      </trkpt>
      <trkpt lat="40.86554" lon="-4.0024">
        <ele>1333.49</ele>
        <time>2014-12-11T07:01:26Z</time>
      </trkpt>
      <trkpt lat="40.86553" lon="-4.00237">
        <ele>1333.97</ele>
        <time>2014-12-11T07:01:29Z</time>
      </trkpt>
      <trkpt lat="40.86548" lon="-4.00226">
        <ele>1335.41</ele>
        <time>2014-12-11T07:01:38Z</time>
      </trkpt>
      <trkpt lat="40.86546" lon="-4.00223">
        <ele>1335.89</ele>
        <time>2014-12-11T07:01:45Z</time>
      </trkpt>
      <trkpt lat="40.86546" lon="-4.00228">
        <ele>1335.41</ele>
        <time>2014-12-11T07:01:49Z</time>
      </trkpt>
      <trkpt lat="40.86547" lon="-4.00237">
        <ele>1334.45</ele>
        <time>2014-12-11T07:01:54Z</time>
      </trkpt>
      <trkpt lat="40.86547" lon="-4.0024">
        <ele>1333.01</ele>
        <time>2014-12-11T07:01:57Z</time>
      </trkpt>
      <trkpt lat="40.86552" lon="-4.0024">
        <ele>1334.93</ele>
        <time>2014-12-11T07:02:08Z</time>
      </trkpt>
      <trkpt lat="40.86554" lon="-4.00238">
        <ele>1335.41</ele>
        <time>2014-12-11T07:02:10Z</time>
      </trkpt>
      <trkpt lat="40.86563" lon="-4.00228">
        <ele>1338.29</ele>
        <time>2014-12-11T07:02:22Z</time>
      </trkpt>
      <trkpt lat="40.86574" lon="-4.00219">
        <ele>1341.18</ele>
        <time>2014-12-11T07:02:36Z</time>
      </trkpt>
      <trkpt lat="40.86584" lon="-4.00211">
        <ele>1342.14</ele>
        <time>2014-12-11T07:02:48Z</time>
      </trkpt>
      <trkpt lat="40.86589" lon="-4.00195">
        <ele>1345.02</ele>
        <time>2014-12-11T07:03:06Z</time>
      </trkpt>
      <trkpt lat="40.8659" lon="-4.00194">
        <ele>1345.5</ele>
        <time>2014-12-11T07:03:07Z</time>
      </trkpt>
      <trkpt lat="40.86603" lon="-4.00183">
        <ele>1347.43</ele>
        <time>2014-12-11T07:03:22Z</time>
      </trkpt>
      <trkpt lat="40.86608" lon="-4.00166">
        <ele>1350.31</ele>
        <time>2014-12-11T07:03:36Z</time>
      </trkpt>
      <trkpt lat="40.86611" lon="-4.00156">
        <ele>1352.23</ele>
        <time>2014-12-11T07:03:46Z</time>
      </trkpt>
      <trkpt lat="40.86621" lon="-4.00139">
        <ele>1355.6</ele>
        <time>2014-12-11T07:04:01Z</time>
      </trkpt>
      <trkpt lat="40.86627" lon="-4.00125">
        <ele>1357.52</ele>
        <time>2014-12-11T07:04:13Z</time>
      </trkpt>
      <trkpt lat="40.86633" lon="-4.00109">
        <ele>1359.92</ele>
        <time>2014-12-11T07:04:26Z</time>
      </trkpt>
      <trkpt lat="40.86638" lon="-4.00094">
        <ele>1362.81</ele>
        <time>2014-12-11T07:04:40Z</time>
      </trkpt>
      <trkpt lat="40.8664" lon="-4.00078">
        <ele>1365.21</ele>
        <time>2014-12-11T07:04:53Z</time>
      </trkpt>
      <trkpt lat="40.86644" lon="-4.00061">
        <ele>1367.13</ele>
        <time>2014-12-11T07:05:08Z</time>
      </trkpt>
      <trkpt lat="40.86642" lon="-4.00045">
        <ele>1368.57</ele>
        <time>2014-12-11T07:05:21Z</time>
      </trkpt>
      <trkpt lat="40.86643" lon="-4.00037">
        <ele>1369.54</ele>
        <time>2014-12-11T07:05:28Z</time>
      </trkpt>
      <trkpt lat="40.86648" lon="-4.00019">
        <ele>1371.46</ele>
        <time>2014-12-11T07:05:42Z</time>
      </trkpt>
      <trkpt lat="40.86654" lon="-4.00008">
        <ele>1373.38</ele>
        <time>2014-12-11T07:05:53Z</time>
      </trkpt>
      <trkpt lat="40.8666" lon="-3.99993">
        <ele>1375.78</ele>
        <time>2014-12-11T07:06:07Z</time>
      </trkpt>
      <trkpt lat="40.8666" lon="-3.99983">
        <ele>1377.71</ele>
        <time>2014-12-11T07:06:19Z</time>
      </trkpt>
      <trkpt lat="40.86661" lon="-3.99965">
        <ele>1380.59</ele>
        <time>2014-12-11T07:06:34Z</time>
      </trkpt>
      <trkpt lat="40.86663" lon="-3.99962">
        <ele>1381.07</ele>
        <time>2014-12-11T07:06:37Z</time>
      </trkpt>
      <trkpt lat="40.86665" lon="-3.99958">
        <ele>1381.55</ele>
        <time>2014-12-11T07:06:41Z</time>
      </trkpt>
      <trkpt lat="40.86669" lon="-3.99944">
        <ele>1384.44</ele>
        <time>2014-12-11T07:06:56Z</time>
      </trkpt>
      <trkpt lat="40.86671" lon="-3.99941">
        <ele>1384.92</ele>
        <time>2014-12-11T07:07:00Z</time>
      </trkpt>
      <trkpt lat="40.86672" lon="-3.99928">
        <ele>1387.32</ele>
        <time>2014-12-11T07:07:13Z</time>
      </trkpt>
      <trkpt lat="40.86671" lon="-3.99923">
        <ele>1388.28</ele>
        <time>2014-12-11T07:07:19Z</time>
      </trkpt>
      <trkpt lat="40.8667" lon="-3.99917">
        <ele>1389.24</ele>
        <time>2014-12-11T07:07:25Z</time>
      </trkpt>
      <trkpt lat="40.86669" lon="-3.99898">
        <ele>1392.13</ele>
        <time>2014-12-11T07:07:40Z</time>
      </trkpt>
      <trkpt lat="40.86669" lon="-3.99894">
        <ele>1392.61</ele>
        <time>2014-12-11T07:07:44Z</time>
      </trkpt>
      <trkpt lat="40.86666" lon="-3.99879">
        <ele>1395.01</ele>
        <time>2014-12-11T07:07:57Z</time>
      </trkpt>
      <trkpt lat="40.86666" lon="-3.99866">
        <ele>1396.45</ele>
        <time>2014-12-11T07:08:07Z</time>
      </trkpt>
      <trkpt lat="40.86664" lon="-3.99849">
        <ele>1398.86</ele>
        <time>2014-12-11T07:08:21Z</time>
      </trkpt>
      <trkpt lat="40.8666" lon="-3.99833">
        <ele>1400.3</ele>
        <time>2014-12-11T07:08:32Z</time>
      </trkpt>
      <trkpt lat="40.8666" lon="-3.99832">
        <ele>1400.3</ele>
        <time>2014-12-11T07:08:33Z</time>
      </trkpt>
      <trkpt lat="40.86658" lon="-3.99826">
        <ele>1401.26</ele>
        <time>2014-12-11T07:08:39Z</time>
      </trkpt>
      <trkpt lat="40.86655" lon="-3.99818">
        <ele>1401.74</ele>
        <time>2014-12-11T07:08:45Z</time>
      </trkpt>
      <trkpt lat="40.86651" lon="-3.9981">
        <ele>1402.7</ele>
        <time>2014-12-11T07:08:52Z</time>
      </trkpt>
      <trkpt lat="40.8665" lon="-3.99803">
        <ele>1403.66</ele>
        <time>2014-12-11T07:08:58Z</time>
      </trkpt>
      <trkpt lat="40.86652" lon="-3.99794">
        <ele>1404.62</ele>
        <time>2014-12-11T07:09:05Z</time>
      </trkpt>
      <trkpt lat="40.86655" lon="-3.99791">
        <ele>1404.62</ele>
        <time>2014-12-11T07:09:09Z</time>
      </trkpt>
      <trkpt lat="40.86655" lon="-3.99791">
        <ele>1403.66</ele>
        <time>2014-12-11T07:09:20Z</time>
      </trkpt>
      <trkpt lat="40.86652" lon="-3.99785">
        <ele>1403.66</ele>
        <time>2014-12-11T07:09:50Z</time>
      </trkpt>
      <trkpt lat="40.86654" lon="-3.99782">
        <ele>1403.66</ele>
        <time>2014-12-11T07:10:14Z</time>
      </trkpt>
      <trkpt lat="40.86652" lon="-3.99784">
        <ele>1404.14</ele>
        <time>2014-12-11T07:10:50Z</time>
      </trkpt>
      <trkpt lat="40.86656" lon="-3.99785">
        <ele>1403.66</ele>
        <time>2014-12-11T07:11:14Z</time>
      </trkpt>
      <trkpt lat="40.86658" lon="-3.99785">
        <ele>1404.14</ele>
        <time>2014-12-11T07:11:42Z</time>
      </trkpt>
      <trkpt lat="40.86655" lon="-3.99782">
        <ele>1404.14</ele>
        <time>2014-12-11T07:12:12Z</time>
      </trkpt>
      <trkpt lat="40.86654" lon="-3.99783">
        <ele>1404.14</ele>
        <time>2014-12-11T07:12:21Z</time>
      </trkpt>
      <trkpt lat="40.86652" lon="-3.99793">
        <ele>1405.1</ele>
        <time>2014-12-11T07:12:31Z</time>
      </trkpt>
      <trkpt lat="40.86654" lon="-3.99797">
        <ele>1405.58</ele>
        <time>2014-12-11T07:12:52Z</time>
      </trkpt>
      <trkpt lat="40.86653" lon="-3.99797">
        <ele>1405.58</ele>
        <time>2014-12-11T07:13:16Z</time>
      </trkpt>
      <trkpt lat="40.86655" lon="-3.99798">
        <ele>1405.58</ele>
        <time>2014-12-11T07:13:42Z</time>
      </trkpt>
      <trkpt lat="40.86656" lon="-3.99796">
        <ele>1405.58</ele>
        <time>2014-12-11T07:14:09Z</time>
      </trkpt>
      <trkpt lat="40.86663" lon="-3.99786">
        <ele>1405.58</ele>
        <time>2014-12-11T07:14:22Z</time>
      </trkpt>
      <trkpt lat="40.86664" lon="-3.99784">
        <ele>1406.07</ele>
        <time>2014-12-11T07:14:25Z</time>
      </trkpt>
      <trkpt lat="40.86666" lon="-3.99783">
        <ele>1406.07</ele>
        <time>2014-12-11T07:14:27Z</time>
      </trkpt>
      <trkpt lat="40.86672" lon="-3.99766">
        <ele>1407.03</ele>
        <time>2014-12-11T07:14:41Z</time>
      </trkpt>
      <trkpt lat="40.86675" lon="-3.99767">
        <ele>1407.03</ele>
        <time>2014-12-11T07:14:44Z</time>
      </trkpt>
      <trkpt lat="40.86694" lon="-3.99766">
        <ele>1406.55</ele>
        <time>2014-12-11T07:15:00Z</time>
      </trkpt>
      <trkpt lat="40.86696" lon="-3.99764">
        <ele>1406.55</ele>
        <time>2014-12-11T07:15:02Z</time>
      </trkpt>
      <trkpt lat="40.86712" lon="-3.99761">
        <ele>1406.07</ele>
        <time>2014-12-11T07:15:16Z</time>
      </trkpt>
      <trkpt lat="40.86722" lon="-3.99755">
        <ele>1406.07</ele>
        <time>2014-12-11T07:15:29Z</time>
      </trkpt>
      <trkpt lat="40.86722" lon="-3.99751">
        <ele>1406.07</ele>
        <time>2014-12-11T07:15:32Z</time>
      </trkpt>
      <trkpt lat="40.86723" lon="-3.99748">
        <ele>1405.58</ele>
        <time>2014-12-11T07:15:34Z</time>
      </trkpt>
      <trkpt lat="40.86721" lon="-3.99734">
        <ele>1405.1</ele>
        <time>2014-12-11T07:15:44Z</time>
      </trkpt>
      <trkpt lat="40.86711" lon="-3.99726">
        <ele>1405.58</ele>
        <time>2014-12-11T07:15:58Z</time>
      </trkpt>
      <trkpt lat="40.86718" lon="-3.99715">
        <ele>1405.1</ele>
        <time>2014-12-11T07:16:10Z</time>
      </trkpt>
      <trkpt lat="40.86721" lon="-3.99705">
        <ele>1405.1</ele>
        <time>2014-12-11T07:16:18Z</time>
      </trkpt>
      <trkpt lat="40.86722" lon="-3.99698">
        <ele>1405.1</ele>
        <time>2014-12-11T07:16:23Z</time>
      </trkpt>
      <trkpt lat="40.86718" lon="-3.99685">
        <ele>1405.1</ele>
        <time>2014-12-11T07:16:33Z</time>
      </trkpt>
      <trkpt lat="40.86714" lon="-3.99678">
        <ele>1405.1</ele>
        <time>2014-12-11T07:16:40Z</time>
      </trkpt>
      <trkpt lat="40.86709" lon="-3.99653">
        <ele>1405.58</ele>
        <time>2014-12-11T07:16:57Z</time>
      </trkpt>
      <trkpt lat="40.86705" lon="-3.99641">
        <ele>1405.58</ele>
        <time>2014-12-11T07:17:07Z</time>
      </trkpt>
      <trkpt lat="40.86695" lon="-3.99632">
        <ele>1405.58</ele>
        <time>2014-12-11T07:17:21Z</time>
      </trkpt>
      <trkpt lat="40.86695" lon="-3.99626">
        <ele>1405.1</ele>
        <time>2014-12-11T07:17:25Z</time>
      </trkpt>
      <trkpt lat="40.86683" lon="-3.99602">
        <ele>1404.14</ele>
        <time>2014-12-11T07:17:41Z</time>
      </trkpt>
      <trkpt lat="40.86672" lon="-3.99582">
        <ele>1404.62</ele>
        <time>2014-12-11T07:18:00Z</time>
      </trkpt>
      <trkpt lat="40.86669" lon="-3.99573">
        <ele>1404.62</ele>
        <time>2014-12-11T07:18:06Z</time>
      </trkpt>
      <trkpt lat="40.86662" lon="-3.99552">
        <ele>1409.43</ele>
        <time>2014-12-11T07:18:21Z</time>
      </trkpt>
      <trkpt lat="40.86662" lon="-3.99551">
        <ele>1406.07</ele>
        <time>2014-12-11T07:18:22Z</time>
      </trkpt>
      <trkpt lat="40.86658" lon="-3.99533">
        <ele>1407.03</ele>
        <time>2014-12-11T07:18:34Z</time>
      </trkpt>
      <trkpt lat="40.86654" lon="-3.99515">
        <ele>1408.47</ele>
        <time>2014-12-11T07:18:48Z</time>
      </trkpt>
      <trkpt lat="40.86652" lon="-3.99492">
        <ele>1409.91</ele>
        <time>2014-12-11T07:19:03Z</time>
      </trkpt>
      <trkpt lat="40.86649" lon="-3.99476">
        <ele>1409.91</ele>
        <time>2014-12-11T07:19:15Z</time>
      </trkpt>
      <trkpt lat="40.86648" lon="-3.99461">
        <ele>1410.39</ele>
        <time>2014-12-11T07:19:26Z</time>
      </trkpt>
      <trkpt lat="40.86654" lon="-3.99437">
        <ele>1410.39</ele>
        <time>2014-12-11T07:19:43Z</time>
      </trkpt>
      <trkpt lat="40.86657" lon="-3.99431">
        <ele>1409.91</ele>
        <time>2014-12-11T07:19:47Z</time>
      </trkpt>
      <trkpt lat="40.86658" lon="-3.99428">
        <ele>1410.39</ele>
        <time>2014-12-11T07:19:49Z</time>
      </trkpt>
      <trkpt lat="40.86664" lon="-3.99401">
        <ele>1410.87</ele>
        <time>2014-12-11T07:20:06Z</time>
      </trkpt>
      <trkpt lat="40.86668" lon="-3.99382">
        <ele>1410.87</ele>
        <time>2014-12-11T07:20:19Z</time>
      </trkpt>
      <trkpt lat="40.8667" lon="-3.99373">
        <ele>1410.39</ele>
        <time>2014-12-11T07:20:25Z</time>
      </trkpt>
      <trkpt lat="40.8668" lon="-3.99358">
        <ele>1410.87</ele>
        <time>2014-12-11T07:20:40Z</time>
      </trkpt>
      <trkpt lat="40.86685" lon="-3.99334">
        <ele>1412.79</ele>
        <time>2014-12-11T07:20:56Z</time>
      </trkpt>
      <trkpt lat="40.86688" lon="-3.99319">
        <ele>1414.24</ele>
        <time>2014-12-11T07:21:08Z</time>
      </trkpt>
      <trkpt lat="40.86689" lon="-3.99304">
        <ele>1413.28</ele>
        <time>2014-12-11T07:21:23Z</time>
      </trkpt>
      <trkpt lat="40.86691" lon="-3.99301">
        <ele>1413.28</ele>
        <time>2014-12-11T07:21:39Z</time>
      </trkpt>
      <trkpt lat="40.86686" lon="-3.99301">
        <ele>1413.76</ele>
        <time>2014-12-11T07:21:51Z</time>
      </trkpt>
      <trkpt lat="40.86681" lon="-3.993">
        <ele>1413.76</ele>
        <time>2014-12-11T07:22:18Z</time>
      </trkpt>
      <trkpt lat="40.8668" lon="-3.99302">
        <ele>1413.28</ele>
        <time>2014-12-11T07:22:46Z</time>
      </trkpt>
      <trkpt lat="40.86685" lon="-3.99291">
        <ele>1414.72</ele>
        <time>2014-12-11T07:23:01Z</time>
      </trkpt>
      <trkpt lat="40.86694" lon="-3.99284">
        <ele>1415.68</ele>
        <time>2014-12-11T07:23:23Z</time>
      </trkpt>
      <trkpt lat="40.86702" lon="-3.99274">
        <ele>1418.08</ele>
        <time>2014-12-11T07:23:34Z</time>
      </trkpt>
      <trkpt lat="40.86705" lon="-3.99261">
        <ele>1420</ele>
        <time>2014-12-11T07:23:45Z</time>
      </trkpt>
      <trkpt lat="40.86707" lon="-3.99246">
        <ele>1421.93</ele>
        <time>2014-12-11T07:23:55Z</time>
      </trkpt>
      <trkpt lat="40.86717" lon="-3.99229">
        <ele>1424.81</ele>
        <time>2014-12-11T07:24:10Z</time>
      </trkpt>
      <trkpt lat="40.86722" lon="-3.99215">
        <ele>1426.73</ele>
        <time>2014-12-11T07:24:22Z</time>
      </trkpt>
      <trkpt lat="40.86722" lon="-3.9921">
        <ele>1427.21</ele>
        <time>2014-12-11T07:24:26Z</time>
      </trkpt>
      <trkpt lat="40.8672" lon="-3.99192">
        <ele>1429.14</ele>
        <time>2014-12-11T07:24:40Z</time>
      </trkpt>
      <trkpt lat="40.8672" lon="-3.99179">
        <ele>1430.58</ele>
        <time>2014-12-11T07:24:51Z</time>
      </trkpt>
      <trkpt lat="40.8672" lon="-3.99175">
        <ele>1431.06</ele>
        <time>2014-12-11T07:24:54Z</time>
      </trkpt>
      <trkpt lat="40.86718" lon="-3.99167">
        <ele>1432.02</ele>
        <time>2014-12-11T07:25:00Z</time>
      </trkpt>
      <trkpt lat="40.86715" lon="-3.99153">
        <ele>1433.94</ele>
        <time>2014-12-11T07:25:12Z</time>
      </trkpt>
      <trkpt lat="40.86712" lon="-3.99143">
        <ele>1434.91</ele>
        <time>2014-12-11T07:25:25Z</time>
      </trkpt>
      <trkpt lat="40.86712" lon="-3.99143">
        <ele>1435.39</ele>
        <time>2014-12-11T07:25:26Z</time>
      </trkpt>
      <trkpt lat="40.86718" lon="-3.99129">
        <ele>1436.35</ele>
        <time>2014-12-11T07:25:39Z</time>
      </trkpt>
      <trkpt lat="40.86716" lon="-3.99116">
        <ele>1436.83</ele>
        <time>2014-12-11T07:25:47Z</time>
      </trkpt>
      <trkpt lat="40.86711" lon="-3.99094">
        <ele>1438.75</ele>
        <time>2014-12-11T07:26:04Z</time>
      </trkpt>
      <trkpt lat="40.86712" lon="-3.99087">
        <ele>1439.23</ele>
        <time>2014-12-11T07:26:09Z</time>
      </trkpt>
      <trkpt lat="40.86712" lon="-3.9908">
        <ele>1439.71</ele>
        <time>2014-12-11T07:26:14Z</time>
      </trkpt>
      <trkpt lat="40.86714" lon="-3.99062">
        <ele>1440.67</ele>
        <time>2014-12-11T07:26:26Z</time>
      </trkpt>
      <trkpt lat="40.86714" lon="-3.99042">
        <ele>1441.15</ele>
        <time>2014-12-11T07:26:42Z</time>
      </trkpt>
      <trkpt lat="40.86714" lon="-3.99037">
        <ele>1442.11</ele>
        <time>2014-12-11T07:26:46Z</time>
      </trkpt>
      <trkpt lat="40.86715" lon="-3.99036">
        <ele>1442.11</ele>
        <time>2014-12-11T07:26:47Z</time>
      </trkpt>
      <trkpt lat="40.86716" lon="-3.99033">
        <ele>1443.08</ele>
        <time>2014-12-11T07:26:50Z</time>
      </trkpt>
      <trkpt lat="40.86718" lon="-3.99024">
        <ele>1442.6</ele>
        <time>2014-12-11T07:26:56Z</time>
      </trkpt>
      <trkpt lat="40.86718" lon="-3.99021">
        <ele>1443.08</ele>
        <time>2014-12-11T07:26:58Z</time>
      </trkpt>
      <trkpt lat="40.86723" lon="-3.99003">
        <ele>1445</ele>
        <time>2014-12-11T07:27:14Z</time>
      </trkpt>
      <trkpt lat="40.86728" lon="-3.98993">
        <ele>1446.92</ele>
        <time>2014-12-11T07:27:23Z</time>
      </trkpt>
      <trkpt lat="40.86733" lon="-3.98983">
        <ele>1449.32</ele>
        <time>2014-12-11T07:27:35Z</time>
      </trkpt>
      <trkpt lat="40.86737" lon="-3.98967">
        <ele>1449.81</ele>
        <time>2014-12-11T07:27:47Z</time>
      </trkpt>
      <trkpt lat="40.86735" lon="-3.98958">
        <ele>1449.81</ele>
        <time>2014-12-11T07:28:03Z</time>
      </trkpt>
      <trkpt lat="40.86732" lon="-3.98943">
        <ele>1448.84</ele>
        <time>2014-12-11T07:28:19Z</time>
      </trkpt>
      <trkpt lat="40.8674" lon="-3.98928">
        <ele>1448.36</ele>
        <time>2014-12-11T07:28:29Z</time>
      </trkpt>
      <trkpt lat="40.86749" lon="-3.98927">
        <ele>1449.81</ele>
        <time>2014-12-11T07:28:38Z</time>
      </trkpt>
      <trkpt lat="40.86765" lon="-3.9893">
        <ele>1449.81</ele>
        <time>2014-12-11T07:28:51Z</time>
      </trkpt>
      <trkpt lat="40.86767" lon="-3.9893">
        <ele>1449.81</ele>
        <time>2014-12-11T07:28:53Z</time>
      </trkpt>
      <trkpt lat="40.86774" lon="-3.98931">
        <ele>1450.29</ele>
        <time>2014-12-11T07:29:00Z</time>
      </trkpt>
      <trkpt lat="40.86788" lon="-3.98923">
        <ele>1452.69</ele>
        <time>2014-12-11T07:29:13Z</time>
      </trkpt>
      <trkpt lat="40.86795" lon="-3.9892">
        <ele>1454.13</ele>
        <time>2014-12-11T07:29:24Z</time>
      </trkpt>
      <trkpt lat="40.86788" lon="-3.98919">
        <ele>1453.65</ele>
        <time>2014-12-11T07:29:50Z</time>
      </trkpt>
      <trkpt lat="40.86773" lon="-3.98904">
        <ele>1455.09</ele>
        <time>2014-12-11T07:30:05Z</time>
      </trkpt>
      <trkpt lat="40.86761" lon="-3.98894">
        <ele>1456.53</ele>
        <time>2014-12-11T07:30:20Z</time>
      </trkpt>
      <trkpt lat="40.86748" lon="-3.98888">
        <ele>1457.02</ele>
        <time>2014-12-11T07:30:33Z</time>
      </trkpt>
      <trkpt lat="40.86733" lon="-3.98877">
        <ele>1459.42</ele>
        <time>2014-12-11T07:30:48Z</time>
      </trkpt>
      <trkpt lat="40.86727" lon="-3.98871">
        <ele>1459.9</ele>
        <time>2014-12-11T07:30:55Z</time>
      </trkpt>
      <trkpt lat="40.86719" lon="-3.98861">
        <ele>1461.34</ele>
        <time>2014-12-11T07:31:09Z</time>
      </trkpt>
      <trkpt lat="40.86712" lon="-3.98844">
        <ele>1462.3</ele>
        <time>2014-12-11T07:31:23Z</time>
      </trkpt>
      <trkpt lat="40.86703" lon="-3.98835">
        <ele>1464.71</ele>
        <time>2014-12-11T07:31:37Z</time>
      </trkpt>
      <trkpt lat="40.86689" lon="-3.9882">
        <ele>1466.63</ele>
        <time>2014-12-11T07:31:52Z</time>
      </trkpt>
      <trkpt lat="40.86678" lon="-3.98807">
        <ele>1468.55</ele>
        <time>2014-12-11T07:32:07Z</time>
      </trkpt>
      <trkpt lat="40.86673" lon="-3.98797">
        <ele>1470.95</ele>
        <time>2014-12-11T07:32:21Z</time>
      </trkpt>
      <trkpt lat="40.86663" lon="-3.98787">
        <ele>1471.44</ele>
        <time>2014-12-11T07:32:33Z</time>
      </trkpt>
      <trkpt lat="40.86649" lon="-3.98778">
        <ele>1473.84</ele>
        <time>2014-12-11T07:32:47Z</time>
      </trkpt>
      <trkpt lat="40.8664" lon="-3.9877">
        <ele>1475.76</ele>
        <time>2014-12-11T07:33:00Z</time>
      </trkpt>
      <trkpt lat="40.86627" lon="-3.98758">
        <ele>1478.65</ele>
        <time>2014-12-11T07:33:17Z</time>
      </trkpt>
      <trkpt lat="40.86615" lon="-3.98752">
        <ele>1480.09</ele>
        <time>2014-12-11T07:33:30Z</time>
      </trkpt>
      <trkpt lat="40.86603" lon="-3.98744">
        <ele>1481.05</ele>
        <time>2014-12-11T07:33:44Z</time>
      </trkpt>
      <trkpt lat="40.86599" lon="-3.9874">
        <ele>1481.53</ele>
        <time>2014-12-11T07:34:03Z</time>
      </trkpt>
      <trkpt lat="40.86598" lon="-3.98732">
        <ele>1480.09</ele>
        <time>2014-12-11T07:34:21Z</time>
      </trkpt>
      <trkpt lat="40.86598" lon="-3.98732">
        <ele>1481.53</ele>
        <time>2014-12-11T07:34:30Z</time>
      </trkpt>
      <trkpt lat="40.86594" lon="-3.98729">
        <ele>1482.97</ele>
        <time>2014-12-11T07:34:46Z</time>
      </trkpt>
      <trkpt lat="40.86593" lon="-3.98723">
        <ele>1482.49</ele>
        <time>2014-12-11T07:35:09Z</time>
      </trkpt>
      <trkpt lat="40.86591" lon="-3.98721">
        <ele>1482.97</ele>
        <time>2014-12-11T07:35:34Z</time>
      </trkpt>
      <trkpt lat="40.86595" lon="-3.98727">
        <ele>1482.97</ele>
        <time>2014-12-11T07:35:49Z</time>
      </trkpt>
      <trkpt lat="40.86605" lon="-3.98727">
        <ele>1482.49</ele>
        <time>2014-12-11T07:36:02Z</time>
      </trkpt>
      <trkpt lat="40.86608" lon="-3.98726">
        <ele>1483.45</ele>
        <time>2014-12-11T07:36:21Z</time>
      </trkpt>
      <trkpt lat="40.86613" lon="-3.98721">
        <ele>1483.93</ele>
        <time>2014-12-11T07:36:37Z</time>
      </trkpt>
      <trkpt lat="40.86609" lon="-3.98715">
        <ele>1484.89</ele>
        <time>2014-12-11T07:36:48Z</time>
      </trkpt>
      <trkpt lat="40.86611" lon="-3.98712">
        <ele>1485.37</ele>
        <time>2014-12-11T07:37:15Z</time>
      </trkpt>
      <trkpt lat="40.86599" lon="-3.98698">
        <ele>1487.78</ele>
        <time>2014-12-11T07:37:30Z</time>
      </trkpt>
      <trkpt lat="40.86587" lon="-3.98689">
        <ele>1490.18</ele>
        <time>2014-12-11T07:37:45Z</time>
      </trkpt>
      <trkpt lat="40.86582" lon="-3.98675">
        <ele>1492.1</ele>
        <time>2014-12-11T07:37:58Z</time>
      </trkpt>
      <trkpt lat="40.86581" lon="-3.98663">
        <ele>1494.03</ele>
        <time>2014-12-11T07:38:11Z</time>
      </trkpt>
      <trkpt lat="40.86579" lon="-3.98651">
        <ele>1496.43</ele>
        <time>2014-12-11T07:38:24Z</time>
      </trkpt>
      <trkpt lat="40.8658" lon="-3.98634">
        <ele>1498.83</ele>
        <time>2014-12-11T07:38:39Z</time>
      </trkpt>
      <trkpt lat="40.8658" lon="-3.98623">
        <ele>1500.27</ele>
        <time>2014-12-11T07:38:52Z</time>
      </trkpt>
      <trkpt lat="40.86577" lon="-3.98612">
        <ele>1501.24</ele>
        <time>2014-12-11T07:39:02Z</time>
      </trkpt>
      <trkpt lat="40.8658" lon="-3.98593">
        <ele>1503.64</ele>
        <time>2014-12-11T07:39:17Z</time>
      </trkpt>
      <trkpt lat="40.86577" lon="-3.98582">
        <ele>1505.08</ele>
        <time>2014-12-11T07:39:26Z</time>
      </trkpt>
      <trkpt lat="40.86578" lon="-3.98562">
        <ele>1506.52</ele>
        <time>2014-12-11T07:39:42Z</time>
      </trkpt>
      <trkpt lat="40.86582" lon="-3.98551">
        <ele>1508.93</ele>
        <time>2014-12-11T07:39:55Z</time>
      </trkpt>
      <trkpt lat="40.86585" lon="-3.98545">
        <ele>1511.81</ele>
        <time>2014-12-11T07:40:08Z</time>
      </trkpt>
      <trkpt lat="40.8659" lon="-3.98542">
        <ele>1514.21</ele>
        <time>2014-12-11T07:40:18Z</time>
      </trkpt>
      <trkpt lat="40.86596" lon="-3.98531">
        <ele>1517.1</ele>
        <time>2014-12-11T07:40:30Z</time>
      </trkpt>
      <trkpt lat="40.86597" lon="-3.98518">
        <ele>1519.02</ele>
        <time>2014-12-11T07:40:42Z</time>
      </trkpt>
      <trkpt lat="40.86596" lon="-3.98502">
        <ele>1519.5</ele>
        <time>2014-12-11T07:40:54Z</time>
      </trkpt>
      <trkpt lat="40.86595" lon="-3.98482">
        <ele>1520.94</ele>
        <time>2014-12-11T07:41:08Z</time>
      </trkpt>
      <trkpt lat="40.86593" lon="-3.98471">
        <ele>1521.9</ele>
        <time>2014-12-11T07:41:18Z</time>
      </trkpt>
      <trkpt lat="40.86593" lon="-3.98468">
        <ele>1522.39</ele>
        <time>2014-12-11T07:41:20Z</time>
      </trkpt>
      <trkpt lat="40.86594" lon="-3.98451">
        <ele>1524.79</ele>
        <time>2014-12-11T07:41:34Z</time>
      </trkpt>
      <trkpt lat="40.86595" lon="-3.9844">
        <ele>1527.19</ele>
        <time>2014-12-11T07:41:47Z</time>
      </trkpt>
      <trkpt lat="40.86596" lon="-3.98433">
        <ele>1528.63</ele>
        <time>2014-12-11T07:41:54Z</time>
      </trkpt>
      <trkpt lat="40.86598" lon="-3.98422">
        <ele>1531.04</ele>
        <time>2014-12-11T07:42:06Z</time>
      </trkpt>
      <trkpt lat="40.86599" lon="-3.98407">
        <ele>1533.44</ele>
        <time>2014-12-11T07:42:20Z</time>
      </trkpt>
      <trkpt lat="40.86602" lon="-3.98398">
        <ele>1535.84</ele>
        <time>2014-12-11T07:42:32Z</time>
      </trkpt>
      <trkpt lat="40.86608" lon="-3.98388">
        <ele>1538.25</ele>
        <time>2014-12-11T07:42:45Z</time>
      </trkpt>
      <trkpt lat="40.86613" lon="-3.98383">
        <ele>1540.65</ele>
        <time>2014-12-11T07:42:58Z</time>
      </trkpt>
      <trkpt lat="40.86617" lon="-3.98379">
        <ele>1543.53</ele>
        <time>2014-12-11T07:43:10Z</time>
      </trkpt>
      <trkpt lat="40.86623" lon="-3.9837">
        <ele>1546.9</ele>
        <time>2014-12-11T07:43:26Z</time>
      </trkpt>
      <trkpt lat="40.86625" lon="-3.98367">
        <ele>1547.86</ele>
        <time>2014-12-11T07:43:32Z</time>
      </trkpt>
      <trkpt lat="40.86628" lon="-3.98359">
        <ele>1550.74</ele>
        <time>2014-12-11T07:43:44Z</time>
      </trkpt>
      <trkpt lat="40.86629" lon="-3.98355">
        <ele>1552.19</ele>
        <time>2014-12-11T07:43:50Z</time>
      </trkpt>
      <trkpt lat="40.86632" lon="-3.98344">
        <ele>1554.59</ele>
        <time>2014-12-11T07:44:04Z</time>
      </trkpt>
      <trkpt lat="40.86634" lon="-3.98329">
        <ele>1556.99</ele>
        <time>2014-12-11T07:44:18Z</time>
      </trkpt>
      <trkpt lat="40.86636" lon="-3.98316">
        <ele>1558.43</ele>
        <time>2014-12-11T07:44:30Z</time>
      </trkpt>
      <trkpt lat="40.86639" lon="-3.983">
        <ele>1560.84</ele>
        <time>2014-12-11T07:44:45Z</time>
      </trkpt>
      <trkpt lat="40.86642" lon="-3.9829">
        <ele>1563.24</ele>
        <time>2014-12-11T07:44:58Z</time>
      </trkpt>
      <trkpt lat="40.86645" lon="-3.98279">
        <ele>1565.16</ele>
        <time>2014-12-11T07:45:09Z</time>
      </trkpt>
      <trkpt lat="40.86646" lon="-3.98266">
        <ele>1567.57</ele>
        <time>2014-12-11T07:45:21Z</time>
      </trkpt>
      <trkpt lat="40.86647" lon="-3.98257">
        <ele>1569.49</ele>
        <time>2014-12-11T07:45:31Z</time>
      </trkpt>
      <trkpt lat="40.86652" lon="-3.9825">
        <ele>1571.89</ele>
        <time>2014-12-11T07:45:43Z</time>
      </trkpt>
      <trkpt lat="40.86656" lon="-3.98243">
        <ele>1573.82</ele>
        <time>2014-12-11T07:45:55Z</time>
      </trkpt>
      <trkpt lat="40.86658" lon="-3.98235">
        <ele>1576.22</ele>
        <time>2014-12-11T07:46:10Z</time>
      </trkpt>
      <trkpt lat="40.86657" lon="-3.98218">
        <ele>1577.66</ele>
        <time>2014-12-11T07:46:22Z</time>
      </trkpt>
      <trkpt lat="40.8666" lon="-3.982">
        <ele>1580.06</ele>
        <time>2014-12-11T07:46:37Z</time>
      </trkpt>
      <trkpt lat="40.8666" lon="-3.98183">
        <ele>1581.99</ele>
        <time>2014-12-11T07:46:50Z</time>
      </trkpt>
      <trkpt lat="40.86664" lon="-3.98171">
        <ele>1584.39</ele>
        <time>2014-12-11T07:47:03Z</time>
      </trkpt>
      <trkpt lat="40.86665" lon="-3.98157">
        <ele>1586.31</ele>
        <time>2014-12-11T07:47:15Z</time>
      </trkpt>
      <trkpt lat="40.86667" lon="-3.98141">
        <ele>1588.24</ele>
        <time>2014-12-11T07:47:29Z</time>
      </trkpt>
      <trkpt lat="40.86674" lon="-3.98138">
        <ele>1590.64</ele>
        <time>2014-12-11T07:47:42Z</time>
      </trkpt>
      <trkpt lat="40.8668" lon="-3.98135">
        <ele>1593.04</ele>
        <time>2014-12-11T07:47:53Z</time>
      </trkpt>
      <trkpt lat="40.86687" lon="-3.98123">
        <ele>1595.45</ele>
        <time>2014-12-11T07:48:07Z</time>
      </trkpt>
      <trkpt lat="40.86694" lon="-3.98117">
        <ele>1598.81</ele>
        <time>2014-12-11T07:48:21Z</time>
      </trkpt>
      <trkpt lat="40.86701" lon="-3.98109">
        <ele>1600.73</ele>
        <time>2014-12-11T07:48:33Z</time>
      </trkpt>
      <trkpt lat="40.86704" lon="-3.98097">
        <ele>1601.21</ele>
        <time>2014-12-11T07:48:45Z</time>
      </trkpt>
      <trkpt lat="40.86704" lon="-3.981">
        <ele>1600.73</ele>
        <time>2014-12-11T07:49:02Z</time>
      </trkpt>
      <trkpt lat="40.86709" lon="-3.98101">
        <ele>1600.73</ele>
        <time>2014-12-11T07:49:33Z</time>
      </trkpt>
      <trkpt lat="40.86705" lon="-3.98104">
        <ele>1600.25</ele>
        <time>2014-12-11T07:49:58Z</time>
      </trkpt>
      <trkpt lat="40.86711" lon="-3.98101">
        <ele>1600.73</ele>
        <time>2014-12-11T07:50:19Z</time>
      </trkpt>
      <trkpt lat="40.86714" lon="-3.98105">
        <ele>1603.62</ele>
        <time>2014-12-11T07:50:31Z</time>
      </trkpt>
      <trkpt lat="40.86719" lon="-3.98105">
        <ele>1606.5</ele>
        <time>2014-12-11T07:50:43Z</time>
      </trkpt>
      <trkpt lat="40.86725" lon="-3.98099">
        <ele>1606.5</ele>
        <time>2014-12-11T07:50:57Z</time>
      </trkpt>
      <trkpt lat="40.86721" lon="-3.98108">
        <ele>1608.9</ele>
        <time>2014-12-11T07:51:08Z</time>
      </trkpt>
      <trkpt lat="40.8672" lon="-3.98114">
        <ele>1612.27</ele>
        <time>2014-12-11T07:51:16Z</time>
      </trkpt>
      <trkpt lat="40.86721" lon="-3.98115">
        <ele>1611.31</ele>
        <time>2014-12-11T07:51:17Z</time>
      </trkpt>
      <trkpt lat="40.8673" lon="-3.98111">
        <ele>1613.71</ele>
        <time>2014-12-11T07:51:29Z</time>
      </trkpt>
      <trkpt lat="40.86736" lon="-3.98112">
        <ele>1616.11</ele>
        <time>2014-12-11T07:51:40Z</time>
      </trkpt>
      <trkpt lat="40.86743" lon="-3.98115">
        <ele>1618.04</ele>
        <time>2014-12-11T07:51:54Z</time>
      </trkpt>
      <trkpt lat="40.86751" lon="-3.98111">
        <ele>1620.44</ele>
        <time>2014-12-11T07:52:09Z</time>
      </trkpt>
      <trkpt lat="40.86754" lon="-3.98104">
        <ele>1622.36</ele>
        <time>2014-12-11T07:52:19Z</time>
      </trkpt>
      <trkpt lat="40.86753" lon="-3.981">
        <ele>1622.36</ele>
        <time>2014-12-11T07:52:23Z</time>
      </trkpt>
      <trkpt lat="40.86754" lon="-3.98093">
        <ele>1624.28</ele>
        <time>2014-12-11T07:52:36Z</time>
      </trkpt>
      <trkpt lat="40.86755" lon="-3.98081">
        <ele>1624.28</ele>
        <time>2014-12-11T07:52:50Z</time>
      </trkpt>
      <trkpt lat="40.8676" lon="-3.98075">
        <ele>1626.69</ele>
        <time>2014-12-11T07:53:01Z</time>
      </trkpt>
      <trkpt lat="40.86763" lon="-3.98074">
        <ele>1629.09</ele>
        <time>2014-12-11T07:53:13Z</time>
      </trkpt>
      <trkpt lat="40.86765" lon="-3.98074">
        <ele>1629.09</ele>
        <time>2014-12-11T07:53:26Z</time>
      </trkpt>
      <trkpt lat="40.86765" lon="-3.98073">
        <ele>1629.09</ele>
        <time>2014-12-11T07:53:30Z</time>
      </trkpt>
      <trkpt lat="40.86764" lon="-3.98064">
        <ele>1628.61</ele>
        <time>2014-12-11T07:53:46Z</time>
      </trkpt>
      <trkpt lat="40.86764" lon="-3.98065">
        <ele>1629.57</ele>
        <time>2014-12-11T07:54:01Z</time>
      </trkpt>
      <trkpt lat="40.86767" lon="-3.98065">
        <ele>1629.57</ele>
        <time>2014-12-11T07:54:18Z</time>
      </trkpt>
      <trkpt lat="40.86769" lon="-3.98059">
        <ele>1631.01</ele>
        <time>2014-12-11T07:54:32Z</time>
      </trkpt>
      <trkpt lat="40.86767" lon="-3.98051">
        <ele>1632.46</ele>
        <time>2014-12-11T07:54:47Z</time>
      </trkpt>
      <trkpt lat="40.86773" lon="-3.98049">
        <ele>1633.42</ele>
        <time>2014-12-11T07:55:03Z</time>
      </trkpt>
      <trkpt lat="40.86777" lon="-3.98045">
        <ele>1634.86</ele>
        <time>2014-12-11T07:55:16Z</time>
      </trkpt>
      <trkpt lat="40.8678" lon="-3.9805">
        <ele>1637.74</ele>
        <time>2014-12-11T07:55:28Z</time>
      </trkpt>
      <trkpt lat="40.86786" lon="-3.98048">
        <ele>1640.63</ele>
        <time>2014-12-11T07:55:41Z</time>
      </trkpt>
      <trkpt lat="40.86786" lon="-3.98049">
        <ele>1641.59</ele>
        <time>2014-12-11T07:55:54Z</time>
      </trkpt>
      <trkpt lat="40.86786" lon="-3.98048">
        <ele>1641.59</ele>
        <time>2014-12-11T07:56:23Z</time>
      </trkpt>
      <trkpt lat="40.86786" lon="-3.98051">
        <ele>1642.55</ele>
        <time>2014-12-11T07:56:57Z</time>
      </trkpt>
      <trkpt lat="40.86794" lon="-3.98044">
        <ele>1645.43</ele>
        <time>2014-12-11T07:57:10Z</time>
      </trkpt>
      <trkpt lat="40.86801" lon="-3.98043">
        <ele>1647.36</ele>
        <time>2014-12-11T07:57:23Z</time>
      </trkpt>
      <trkpt lat="40.86808" lon="-3.98036">
        <ele>1647.84</ele>
        <time>2014-12-11T07:57:36Z</time>
      </trkpt>
      <trkpt lat="40.86816" lon="-3.98029">
        <ele>1649.28</ele>
        <time>2014-12-11T07:57:48Z</time>
      </trkpt>
      <trkpt lat="40.86825" lon="-3.98016">
        <ele>1650.24</ele>
        <time>2014-12-11T07:58:01Z</time>
      </trkpt>
      <trkpt lat="40.86832" lon="-3.98001">
        <ele>1651.2</ele>
        <time>2014-12-11T07:58:14Z</time>
      </trkpt>
      <trkpt lat="40.86838" lon="-3.97997">
        <ele>1652.64</ele>
        <time>2014-12-11T07:58:25Z</time>
      </trkpt>
      <trkpt lat="40.86844" lon="-3.97994">
        <ele>1654.57</ele>
        <time>2014-12-11T07:58:37Z</time>
      </trkpt>
      <trkpt lat="40.8685" lon="-3.97984">
        <ele>1656.01</ele>
        <time>2014-12-11T07:58:49Z</time>
      </trkpt>
      <trkpt lat="40.86856" lon="-3.97973">
        <ele>1656.49</ele>
        <time>2014-12-11T07:59:03Z</time>
      </trkpt>
      <trkpt lat="40.86856" lon="-3.97963">
        <ele>1656.49</ele>
        <time>2014-12-11T07:59:15Z</time>
      </trkpt>
      <trkpt lat="40.86859" lon="-3.97955">
        <ele>1656.49</ele>
        <time>2014-12-11T07:59:28Z</time>
      </trkpt>
      <trkpt lat="40.86865" lon="-3.97947">
        <ele>1656.49</ele>
        <time>2014-12-11T07:59:41Z</time>
      </trkpt>
      <trkpt lat="40.86869" lon="-3.97939">
        <ele>1656.97</ele>
        <time>2014-12-11T07:59:49Z</time>
      </trkpt>
      <trkpt lat="40.86875" lon="-3.97925">
        <ele>1657.45</ele>
        <time>2014-12-11T08:00:00Z</time>
      </trkpt>
      <trkpt lat="40.8688" lon="-3.97911">
        <ele>1657.93</ele>
        <time>2014-12-11T08:00:14Z</time>
      </trkpt>
      <trkpt lat="40.86883" lon="-3.97903">
        <ele>1658.89</ele>
        <time>2014-12-11T08:00:21Z</time>
      </trkpt>
      <trkpt lat="40.86884" lon="-3.97897">
        <ele>1658.89</ele>
        <time>2014-12-11T08:00:25Z</time>
      </trkpt>
      <trkpt lat="40.86886" lon="-3.97891">
        <ele>1658.41</ele>
        <time>2014-12-11T08:00:36Z</time>
      </trkpt>
      <trkpt lat="40.86891" lon="-3.97877">
        <ele>1659.37</ele>
        <time>2014-12-11T08:00:53Z</time>
      </trkpt>
      <trkpt lat="40.86891" lon="-3.97876">
        <ele>1659.37</ele>
        <time>2014-12-11T08:00:54Z</time>
      </trkpt>
      <trkpt lat="40.86892" lon="-3.97854">
        <ele>1660.81</ele>
        <time>2014-12-11T08:01:11Z</time>
      </trkpt>
      <trkpt lat="40.86892" lon="-3.97832">
        <ele>1661.3</ele>
        <time>2014-12-11T08:01:30Z</time>
      </trkpt>
      <trkpt lat="40.86899" lon="-3.97817">
        <ele>1662.74</ele>
        <time>2014-12-11T08:01:44Z</time>
      </trkpt>
      <trkpt lat="40.86905" lon="-3.97805">
        <ele>1663.22</ele>
        <time>2014-12-11T08:01:56Z</time>
      </trkpt>
      <trkpt lat="40.86907" lon="-3.978">
        <ele>1664.18</ele>
        <time>2014-12-11T08:02:01Z</time>
      </trkpt>
      <trkpt lat="40.86908" lon="-3.97797">
        <ele>1664.18</ele>
        <time>2014-12-11T08:02:04Z</time>
      </trkpt>
      <trkpt lat="40.86913" lon="-3.97783">
        <ele>1665.62</ele>
        <time>2014-12-11T08:02:19Z</time>
      </trkpt>
      <trkpt lat="40.86917" lon="-3.97773">
        <ele>1667.06</ele>
        <time>2014-12-11T08:02:42Z</time>
      </trkpt>
      <trkpt lat="40.86921" lon="-3.97762">
        <ele>1669.47</ele>
        <time>2014-12-11T08:02:55Z</time>
      </trkpt>
      <trkpt lat="40.86927" lon="-3.97753">
        <ele>1670.91</ele>
        <time>2014-12-11T08:03:05Z</time>
      </trkpt>
      <trkpt lat="40.86937" lon="-3.97746">
        <ele>1673.79</ele>
        <time>2014-12-11T08:03:20Z</time>
      </trkpt>
      <trkpt lat="40.86947" lon="-3.97738">
        <ele>1676.2</ele>
        <time>2014-12-11T08:03:34Z</time>
      </trkpt>
      <trkpt lat="40.8695" lon="-3.97734">
        <ele>1677.16</ele>
        <time>2014-12-11T08:03:40Z</time>
      </trkpt>
      <trkpt lat="40.86953" lon="-3.97728">
        <ele>1678.12</ele>
        <time>2014-12-11T08:03:46Z</time>
      </trkpt>
      <trkpt lat="40.86954" lon="-3.97722">
        <ele>1678.12</ele>
        <time>2014-12-11T08:03:50Z</time>
      </trkpt>
      <trkpt lat="40.86954" lon="-3.97717">
        <ele>1678.6</ele>
        <time>2014-12-11T08:03:53Z</time>
      </trkpt>
      <trkpt lat="40.86957" lon="-3.97691">
        <ele>1678.12</ele>
        <time>2014-12-11T08:04:09Z</time>
      </trkpt>
      <trkpt lat="40.86958" lon="-3.97689">
        <ele>1678.12</ele>
        <time>2014-12-11T08:04:11Z</time>
      </trkpt>
      <trkpt lat="40.86956" lon="-3.97663">
        <ele>1679.08</ele>
        <time>2014-12-11T08:04:28Z</time>
      </trkpt>
      <trkpt lat="40.86956" lon="-3.97661">
        <ele>1679.08</ele>
        <time>2014-12-11T08:04:30Z</time>
      </trkpt>
      <trkpt lat="40.86959" lon="-3.97649">
        <ele>1680.04</ele>
        <time>2014-12-11T08:04:39Z</time>
      </trkpt>
      <trkpt lat="40.86961" lon="-3.97645">
        <ele>1680.04</ele>
        <time>2014-12-11T08:04:42Z</time>
      </trkpt>
      <trkpt lat="40.8696" lon="-3.97625">
        <ele>1680.04</ele>
        <time>2014-12-11T08:04:55Z</time>
      </trkpt>
      <trkpt lat="40.86958" lon="-3.97611">
        <ele>1680.04</ele>
        <time>2014-12-11T08:05:06Z</time>
      </trkpt>
      <trkpt lat="40.86957" lon="-3.97596">
        <ele>1681</ele>
        <time>2014-12-11T08:05:16Z</time>
      </trkpt>
      <trkpt lat="40.86957" lon="-3.97594">
        <ele>1681.48</ele>
        <time>2014-12-11T08:05:18Z</time>
      </trkpt>
      <trkpt lat="40.86956" lon="-3.97578">
        <ele>1682.93</ele>
        <time>2014-12-11T08:05:30Z</time>
      </trkpt>
      <trkpt lat="40.86957" lon="-3.97563">
        <ele>1684.37</ele>
        <time>2014-12-11T08:05:42Z</time>
      </trkpt>
      <trkpt lat="40.86955" lon="-3.97546">
        <ele>1685.81</ele>
        <time>2014-12-11T08:05:55Z</time>
      </trkpt>
      <trkpt lat="40.86953" lon="-3.97537">
        <ele>1686.77</ele>
        <time>2014-12-11T08:06:02Z</time>
      </trkpt>
      <trkpt lat="40.86949" lon="-3.97521">
        <ele>1688.21</ele>
        <time>2014-12-11T08:06:17Z</time>
      </trkpt>
      <trkpt lat="40.86949" lon="-3.97509">
        <ele>1689.65</ele>
        <time>2014-12-11T08:06:29Z</time>
      </trkpt>
      <trkpt lat="40.86952" lon="-3.975">
        <ele>1690.62</ele>
        <time>2014-12-11T08:06:40Z</time>
      </trkpt>
      <trkpt lat="40.86953" lon="-3.97493">
        <ele>1691.58</ele>
        <time>2014-12-11T08:06:47Z</time>
      </trkpt>
      <trkpt lat="40.86954" lon="-3.97488">
        <ele>1692.06</ele>
        <time>2014-12-11T08:06:51Z</time>
      </trkpt>
      <trkpt lat="40.86961" lon="-3.97478">
        <ele>1693.98</ele>
        <time>2014-12-11T08:07:04Z</time>
      </trkpt>
      <trkpt lat="40.86966" lon="-3.97464">
        <ele>1695.42</ele>
        <time>2014-12-11T08:07:16Z</time>
      </trkpt>
      <trkpt lat="40.86974" lon="-3.97449">
        <ele>1696.38</ele>
        <time>2014-12-11T08:07:29Z</time>
      </trkpt>
      <trkpt lat="40.86979" lon="-3.97431">
        <ele>1697.83</ele>
        <time>2014-12-11T08:07:42Z</time>
      </trkpt>
      <trkpt lat="40.86977" lon="-3.97411">
        <ele>1698.79</ele>
        <time>2014-12-11T08:07:57Z</time>
      </trkpt>
      <trkpt lat="40.86978" lon="-3.97409">
        <ele>1699.27</ele>
        <time>2014-12-11T08:07:59Z</time>
      </trkpt>
      <trkpt lat="40.86969" lon="-3.97395">
        <ele>1699.75</ele>
        <time>2014-12-11T08:08:12Z</time>
      </trkpt>
      <trkpt lat="40.86963" lon="-3.97383">
        <ele>1700.23</ele>
        <time>2014-12-11T08:08:25Z</time>
      </trkpt>
      <trkpt lat="40.86956" lon="-3.97376">
        <ele>1700.71</ele>
        <time>2014-12-11T08:08:37Z</time>
      </trkpt>
      <trkpt lat="40.86953" lon="-3.97367">
        <ele>1702.63</ele>
        <time>2014-12-11T08:08:50Z</time>
      </trkpt>
      <trkpt lat="40.86954" lon="-3.97362">
        <ele>1702.63</ele>
        <time>2014-12-11T08:08:59Z</time>
      </trkpt>
      <trkpt lat="40.86958" lon="-3.97358">
        <ele>1704.07</ele>
        <time>2014-12-11T08:09:03Z</time>
      </trkpt>
      <trkpt lat="40.86958" lon="-3.97357">
        <ele>1704.07</ele>
        <time>2014-12-11T08:09:04Z</time>
      </trkpt>
      <trkpt lat="40.86963" lon="-3.97344">
        <ele>1705.52</ele>
        <time>2014-12-11T08:09:16Z</time>
      </trkpt>
      <trkpt lat="40.86965" lon="-3.9734">
        <ele>1706</ele>
        <time>2014-12-11T08:09:20Z</time>
      </trkpt>
      <trkpt lat="40.8697" lon="-3.97329">
        <ele>1706.96</ele>
        <time>2014-12-11T08:09:32Z</time>
      </trkpt>
      <trkpt lat="40.86973" lon="-3.97321">
        <ele>1707.44</ele>
        <time>2014-12-11T08:09:43Z</time>
      </trkpt>
      <trkpt lat="40.86974" lon="-3.97316">
        <ele>1707.44</ele>
        <time>2014-12-11T08:09:56Z</time>
      </trkpt>
      <trkpt lat="40.86973" lon="-3.97314">
        <ele>1707.44</ele>
        <time>2014-12-11T08:10:16Z</time>
      </trkpt>
      <trkpt lat="40.86974" lon="-3.9731">
        <ele>1707.92</ele>
        <time>2014-12-11T08:10:39Z</time>
      </trkpt>
      <trkpt lat="40.86973" lon="-3.97307">
        <ele>1708.4</ele>
        <time>2014-12-11T08:10:50Z</time>
      </trkpt>
      <trkpt lat="40.86973" lon="-3.97304">
        <ele>1708.4</ele>
        <time>2014-12-11T08:10:53Z</time>
      </trkpt>
      <trkpt lat="40.86973" lon="-3.97301">
        <ele>1708.4</ele>
        <time>2014-12-11T08:10:55Z</time>
      </trkpt>
      <trkpt lat="40.8697" lon="-3.97291">
        <ele>1708.88</ele>
        <time>2014-12-11T08:11:10Z</time>
      </trkpt>
      <trkpt lat="40.86973" lon="-3.97286">
        <ele>1710.8</ele>
        <time>2014-12-11T08:11:30Z</time>
      </trkpt>
      <trkpt lat="40.86976" lon="-3.97278">
        <ele>1712.25</ele>
        <time>2014-12-11T08:11:41Z</time>
      </trkpt>
      <trkpt lat="40.86978" lon="-3.97263">
        <ele>1714.65</ele>
        <time>2014-12-11T08:11:56Z</time>
      </trkpt>
      <trkpt lat="40.86982" lon="-3.97253">
        <ele>1715.61</ele>
        <time>2014-12-11T08:12:06Z</time>
      </trkpt>
      <trkpt lat="40.86982" lon="-3.97252">
        <ele>1716.09</ele>
        <time>2014-12-11T08:12:07Z</time>
      </trkpt>
      <trkpt lat="40.86982" lon="-3.97248">
        <ele>1716.09</ele>
        <time>2014-12-11T08:12:10Z</time>
      </trkpt>
      <trkpt lat="40.86984" lon="-3.97239">
        <ele>1717.53</ele>
        <time>2014-12-11T08:12:21Z</time>
      </trkpt>
      <trkpt lat="40.86984" lon="-3.97228">
        <ele>1718.01</ele>
        <time>2014-12-11T08:12:31Z</time>
      </trkpt>
      <trkpt lat="40.86984" lon="-3.97218">
        <ele>1719.46</ele>
        <time>2014-12-11T08:12:42Z</time>
      </trkpt>
      <trkpt lat="40.86984" lon="-3.97213">
        <ele>1719.94</ele>
        <time>2014-12-11T08:12:46Z</time>
      </trkpt>
      <trkpt lat="40.86983" lon="-3.97192">
        <ele>1721.86</ele>
        <time>2014-12-11T08:13:02Z</time>
      </trkpt>
      <trkpt lat="40.86985" lon="-3.97175">
        <ele>1723.78</ele>
        <time>2014-12-11T08:13:15Z</time>
      </trkpt>
      <trkpt lat="40.86987" lon="-3.97164">
        <ele>1725.7</ele>
        <time>2014-12-11T08:13:27Z</time>
      </trkpt>
      <trkpt lat="40.86988" lon="-3.97152">
        <ele>1727.63</ele>
        <time>2014-12-11T08:13:39Z</time>
      </trkpt>
      <trkpt lat="40.86988" lon="-3.97147">
        <ele>1728.59</ele>
        <time>2014-12-11T08:13:46Z</time>
      </trkpt>
      <trkpt lat="40.86988" lon="-3.9714">
        <ele>1729.55</ele>
        <time>2014-12-11T08:13:54Z</time>
      </trkpt>
      <trkpt lat="40.86986" lon="-3.97123">
        <ele>1730.51</ele>
        <time>2014-12-11T08:14:09Z</time>
      </trkpt>
      <trkpt lat="40.86986" lon="-3.97119">
        <ele>1730.51</ele>
        <time>2014-12-11T08:14:12Z</time>
      </trkpt>
      <trkpt lat="40.86985" lon="-3.97115">
        <ele>1730.51</ele>
        <time>2014-12-11T08:14:14Z</time>
      </trkpt>
      <trkpt lat="40.86984" lon="-3.97109">
        <ele>1731.95</ele>
        <time>2014-12-11T08:14:27Z</time>
      </trkpt>
      <trkpt lat="40.86986" lon="-3.97103">
        <ele>1731.95</ele>
        <time>2014-12-11T08:14:48Z</time>
      </trkpt>
      <trkpt lat="40.86988" lon="-3.97097">
        <ele>1733.39</ele>
        <time>2014-12-11T08:15:00Z</time>
      </trkpt>
      <trkpt lat="40.86985" lon="-3.97087">
        <ele>1733.39</ele>
        <time>2014-12-11T08:15:19Z</time>
      </trkpt>
      <trkpt lat="40.86983" lon="-3.97082">
        <ele>1733.88</ele>
        <time>2014-12-11T08:15:24Z</time>
      </trkpt>
      <trkpt lat="40.8698" lon="-3.97068">
        <ele>1734.84</ele>
        <time>2014-12-11T08:15:37Z</time>
      </trkpt>
      <trkpt lat="40.86979" lon="-3.97057">
        <ele>1736.28</ele>
        <time>2014-12-11T08:15:48Z</time>
      </trkpt>
      <trkpt lat="40.8698" lon="-3.97043">
        <ele>1738.2</ele>
        <time>2014-12-11T08:16:01Z</time>
      </trkpt>
      <trkpt lat="40.86982" lon="-3.9703">
        <ele>1739.16</ele>
        <time>2014-12-11T08:16:12Z</time>
      </trkpt>
      <trkpt lat="40.86984" lon="-3.9702">
        <ele>1740.6</ele>
        <time>2014-12-11T08:16:24Z</time>
      </trkpt>
      <trkpt lat="40.86984" lon="-3.97009">
        <ele>1741.57</ele>
        <time>2014-12-11T08:16:34Z</time>
      </trkpt>
      <trkpt lat="40.86983" lon="-3.97">
        <ele>1741.57</ele>
        <time>2014-12-11T08:16:45Z</time>
      </trkpt>
      <trkpt lat="40.86987" lon="-3.96989">
        <ele>1743.49</ele>
        <time>2014-12-11T08:16:58Z</time>
      </trkpt>
      <trkpt lat="40.86989" lon="-3.96988">
        <ele>1743.97</ele>
        <time>2014-12-11T08:17:00Z</time>
      </trkpt>
      <trkpt lat="40.86995" lon="-3.96978">
        <ele>1745.41</ele>
        <time>2014-12-11T08:17:11Z</time>
      </trkpt>
      <trkpt lat="40.86996" lon="-3.96975">
        <ele>1745.89</ele>
        <time>2014-12-11T08:17:14Z</time>
      </trkpt>
      <trkpt lat="40.86997" lon="-3.96965">
        <ele>1748.78</ele>
        <time>2014-12-11T08:17:24Z</time>
      </trkpt>
      <trkpt lat="40.87003" lon="-3.96955">
        <ele>1749.26</ele>
        <time>2014-12-11T08:17:36Z</time>
      </trkpt>
      <trkpt lat="40.87002" lon="-3.96937">
        <ele>1750.22</ele>
        <time>2014-12-11T08:17:49Z</time>
      </trkpt>
      <trkpt lat="40.87004" lon="-3.96925">
        <ele>1751.66</ele>
        <time>2014-12-11T08:18:00Z</time>
      </trkpt>
      <trkpt lat="40.87005" lon="-3.96915">
        <ele>1753.1</ele>
        <time>2014-12-11T08:18:09Z</time>
      </trkpt>
      <trkpt lat="40.87005" lon="-3.96915">
        <ele>1753.1</ele>
        <time>2014-12-11T08:18:10Z</time>
      </trkpt>
      <trkpt lat="40.87006" lon="-3.96904">
        <ele>1752.14</ele>
        <time>2014-12-11T08:18:23Z</time>
      </trkpt>
      <trkpt lat="40.87002" lon="-3.96906">
        <ele>1749.26</ele>
        <time>2014-12-11T08:18:38Z</time>
      </trkpt>
      <trkpt lat="40.87" lon="-3.96903">
        <ele>1753.1</ele>
        <time>2014-12-11T08:18:45Z</time>
      </trkpt>
      <trkpt lat="40.86999" lon="-3.96902">
        <ele>1752.62</ele>
        <time>2014-12-11T08:18:46Z</time>
      </trkpt>
      <trkpt lat="40.86994" lon="-3.96888">
        <ele>1750.22</ele>
        <time>2014-12-11T08:19:00Z</time>
      </trkpt>
      <trkpt lat="40.86989" lon="-3.96884">
        <ele>1749.26</ele>
        <time>2014-12-11T08:19:17Z</time>
      </trkpt>
      <trkpt lat="40.86983" lon="-3.96879">
        <ele>1750.22</ele>
        <time>2014-12-11T08:19:33Z</time>
      </trkpt>
      <trkpt lat="40.86978" lon="-3.96875">
        <ele>1750.7</ele>
        <time>2014-12-11T08:19:49Z</time>
      </trkpt>
      <trkpt lat="40.86974" lon="-3.96869">
        <ele>1753.58</ele>
        <time>2014-12-11T08:20:04Z</time>
      </trkpt>
      <trkpt lat="40.86968" lon="-3.96863">
        <ele>1756.47</ele>
        <time>2014-12-11T08:20:17Z</time>
      </trkpt>
      <trkpt lat="40.86963" lon="-3.96862">
        <ele>1758.39</ele>
        <time>2014-12-11T08:20:27Z</time>
      </trkpt>
      <trkpt lat="40.86958" lon="-3.96857">
        <ele>1760.79</ele>
        <time>2014-12-11T08:20:39Z</time>
      </trkpt>
      <trkpt lat="40.86955" lon="-3.9685">
        <ele>1763.68</ele>
        <time>2014-12-11T08:20:54Z</time>
      </trkpt>
      <trkpt lat="40.86951" lon="-3.96842">
        <ele>1767.04</ele>
        <time>2014-12-11T08:21:09Z</time>
      </trkpt>
      <trkpt lat="40.86945" lon="-3.96831">
        <ele>1769.92</ele>
        <time>2014-12-11T08:21:25Z</time>
      </trkpt>
      <trkpt lat="40.86943" lon="-3.96828">
        <ele>1771.37</ele>
        <time>2014-12-11T08:21:39Z</time>
      </trkpt>
      <trkpt lat="40.86941" lon="-3.96827">
        <ele>1771.37</ele>
        <time>2014-12-11T08:22:04Z</time>
      </trkpt>
      <trkpt lat="40.86944" lon="-3.96825">
        <ele>1772.81</ele>
        <time>2014-12-11T08:22:22Z</time>
      </trkpt>
      <trkpt lat="40.86945" lon="-3.96819">
        <ele>1775.21</ele>
        <time>2014-12-11T08:22:35Z</time>
      </trkpt>
      <trkpt lat="40.86946" lon="-3.96812">
        <ele>1777.13</ele>
        <time>2014-12-11T08:22:46Z</time>
      </trkpt>
      <trkpt lat="40.86942" lon="-3.96801">
        <ele>1780.02</ele>
        <time>2014-12-11T08:22:59Z</time>
      </trkpt>
      <trkpt lat="40.86935" lon="-3.96793">
        <ele>1782.9</ele>
        <time>2014-12-11T08:23:13Z</time>
      </trkpt>
      <trkpt lat="40.86926" lon="-3.96785">
        <ele>1785.79</ele>
        <time>2014-12-11T08:23:27Z</time>
      </trkpt>
      <trkpt lat="40.86922" lon="-3.96775">
        <ele>1788.19</ele>
        <time>2014-12-11T08:23:46Z</time>
      </trkpt>
      <trkpt lat="40.86917" lon="-3.96768">
        <ele>1790.59</ele>
        <time>2014-12-11T08:24:00Z</time>
      </trkpt>
      <trkpt lat="40.86915" lon="-3.96762">
        <ele>1793</ele>
        <time>2014-12-11T08:24:14Z</time>
      </trkpt>
      <trkpt lat="40.86912" lon="-3.96753">
        <ele>1795.4</ele>
        <time>2014-12-11T08:24:28Z</time>
      </trkpt>
      <trkpt lat="40.86904" lon="-3.96747">
        <ele>1798.28</ele>
        <time>2014-12-11T08:24:44Z</time>
      </trkpt>
      <trkpt lat="40.86908" lon="-3.96743">
        <ele>1800.21</ele>
        <time>2014-12-11T08:24:57Z</time>
      </trkpt>
      <trkpt lat="40.86898" lon="-3.96736">
        <ele>1803.09</ele>
        <time>2014-12-11T08:25:13Z</time>
      </trkpt>
      <trkpt lat="40.86892" lon="-3.96734">
        <ele>1806.94</ele>
        <time>2014-12-11T08:25:28Z</time>
      </trkpt>
      <trkpt lat="40.86887" lon="-3.9673">
        <ele>1808.38</ele>
        <time>2014-12-11T08:25:43Z</time>
      </trkpt>
      <trkpt lat="40.86884" lon="-3.96731">
        <ele>1808.38</ele>
        <time>2014-12-11T08:26:02Z</time>
      </trkpt>
      <trkpt lat="40.86882" lon="-3.96728">
        <ele>1808.86</ele>
        <time>2014-12-11T08:26:21Z</time>
      </trkpt>
      <trkpt lat="40.86884" lon="-3.96723">
        <ele>1810.78</ele>
        <time>2014-12-11T08:26:33Z</time>
      </trkpt>
      <trkpt lat="40.86879" lon="-3.96714">
        <ele>1814.15</ele>
        <time>2014-12-11T08:26:47Z</time>
      </trkpt>
      <trkpt lat="40.86875" lon="-3.96708">
        <ele>1817.51</ele>
        <time>2014-12-11T08:26:59Z</time>
      </trkpt>
      <trkpt lat="40.86868" lon="-3.96706">
        <ele>1819.43</ele>
        <time>2014-12-11T08:27:12Z</time>
      </trkpt>
      <trkpt lat="40.86859" lon="-3.96706">
        <ele>1822.32</ele>
        <time>2014-12-11T08:27:28Z</time>
      </trkpt>
      <trkpt lat="40.86852" lon="-3.96704">
        <ele>1824.72</ele>
        <time>2014-12-11T08:27:41Z</time>
      </trkpt>
      <trkpt lat="40.86845" lon="-3.96703">
        <ele>1825.68</ele>
        <time>2014-12-11T08:27:53Z</time>
      </trkpt>
      <trkpt lat="40.86844" lon="-3.967">
        <ele>1827.6</ele>
        <time>2014-12-11T08:28:13Z</time>
      </trkpt>
      <trkpt lat="40.86835" lon="-3.96697">
        <ele>1829.05</ele>
        <time>2014-12-11T08:28:25Z</time>
      </trkpt>
      <trkpt lat="40.86829" lon="-3.96699">
        <ele>1829.53</ele>
        <time>2014-12-11T08:28:35Z</time>
      </trkpt>
      <trkpt lat="40.86815" lon="-3.96696">
        <ele>1830.01</ele>
        <time>2014-12-11T08:28:51Z</time>
      </trkpt>
      <trkpt lat="40.86806" lon="-3.96691">
        <ele>1830.01</ele>
        <time>2014-12-11T08:28:59Z</time>
      </trkpt>
      <trkpt lat="40.86802" lon="-3.96688">
        <ele>1830.49</ele>
        <time>2014-12-11T08:29:03Z</time>
      </trkpt>
      <trkpt lat="40.86792" lon="-3.9668">
        <ele>1831.93</ele>
        <time>2014-12-11T08:29:16Z</time>
      </trkpt>
      <trkpt lat="40.86783" lon="-3.96679">
        <ele>1831.93</ele>
        <time>2014-12-11T08:29:23Z</time>
      </trkpt>
      <trkpt lat="40.86775" lon="-3.96681">
        <ele>1833.37</ele>
        <time>2014-12-11T08:29:31Z</time>
      </trkpt>
      <trkpt lat="40.86763" lon="-3.96679">
        <ele>1834.33</ele>
        <time>2014-12-11T08:29:45Z</time>
      </trkpt>
      <trkpt lat="40.86757" lon="-3.96679">
        <ele>1833.85</ele>
        <time>2014-12-11T08:29:59Z</time>
      </trkpt>
      <trkpt lat="40.86753" lon="-3.96687">
        <ele>1834.33</ele>
        <time>2014-12-11T08:30:17Z</time>
      </trkpt>
      <trkpt lat="40.86748" lon="-3.96692">
        <ele>1835.77</ele>
        <time>2014-12-11T08:30:28Z</time>
      </trkpt>
      <trkpt lat="40.86743" lon="-3.96704">
        <ele>1837.7</ele>
        <time>2014-12-11T08:30:43Z</time>
      </trkpt>
      <trkpt lat="40.86741" lon="-3.96716">
        <ele>1839.62</ele>
        <time>2014-12-11T08:30:55Z</time>
      </trkpt>
      <trkpt lat="40.86739" lon="-3.96727">
        <ele>1841.06</ele>
        <time>2014-12-11T08:31:07Z</time>
      </trkpt>
      <trkpt lat="40.86733" lon="-3.96737">
        <ele>1842.5</ele>
        <time>2014-12-11T08:31:20Z</time>
      </trkpt>
      <trkpt lat="40.86728" lon="-3.96738">
        <ele>1842.98</ele>
        <time>2014-12-11T08:31:28Z</time>
      </trkpt>
      <trkpt lat="40.86724" lon="-3.96738">
        <ele>1844.43</ele>
        <time>2014-12-11T08:31:31Z</time>
      </trkpt>
      <trkpt lat="40.8672" lon="-3.9674">
        <ele>1842.98</ele>
        <time>2014-12-11T08:31:36Z</time>
      </trkpt>
      <trkpt lat="40.86714" lon="-3.96739">
        <ele>1843.47</ele>
        <time>2014-12-11T08:31:42Z</time>
      </trkpt>
      <trkpt lat="40.867" lon="-3.96745">
        <ele>1843.47</ele>
        <time>2014-12-11T08:31:56Z</time>
      </trkpt>
      <trkpt lat="40.86699" lon="-3.96748">
        <ele>1843.47</ele>
        <time>2014-12-11T08:32:07Z</time>
      </trkpt>
      <trkpt lat="40.86694" lon="-3.96751">
        <ele>1843.47</ele>
        <time>2014-12-11T08:32:23Z</time>
      </trkpt>
      <trkpt lat="40.8669" lon="-3.96751">
        <ele>1842.98</ele>
        <time>2014-12-11T08:32:29Z</time>
      </trkpt>
      <trkpt lat="40.86674" lon="-3.96748">
        <ele>1842.98</ele>
        <time>2014-12-11T08:32:44Z</time>
      </trkpt>
      <trkpt lat="40.86671" lon="-3.96746">
        <ele>1843.47</ele>
        <time>2014-12-11T08:32:48Z</time>
      </trkpt>
      <trkpt lat="40.86658" lon="-3.96743">
        <ele>1842.98</ele>
        <time>2014-12-11T08:33:01Z</time>
      </trkpt>
      <trkpt lat="40.86648" lon="-3.96742">
        <ele>1843.47</ele>
        <time>2014-12-11T08:33:12Z</time>
      </trkpt>
      <trkpt lat="40.86639" lon="-3.96734">
        <ele>1843.47</ele>
        <time>2014-12-11T08:33:28Z</time>
      </trkpt>
      <trkpt lat="40.86633" lon="-3.96733">
        <ele>1843.47</ele>
        <time>2014-12-11T08:33:58Z</time>
      </trkpt>
      <trkpt lat="40.86625" lon="-3.96731">
        <ele>1843.47</ele>
        <time>2014-12-11T08:34:12Z</time>
      </trkpt>
      <trkpt lat="40.86614" lon="-3.96724">
        <ele>1843.47</ele>
        <time>2014-12-11T08:34:29Z</time>
      </trkpt>
      <trkpt lat="40.86607" lon="-3.96723">
        <ele>1843.47</ele>
        <time>2014-12-11T08:34:54Z</time>
      </trkpt>
      <trkpt lat="40.86599" lon="-3.96721">
        <ele>1842.5</ele>
        <time>2014-12-11T08:35:00Z</time>
      </trkpt>
      <trkpt lat="40.86581" lon="-3.96723">
        <ele>1842.98</ele>
        <time>2014-12-11T08:35:17Z</time>
      </trkpt>
      <trkpt lat="40.8657" lon="-3.96726">
        <ele>1842.98</ele>
        <time>2014-12-11T08:35:30Z</time>
      </trkpt>
      <trkpt lat="40.86567" lon="-3.96717">
        <ele>1843.47</ele>
        <time>2014-12-11T08:35:43Z</time>
      </trkpt>
      <trkpt lat="40.86565" lon="-3.96717">
        <ele>1843.47</ele>
        <time>2014-12-11T08:35:45Z</time>
      </trkpt>
      <trkpt lat="40.86551" lon="-3.96714">
        <ele>1843.95</ele>
        <time>2014-12-11T08:35:58Z</time>
      </trkpt>
      <trkpt lat="40.86549" lon="-3.9671">
        <ele>1843.95</ele>
        <time>2014-12-11T08:36:02Z</time>
      </trkpt>
      <trkpt lat="40.86539" lon="-3.96708">
        <ele>1844.43</ele>
        <time>2014-12-11T08:36:14Z</time>
      </trkpt>
      <trkpt lat="40.86538" lon="-3.96708">
        <ele>1844.43</ele>
        <time>2014-12-11T08:36:16Z</time>
      </trkpt>
      <trkpt lat="40.86533" lon="-3.96709">
        <ele>1844.43</ele>
        <time>2014-12-11T08:36:22Z</time>
      </trkpt>
      <trkpt lat="40.86523" lon="-3.9671">
        <ele>1844.43</ele>
        <time>2014-12-11T08:36:36Z</time>
      </trkpt>
      <trkpt lat="40.86521" lon="-3.96708">
        <ele>1844.43</ele>
        <time>2014-12-11T08:36:40Z</time>
      </trkpt>
      <trkpt lat="40.86511" lon="-3.96701">
        <ele>1845.87</ele>
        <time>2014-12-11T08:36:55Z</time>
      </trkpt>
      <trkpt lat="40.86506" lon="-3.967">
        <ele>1845.87</ele>
        <time>2014-12-11T08:37:01Z</time>
      </trkpt>
      <trkpt lat="40.86491" lon="-3.96696">
        <ele>1846.83</ele>
        <time>2014-12-11T08:37:16Z</time>
      </trkpt>
      <trkpt lat="40.86486" lon="-3.96696">
        <ele>1846.35</ele>
        <time>2014-12-11T08:37:27Z</time>
      </trkpt>
      <trkpt lat="40.86474" lon="-3.9669">
        <ele>1848.27</ele>
        <time>2014-12-11T08:37:39Z</time>
      </trkpt>
      <trkpt lat="40.86464" lon="-3.96693">
        <ele>1848.75</ele>
        <time>2014-12-11T08:37:50Z</time>
      </trkpt>
      <trkpt lat="40.86457" lon="-3.96691">
        <ele>1849.23</ele>
        <time>2014-12-11T08:38:02Z</time>
      </trkpt>
      <trkpt lat="40.86447" lon="-3.96683">
        <ele>1850.19</ele>
        <time>2014-12-11T08:38:14Z</time>
      </trkpt>
      <trkpt lat="40.8644" lon="-3.96682">
        <ele>1851.64</ele>
        <time>2014-12-11T08:38:27Z</time>
      </trkpt>
      <trkpt lat="40.86439" lon="-3.96682">
        <ele>1851.64</ele>
        <time>2014-12-11T08:38:29Z</time>
      </trkpt>
      <trkpt lat="40.86431" lon="-3.96683">
        <ele>1852.12</ele>
        <time>2014-12-11T08:38:43Z</time>
      </trkpt>
      <trkpt lat="40.8643" lon="-3.96682">
        <ele>1852.12</ele>
        <time>2014-12-11T08:38:53Z</time>
      </trkpt>
      <trkpt lat="40.86427" lon="-3.96683">
        <ele>1852.12</ele>
        <time>2014-12-11T08:38:55Z</time>
      </trkpt>
      <trkpt lat="40.86412" lon="-3.96681">
        <ele>1852.6</ele>
        <time>2014-12-11T08:39:10Z</time>
      </trkpt>
      <trkpt lat="40.86397" lon="-3.96671">
        <ele>1852.6</ele>
        <time>2014-12-11T08:39:25Z</time>
      </trkpt>
      <trkpt lat="40.86388" lon="-3.96659">
        <ele>1853.56</ele>
        <time>2014-12-11T08:39:39Z</time>
      </trkpt>
      <trkpt lat="40.86381" lon="-3.96662">
        <ele>1853.08</ele>
        <time>2014-12-11T08:39:51Z</time>
      </trkpt>
      <trkpt lat="40.86377" lon="-3.96659">
        <ele>1853.08</ele>
        <time>2014-12-11T08:40:02Z</time>
      </trkpt>
      <trkpt lat="40.86367" lon="-3.96661">
        <ele>1853.56</ele>
        <time>2014-12-11T08:40:19Z</time>
      </trkpt>
      <trkpt lat="40.86365" lon="-3.96663">
        <ele>1853.08</ele>
        <time>2014-12-11T08:40:22Z</time>
      </trkpt>
      <trkpt lat="40.8636" lon="-3.96658">
        <ele>1853.56</ele>
        <time>2014-12-11T08:40:32Z</time>
      </trkpt>
      <trkpt lat="40.86357" lon="-3.96659">
        <ele>1853.56</ele>
        <time>2014-12-11T08:40:39Z</time>
      </trkpt>
      <trkpt lat="40.86349" lon="-3.96662">
        <ele>1853.56</ele>
        <time>2014-12-11T08:40:51Z</time>
      </trkpt>
      <trkpt lat="40.86344" lon="-3.96663">
        <ele>1853.56</ele>
        <time>2014-12-11T08:40:56Z</time>
      </trkpt>
      <trkpt lat="40.86326" lon="-3.96669">
        <ele>1854.04</ele>
        <time>2014-12-11T08:41:12Z</time>
      </trkpt>
      <trkpt lat="40.86325" lon="-3.96669">
        <ele>1854.04</ele>
        <time>2014-12-11T08:41:13Z</time>
      </trkpt>
      <trkpt lat="40.86321" lon="-3.96667">
        <ele>1854.04</ele>
        <time>2014-12-11T08:41:17Z</time>
      </trkpt>
      <trkpt lat="40.86318" lon="-3.96667">
        <ele>1854.04</ele>
        <time>2014-12-11T08:41:20Z</time>
      </trkpt>
      <trkpt lat="40.86311" lon="-3.96676">
        <ele>1854.52</ele>
        <time>2014-12-11T08:41:31Z</time>
      </trkpt>
      <trkpt lat="40.86304" lon="-3.96677">
        <ele>1855</ele>
        <time>2014-12-11T08:41:45Z</time>
      </trkpt>
      <trkpt lat="40.86304" lon="-3.96678">
        <ele>1855</ele>
        <time>2014-12-11T08:42:04Z</time>
      </trkpt>
      <trkpt lat="40.86306" lon="-3.96677">
        <ele>1855</ele>
        <time>2014-12-11T08:42:24Z</time>
      </trkpt>
      <trkpt lat="40.86303" lon="-3.96679">
        <ele>1855</ele>
        <time>2014-12-11T08:42:55Z</time>
      </trkpt>
      <trkpt lat="40.86302" lon="-3.96675">
        <ele>1855</ele>
        <time>2014-12-11T08:43:26Z</time>
      </trkpt>
      <trkpt lat="40.86302" lon="-3.96676">
        <ele>1855</ele>
        <time>2014-12-11T08:43:32Z</time>
      </trkpt>
      <trkpt lat="40.86296" lon="-3.96683">
        <ele>1855</ele>
        <time>2014-12-11T08:43:41Z</time>
      </trkpt>
      <trkpt lat="40.86285" lon="-3.96691">
        <ele>1855</ele>
        <time>2014-12-11T08:43:55Z</time>
      </trkpt>
      <trkpt lat="40.86273" lon="-3.96695">
        <ele>1855.48</ele>
        <time>2014-12-11T08:44:08Z</time>
      </trkpt>
      <trkpt lat="40.86272" lon="-3.96697">
        <ele>1855.48</ele>
        <time>2014-12-11T08:44:10Z</time>
      </trkpt>
      <trkpt lat="40.86262" lon="-3.96697">
        <ele>1856.44</ele>
        <time>2014-12-11T08:44:20Z</time>
      </trkpt>
      <trkpt lat="40.86255" lon="-3.96697">
        <ele>1856.92</ele>
        <time>2014-12-11T08:44:26Z</time>
      </trkpt>
      <trkpt lat="40.86237" lon="-3.96703">
        <ele>1858.37</ele>
        <time>2014-12-11T08:44:43Z</time>
      </trkpt>
      <trkpt lat="40.86223" lon="-3.96708">
        <ele>1859.33</ele>
        <time>2014-12-11T08:44:56Z</time>
      </trkpt>
      <trkpt lat="40.86219" lon="-3.96713">
        <ele>1858.37</ele>
        <time>2014-12-11T08:45:09Z</time>
      </trkpt>
      <trkpt lat="40.86216" lon="-3.96717">
        <ele>1859.33</ele>
        <time>2014-12-11T08:45:28Z</time>
      </trkpt>
      <trkpt lat="40.86212" lon="-3.96721">
        <ele>1859.81</ele>
        <time>2014-12-11T08:45:35Z</time>
      </trkpt>
      <trkpt lat="40.86206" lon="-3.96728">
        <ele>1859.33</ele>
        <time>2014-12-11T08:45:42Z</time>
      </trkpt>
      <trkpt lat="40.86193" lon="-3.96737">
        <ele>1859.81</ele>
        <time>2014-12-11T08:45:55Z</time>
      </trkpt>
      <trkpt lat="40.8618" lon="-3.96742">
        <ele>1860.77</ele>
        <time>2014-12-11T08:46:08Z</time>
      </trkpt>
      <trkpt lat="40.86173" lon="-3.96749">
        <ele>1861.25</ele>
        <time>2014-12-11T08:46:16Z</time>
      </trkpt>
      <trkpt lat="40.8617" lon="-3.96747">
        <ele>1861.73</ele>
        <time>2014-12-11T08:46:19Z</time>
      </trkpt>
      <trkpt lat="40.86164" lon="-3.96743">
        <ele>1862.21</ele>
        <time>2014-12-11T08:46:26Z</time>
      </trkpt>
      <trkpt lat="40.86161" lon="-3.96734">
        <ele>1863.65</ele>
        <time>2014-12-11T08:46:34Z</time>
      </trkpt>
      <trkpt lat="40.86155" lon="-3.96729">
        <ele>1864.61</ele>
        <time>2014-12-11T08:46:41Z</time>
      </trkpt>
      <trkpt lat="40.86155" lon="-3.96712">
        <ele>1866.06</ele>
        <time>2014-12-11T08:46:54Z</time>
      </trkpt>
      <trkpt lat="40.86154" lon="-3.96707">
        <ele>1866.54</ele>
        <time>2014-12-11T08:46:57Z</time>
      </trkpt>
      <trkpt lat="40.86154" lon="-3.96699">
        <ele>1866.54</ele>
        <time>2014-12-11T08:47:02Z</time>
      </trkpt>
      <trkpt lat="40.86154" lon="-3.96693">
        <ele>1867.5</ele>
        <time>2014-12-11T08:47:07Z</time>
      </trkpt>
      <trkpt lat="40.86153" lon="-3.96681">
        <ele>1868.46</ele>
        <time>2014-12-11T08:47:16Z</time>
      </trkpt>
      <trkpt lat="40.86149" lon="-3.96674">
        <ele>1868.94</ele>
        <time>2014-12-11T08:47:21Z</time>
      </trkpt>
      <trkpt lat="40.86147" lon="-3.96671">
        <ele>1868.94</ele>
        <time>2014-12-11T08:47:24Z</time>
      </trkpt>
      <trkpt lat="40.86142" lon="-3.96658">
        <ele>1869.42</ele>
        <time>2014-12-11T08:47:37Z</time>
      </trkpt>
      <trkpt lat="40.86141" lon="-3.96654">
        <ele>1870.38</ele>
        <time>2014-12-11T08:47:55Z</time>
      </trkpt>
      <trkpt lat="40.8614" lon="-3.96656">
        <ele>1869.9</ele>
        <time>2014-12-11T08:48:12Z</time>
      </trkpt>
      <trkpt lat="40.8614" lon="-3.96655">
        <ele>1869.9</ele>
        <time>2014-12-11T08:48:15Z</time>
      </trkpt>
      <trkpt lat="40.8614" lon="-3.96651">
        <ele>1869.9</ele>
        <time>2014-12-11T08:48:18Z</time>
      </trkpt>
      <trkpt lat="40.86138" lon="-3.96643">
        <ele>1870.86</ele>
        <time>2014-12-11T08:48:24Z</time>
      </trkpt>
      <trkpt lat="40.86137" lon="-3.96636">
        <ele>1871.34</ele>
        <time>2014-12-11T08:48:29Z</time>
      </trkpt>
      <trkpt lat="40.86134" lon="-3.9663">
        <ele>1871.82</ele>
        <time>2014-12-11T08:48:35Z</time>
      </trkpt>
      <trkpt lat="40.86124" lon="-3.96624">
        <ele>1871.34</ele>
        <time>2014-12-11T08:48:50Z</time>
      </trkpt>
      <trkpt lat="40.86115" lon="-3.9662">
        <ele>1871.82</ele>
        <time>2014-12-11T08:49:01Z</time>
      </trkpt>
      <trkpt lat="40.861" lon="-3.96616">
        <ele>1873.27</ele>
        <time>2014-12-11T08:49:17Z</time>
      </trkpt>
      <trkpt lat="40.86097" lon="-3.96613">
        <ele>1873.75</ele>
        <time>2014-12-11T08:49:26Z</time>
      </trkpt>
      <trkpt lat="40.86095" lon="-3.96612">
        <ele>1874.23</ele>
        <time>2014-12-11T08:49:28Z</time>
      </trkpt>
      <trkpt lat="40.8609" lon="-3.9661">
        <ele>1874.71</ele>
        <time>2014-12-11T08:49:34Z</time>
      </trkpt>
      <trkpt lat="40.86086" lon="-3.96606">
        <ele>1875.67</ele>
        <time>2014-12-11T08:49:39Z</time>
      </trkpt>
      <trkpt lat="40.86083" lon="-3.96605">
        <ele>1876.15</ele>
        <time>2014-12-11T08:49:42Z</time>
      </trkpt>
      <trkpt lat="40.86071" lon="-3.96606">
        <ele>1877.11</ele>
        <time>2014-12-11T08:49:56Z</time>
      </trkpt>
      <trkpt lat="40.86062" lon="-3.96609">
        <ele>1877.11</ele>
        <time>2014-12-11T08:50:05Z</time>
      </trkpt>
      <trkpt lat="40.86052" lon="-3.96605">
        <ele>1877.59</ele>
        <time>2014-12-11T08:50:17Z</time>
      </trkpt>
      <trkpt lat="40.8605" lon="-3.96606">
        <ele>1878.07</ele>
        <time>2014-12-11T08:50:19Z</time>
      </trkpt>
      <trkpt lat="40.86047" lon="-3.96605">
        <ele>1878.07</ele>
        <time>2014-12-11T08:50:22Z</time>
      </trkpt>
      <trkpt lat="40.86044" lon="-3.96605">
        <ele>1878.07</ele>
        <time>2014-12-11T08:50:24Z</time>
      </trkpt>
      <trkpt lat="40.86039" lon="-3.96603">
        <ele>1878.07</ele>
        <time>2014-12-11T08:50:29Z</time>
      </trkpt>
      <trkpt lat="40.86036" lon="-3.96604">
        <ele>1878.55</ele>
        <time>2014-12-11T08:50:32Z</time>
      </trkpt>
      <trkpt lat="40.86031" lon="-3.9661">
        <ele>1878.55</ele>
        <time>2014-12-11T08:50:38Z</time>
      </trkpt>
      <trkpt lat="40.86022" lon="-3.96609">
        <ele>1879.03</ele>
        <time>2014-12-11T08:50:46Z</time>
      </trkpt>
      <trkpt lat="40.86011" lon="-3.96613">
        <ele>1879.03</ele>
        <time>2014-12-11T08:50:56Z</time>
      </trkpt>
      <trkpt lat="40.86005" lon="-3.96613">
        <ele>1879.03</ele>
        <time>2014-12-11T08:51:01Z</time>
      </trkpt>
      <trkpt lat="40.86003" lon="-3.96614">
        <ele>1878.55</ele>
        <time>2014-12-11T08:51:03Z</time>
      </trkpt>
      <trkpt lat="40.86002" lon="-3.96615">
        <ele>1879.03</ele>
        <time>2014-12-11T08:51:05Z</time>
      </trkpt>
      <trkpt lat="40.85996" lon="-3.96618">
        <ele>1878.55</ele>
        <time>2014-12-11T08:51:12Z</time>
      </trkpt>
      <trkpt lat="40.85994" lon="-3.96618">
        <ele>1878.55</ele>
        <time>2014-12-11T08:51:15Z</time>
      </trkpt>
      <trkpt lat="40.85991" lon="-3.96619">
        <ele>1878.55</ele>
        <time>2014-12-11T08:51:28Z</time>
      </trkpt>
      <trkpt lat="40.85992" lon="-3.96622">
        <ele>1878.55</ele>
        <time>2014-12-11T08:51:56Z</time>
      </trkpt>
      <trkpt lat="40.85992" lon="-3.96621">
        <ele>1878.55</ele>
        <time>2014-12-11T08:52:19Z</time>
      </trkpt>
      <trkpt lat="40.85991" lon="-3.9662">
        <ele>1878.55</ele>
        <time>2014-12-11T08:52:31Z</time>
      </trkpt>
      <trkpt lat="40.85977" lon="-3.96622">
        <ele>1878.55</ele>
        <time>2014-12-11T08:52:45Z</time>
      </trkpt>
      <trkpt lat="40.85972" lon="-3.9662">
        <ele>1878.55</ele>
        <time>2014-12-11T08:52:52Z</time>
      </trkpt>
      <trkpt lat="40.85973" lon="-3.96616">
        <ele>1878.07</ele>
        <time>2014-12-11T08:53:03Z</time>
      </trkpt>
      <trkpt lat="40.85972" lon="-3.96614">
        <ele>1878.55</ele>
        <time>2014-12-11T08:53:05Z</time>
      </trkpt>
      <trkpt lat="40.85968" lon="-3.96613">
        <ele>1878.55</ele>
        <time>2014-12-11T08:53:09Z</time>
      </trkpt>
      <trkpt lat="40.85965" lon="-3.96618">
        <ele>1878.55</ele>
        <time>2014-12-11T08:53:13Z</time>
      </trkpt>
      <trkpt lat="40.85966" lon="-3.96623">
        <ele>1878.55</ele>
        <time>2014-12-11T08:53:16Z</time>
      </trkpt>
      <trkpt lat="40.85966" lon="-3.96633">
        <ele>1878.07</ele>
        <time>2014-12-11T08:53:23Z</time>
      </trkpt>
      <trkpt lat="40.85957" lon="-3.96637">
        <ele>1878.55</ele>
        <time>2014-12-11T08:53:31Z</time>
      </trkpt>
      <trkpt lat="40.85956" lon="-3.96636">
        <ele>1878.55</ele>
        <time>2014-12-11T08:53:33Z</time>
      </trkpt>
      <trkpt lat="40.85951" lon="-3.96636">
        <ele>1879.51</ele>
        <time>2014-12-11T08:53:39Z</time>
      </trkpt>
      <trkpt lat="40.85948" lon="-3.96636">
        <ele>1879.03</ele>
        <time>2014-12-11T08:53:41Z</time>
      </trkpt>
      <trkpt lat="40.85947" lon="-3.96637">
        <ele>1879.03</ele>
        <time>2014-12-11T08:53:43Z</time>
      </trkpt>
      <trkpt lat="40.85936" lon="-3.96639">
        <ele>1880</ele>
        <time>2014-12-11T08:53:53Z</time>
      </trkpt>
      <trkpt lat="40.85931" lon="-3.96641">
        <ele>1880</ele>
        <time>2014-12-11T08:53:58Z</time>
      </trkpt>
      <trkpt lat="40.85917" lon="-3.96647">
        <ele>1881.44</ele>
        <time>2014-12-11T08:54:12Z</time>
      </trkpt>
      <trkpt lat="40.85913" lon="-3.96648">
        <ele>1881.92</ele>
        <time>2014-12-11T08:54:16Z</time>
      </trkpt>
      <trkpt lat="40.85907" lon="-3.96648">
        <ele>1882.4</ele>
        <time>2014-12-11T08:54:27Z</time>
      </trkpt>
      <trkpt lat="40.85902" lon="-3.96649">
        <ele>1882.88</ele>
        <time>2014-12-11T08:54:32Z</time>
      </trkpt>
      <trkpt lat="40.85898" lon="-3.96658">
        <ele>1883.84</ele>
        <time>2014-12-11T08:54:40Z</time>
      </trkpt>
      <trkpt lat="40.85881" lon="-3.96662">
        <ele>1885.76</ele>
        <time>2014-12-11T08:54:57Z</time>
      </trkpt>
      <trkpt lat="40.85875" lon="-3.96662">
        <ele>1886.24</ele>
        <time>2014-12-11T08:55:03Z</time>
      </trkpt>
      <trkpt lat="40.85867" lon="-3.96667">
        <ele>1886.72</ele>
        <time>2014-12-11T08:55:13Z</time>
      </trkpt>
      <trkpt lat="40.8586" lon="-3.96669">
        <ele>1887.21</ele>
        <time>2014-12-11T08:55:24Z</time>
      </trkpt>
      <trkpt lat="40.85861" lon="-3.9667">
        <ele>1887.69</ele>
        <time>2014-12-11T08:55:43Z</time>
      </trkpt>
      <trkpt lat="40.85865" lon="-3.9667">
        <ele>1887.69</ele>
        <time>2014-12-11T08:56:13Z</time>
      </trkpt>
      <trkpt lat="40.85863" lon="-3.96671">
        <ele>1887.69</ele>
        <time>2014-12-11T08:56:39Z</time>
      </trkpt>
      <trkpt lat="40.8586" lon="-3.96672">
        <ele>1887.69</ele>
        <time>2014-12-11T08:57:03Z</time>
      </trkpt>
      <trkpt lat="40.85851" lon="-3.9667">
        <ele>1887.69</ele>
        <time>2014-12-11T08:57:13Z</time>
      </trkpt>
      <trkpt lat="40.85847" lon="-3.96669">
        <ele>1887.69</ele>
        <time>2014-12-11T08:57:22Z</time>
      </trkpt>
      <trkpt lat="40.85846" lon="-3.96671">
        <ele>1887.69</ele>
        <time>2014-12-11T08:57:24Z</time>
      </trkpt>
      <trkpt lat="40.85842" lon="-3.96674">
        <ele>1887.69</ele>
        <time>2014-12-11T08:57:29Z</time>
      </trkpt>
      <trkpt lat="40.85837" lon="-3.96678">
        <ele>1887.69</ele>
        <time>2014-12-11T08:57:35Z</time>
      </trkpt>
      <trkpt lat="40.85834" lon="-3.9668">
        <ele>1888.17</ele>
        <time>2014-12-11T08:57:38Z</time>
      </trkpt>
      <trkpt lat="40.85822" lon="-3.96685">
        <ele>1888.65</ele>
        <time>2014-12-11T08:57:51Z</time>
      </trkpt>
      <trkpt lat="40.85808" lon="-3.9669">
        <ele>1890.09</ele>
        <time>2014-12-11T08:58:06Z</time>
      </trkpt>
      <trkpt lat="40.85799" lon="-3.9669">
        <ele>1891.05</ele>
        <time>2014-12-11T08:58:16Z</time>
      </trkpt>
      <trkpt lat="40.85786" lon="-3.96689">
        <ele>1892.01</ele>
        <time>2014-12-11T08:58:31Z</time>
      </trkpt>
      <trkpt lat="40.85784" lon="-3.9669">
        <ele>1892.01</ele>
        <time>2014-12-11T08:58:45Z</time>
      </trkpt>
      <trkpt lat="40.85783" lon="-3.9669">
        <ele>1892.49</ele>
        <time>2014-12-11T08:58:59Z</time>
      </trkpt>
      <trkpt lat="40.85781" lon="-3.96689">
        <ele>1892.49</ele>
        <time>2014-12-11T08:59:01Z</time>
      </trkpt>
      <trkpt lat="40.85769" lon="-3.96687">
        <ele>1893.93</ele>
        <time>2014-12-11T08:59:17Z</time>
      </trkpt>
      <trkpt lat="40.85769" lon="-3.96686">
        <ele>1892.01</ele>
        <time>2014-12-11T08:59:19Z</time>
      </trkpt>
      <trkpt lat="40.85764" lon="-3.96686">
        <ele>1893.45</ele>
        <time>2014-12-11T08:59:30Z</time>
      </trkpt>
      <trkpt lat="40.85767" lon="-3.96691">
        <ele>1893.45</ele>
        <time>2014-12-11T08:59:37Z</time>
      </trkpt>
      <trkpt lat="40.8577" lon="-3.96693">
        <ele>1892.97</ele>
        <time>2014-12-11T08:59:52Z</time>
      </trkpt>
      <trkpt lat="40.85766" lon="-3.96689">
        <ele>1892.97</ele>
        <time>2014-12-11T09:00:04Z</time>
      </trkpt>
      <trkpt lat="40.85764" lon="-3.96692">
        <ele>1893.93</ele>
        <time>2014-12-11T09:00:14Z</time>
      </trkpt>
      <trkpt lat="40.85759" lon="-3.96693">
        <ele>1893.93</ele>
        <time>2014-12-11T09:00:29Z</time>
      </trkpt>
      <trkpt lat="40.85761" lon="-3.96693">
        <ele>1893.93</ele>
        <time>2014-12-11T09:00:51Z</time>
      </trkpt>
      <trkpt lat="40.85766" lon="-3.96693">
        <ele>1893.93</ele>
        <time>2014-12-11T09:01:09Z</time>
      </trkpt>
      <trkpt lat="40.85766" lon="-3.96694">
        <ele>1893.93</ele>
        <time>2014-12-11T09:01:13Z</time>
      </trkpt>
      <trkpt lat="40.85768" lon="-3.96702">
        <ele>1892.97</ele>
        <time>2014-12-11T09:01:27Z</time>
      </trkpt>
      <trkpt lat="40.85767" lon="-3.96703">
        <ele>1892.01</ele>
        <time>2014-12-11T09:01:40Z</time>
      </trkpt>
      <trkpt lat="40.85769" lon="-3.96702">
        <ele>1892.01</ele>
        <time>2014-12-11T09:02:06Z</time>
      </trkpt>
      <trkpt lat="40.85767" lon="-3.96703">
        <ele>1892.01</ele>
        <time>2014-12-11T09:02:30Z</time>
      </trkpt>
      <trkpt lat="40.85769" lon="-3.96699">
        <ele>1892.01</ele>
        <time>2014-12-11T09:03:08Z</time>
      </trkpt>
      <trkpt lat="40.85769" lon="-3.96703">
        <ele>1891.53</ele>
        <time>2014-12-11T09:03:40Z</time>
      </trkpt>
      <trkpt lat="40.85768" lon="-3.96704">
        <ele>1891.53</ele>
        <time>2014-12-11T09:04:19Z</time>
      </trkpt>
      <trkpt lat="40.85768" lon="-3.96705">
        <ele>1891.53</ele>
        <time>2014-12-11T09:04:49Z</time>
      </trkpt>
      <trkpt lat="40.85768" lon="-3.96702">
        <ele>1891.53</ele>
        <time>2014-12-11T09:05:14Z</time>
      </trkpt>
      <trkpt lat="40.85769" lon="-3.96704">
        <ele>1891.53</ele>
        <time>2014-12-11T09:05:45Z</time>
      </trkpt>
      <trkpt lat="40.85768" lon="-3.96704">
        <ele>1892.01</ele>
        <time>2014-12-11T09:06:11Z</time>
      </trkpt>
      <trkpt lat="40.85768" lon="-3.96705">
        <ele>1892.01</ele>
        <time>2014-12-11T09:06:46Z</time>
      </trkpt>
      <trkpt lat="40.85767" lon="-3.96705">
        <ele>1892.01</ele>
        <time>2014-12-11T09:07:17Z</time>
      </trkpt>
      <trkpt lat="40.85768" lon="-3.96703">
        <ele>1892.01</ele>
        <time>2014-12-11T09:07:52Z</time>
      </trkpt>
      <trkpt lat="40.8577" lon="-3.96703">
        <ele>1892.49</ele>
        <time>2014-12-11T09:08:27Z</time>
      </trkpt>
      <trkpt lat="40.85769" lon="-3.96702">
        <ele>1892.49</ele>
        <time>2014-12-11T09:08:55Z</time>
      </trkpt>
      <trkpt lat="40.8577" lon="-3.96702">
        <ele>1892.49</ele>
        <time>2014-12-11T09:09:25Z</time>
      </trkpt>
      <trkpt lat="40.8577" lon="-3.96701">
        <ele>1892.49</ele>
        <time>2014-12-11T09:09:52Z</time>
      </trkpt>
      <trkpt lat="40.85768" lon="-3.967">
        <ele>1893.93</ele>
        <time>2014-12-11T09:10:11Z</time>
      </trkpt>
      <trkpt lat="40.85768" lon="-3.96702">
        <ele>1893.93</ele>
        <time>2014-12-11T09:10:23Z</time>
      </trkpt>
      <trkpt lat="40.85768" lon="-3.96701">
        <ele>1893.45</ele>
        <time>2014-12-11T09:10:44Z</time>
      </trkpt>
      <trkpt lat="40.85769" lon="-3.96701">
        <ele>1892.97</ele>
        <time>2014-12-11T09:11:01Z</time>
      </trkpt>
      <trkpt lat="40.85768" lon="-3.96702">
        <ele>1893.93</ele>
        <time>2014-12-11T09:11:19Z</time>
      </trkpt>
      <trkpt lat="40.85766" lon="-3.96702">
        <ele>1893.45</ele>
        <time>2014-12-11T09:11:35Z</time>
      </trkpt>
      <trkpt lat="40.85758" lon="-3.96697">
        <ele>1893.93</ele>
        <time>2014-12-11T09:11:48Z</time>
      </trkpt>
      <trkpt lat="40.85756" lon="-3.96698">
        <ele>1893.45</ele>
        <time>2014-12-11T09:12:03Z</time>
      </trkpt>
      <trkpt lat="40.85749" lon="-3.96698">
        <ele>1894.42</ele>
        <time>2014-12-11T09:12:10Z</time>
      </trkpt>
      <trkpt lat="40.85747" lon="-3.96702">
        <ele>1894.42</ele>
        <time>2014-12-11T09:12:13Z</time>
      </trkpt>
      <trkpt lat="40.85743" lon="-3.96709">
        <ele>1893.93</ele>
        <time>2014-12-11T09:12:19Z</time>
      </trkpt>
      <trkpt lat="40.85736" lon="-3.96718">
        <ele>1893.45</ele>
        <time>2014-12-11T09:12:30Z</time>
      </trkpt>
      <trkpt lat="40.85734" lon="-3.96719">
        <ele>1893.45</ele>
        <time>2014-12-11T09:12:32Z</time>
      </trkpt>
      <trkpt lat="40.85733" lon="-3.96731">
        <ele>1892.01</ele>
        <time>2014-12-11T09:12:43Z</time>
      </trkpt>
      <trkpt lat="40.8573" lon="-3.96737">
        <ele>1891.05</ele>
        <time>2014-12-11T09:12:54Z</time>
      </trkpt>
      <trkpt lat="40.85729" lon="-3.96743">
        <ele>1890.09</ele>
        <time>2014-12-11T09:13:00Z</time>
      </trkpt>
      <trkpt lat="40.85729" lon="-3.96747">
        <ele>1889.61</ele>
        <time>2014-12-11T09:13:03Z</time>
      </trkpt>
      <trkpt lat="40.8572" lon="-3.96752">
        <ele>1891.05</ele>
        <time>2014-12-11T09:13:16Z</time>
      </trkpt>
      <trkpt lat="40.85714" lon="-3.96767">
        <ele>1891.05</ele>
        <time>2014-12-11T09:13:29Z</time>
      </trkpt>
      <trkpt lat="40.85713" lon="-3.96768">
        <ele>1891.05</ele>
        <time>2014-12-11T09:13:30Z</time>
      </trkpt>
      <trkpt lat="40.85709" lon="-3.96774">
        <ele>1891.05</ele>
        <time>2014-12-11T09:13:36Z</time>
      </trkpt>
      <trkpt lat="40.85703" lon="-3.96787">
        <ele>1890.09</ele>
        <time>2014-12-11T09:13:48Z</time>
      </trkpt>
      <trkpt lat="40.85692" lon="-3.96798">
        <ele>1889.61</ele>
        <time>2014-12-11T09:14:00Z</time>
      </trkpt>
      <trkpt lat="40.85688" lon="-3.96803">
        <ele>1889.61</ele>
        <time>2014-12-11T09:14:05Z</time>
      </trkpt>
      <trkpt lat="40.85685" lon="-3.96808">
        <ele>1889.61</ele>
        <time>2014-12-11T09:14:09Z</time>
      </trkpt>
      <trkpt lat="40.85682" lon="-3.96811">
        <ele>1890.09</ele>
        <time>2014-12-11T09:14:13Z</time>
      </trkpt>
      <trkpt lat="40.85679" lon="-3.96812">
        <ele>1890.09</ele>
        <time>2014-12-11T09:14:16Z</time>
      </trkpt>
      <trkpt lat="40.8567" lon="-3.9681">
        <ele>1891.53</ele>
        <time>2014-12-11T09:14:28Z</time>
      </trkpt>
      <trkpt lat="40.8566" lon="-3.96814">
        <ele>1893.45</ele>
        <time>2014-12-11T09:14:40Z</time>
      </trkpt>
      <trkpt lat="40.85658" lon="-3.96814">
        <ele>1893.93</ele>
        <time>2014-12-11T09:14:43Z</time>
      </trkpt>
      <trkpt lat="40.85654" lon="-3.96816">
        <ele>1894.42</ele>
        <time>2014-12-11T09:14:48Z</time>
      </trkpt>
      <trkpt lat="40.85646" lon="-3.96819">
        <ele>1895.38</ele>
        <time>2014-12-11T09:14:57Z</time>
      </trkpt>
      <trkpt lat="40.85643" lon="-3.9682">
        <ele>1895.38</ele>
        <time>2014-12-11T09:15:00Z</time>
      </trkpt>
      <trkpt lat="40.85637" lon="-3.96821">
        <ele>1895.86</ele>
        <time>2014-12-11T09:15:07Z</time>
      </trkpt>
      <trkpt lat="40.85635" lon="-3.96823">
        <ele>1896.34</ele>
        <time>2014-12-11T09:15:09Z</time>
      </trkpt>
      <trkpt lat="40.85631" lon="-3.96834">
        <ele>1897.78</ele>
        <time>2014-12-11T09:15:21Z</time>
      </trkpt>
      <trkpt lat="40.8563" lon="-3.96835">
        <ele>1898.26</ele>
        <time>2014-12-11T09:15:23Z</time>
      </trkpt>
      <trkpt lat="40.85629" lon="-3.96837">
        <ele>1898.74</ele>
        <time>2014-12-11T09:15:25Z</time>
      </trkpt>
      <trkpt lat="40.85627" lon="-3.96841">
        <ele>1899.7</ele>
        <time>2014-12-11T09:15:32Z</time>
      </trkpt>
      <trkpt lat="40.85625" lon="-3.96842">
        <ele>1899.7</ele>
        <time>2014-12-11T09:15:34Z</time>
      </trkpt>
      <trkpt lat="40.85621" lon="-3.96841">
        <ele>1900.18</ele>
        <time>2014-12-11T09:15:39Z</time>
      </trkpt>
      <trkpt lat="40.85611" lon="-3.96845">
        <ele>1900.66</ele>
        <time>2014-12-11T09:15:51Z</time>
      </trkpt>
      <trkpt lat="40.85607" lon="-3.96847">
        <ele>1900.66</ele>
        <time>2014-12-11T09:15:55Z</time>
      </trkpt>
      <trkpt lat="40.85601" lon="-3.96853">
        <ele>1901.63</ele>
        <time>2014-12-11T09:16:08Z</time>
      </trkpt>
      <trkpt lat="40.856" lon="-3.96853">
        <ele>1901.14</ele>
        <time>2014-12-11T09:16:09Z</time>
      </trkpt>
      <trkpt lat="40.85598" lon="-3.96852">
        <ele>1901.63</ele>
        <time>2014-12-11T09:16:11Z</time>
      </trkpt>
      <trkpt lat="40.85596" lon="-3.96851">
        <ele>1901.63</ele>
        <time>2014-12-11T09:16:14Z</time>
      </trkpt>
      <trkpt lat="40.85589" lon="-3.96852">
        <ele>1902.59</ele>
        <time>2014-12-11T09:16:22Z</time>
      </trkpt>
      <trkpt lat="40.85584" lon="-3.96854">
        <ele>1903.07</ele>
        <time>2014-12-11T09:16:28Z</time>
      </trkpt>
      <trkpt lat="40.85581" lon="-3.96855">
        <ele>1903.55</ele>
        <time>2014-12-11T09:16:31Z</time>
      </trkpt>
      <trkpt lat="40.85572" lon="-3.96861">
        <ele>1904.51</ele>
        <time>2014-12-11T09:16:43Z</time>
      </trkpt>
      <trkpt lat="40.85568" lon="-3.96863">
        <ele>1904.99</ele>
        <time>2014-12-11T09:16:48Z</time>
      </trkpt>
      <trkpt lat="40.85565" lon="-3.96868">
        <ele>1905.47</ele>
        <time>2014-12-11T09:16:53Z</time>
      </trkpt>
      <trkpt lat="40.85559" lon="-3.96874">
        <ele>1906.43</ele>
        <time>2014-12-11T09:17:02Z</time>
      </trkpt>
      <trkpt lat="40.85559" lon="-3.96876">
        <ele>1906.43</ele>
        <time>2014-12-11T09:17:04Z</time>
      </trkpt>
      <trkpt lat="40.85554" lon="-3.96886">
        <ele>1907.87</ele>
        <time>2014-12-11T09:17:16Z</time>
      </trkpt>
      <trkpt lat="40.8555" lon="-3.96894">
        <ele>1908.35</ele>
        <time>2014-12-11T09:17:27Z</time>
      </trkpt>
      <trkpt lat="40.85547" lon="-3.96895">
        <ele>1909.32</ele>
        <time>2014-12-11T09:17:38Z</time>
      </trkpt>
      <trkpt lat="40.8554" lon="-3.96894">
        <ele>1910.76</ele>
        <time>2014-12-11T09:17:47Z</time>
      </trkpt>
      <trkpt lat="40.85537" lon="-3.96898">
        <ele>1911.24</ele>
        <time>2014-12-11T09:17:54Z</time>
      </trkpt>
      <trkpt lat="40.85529" lon="-3.96905">
        <ele>1912.68</ele>
        <time>2014-12-11T09:18:06Z</time>
      </trkpt>
      <trkpt lat="40.85526" lon="-3.96905">
        <ele>1913.16</ele>
        <time>2014-12-11T09:18:12Z</time>
      </trkpt>
      <trkpt lat="40.85521" lon="-3.9691">
        <ele>1913.16</ele>
        <time>2014-12-11T09:18:20Z</time>
      </trkpt>
      <trkpt lat="40.85519" lon="-3.9691">
        <ele>1913.64</ele>
        <time>2014-12-11T09:18:22Z</time>
      </trkpt>
      <trkpt lat="40.85516" lon="-3.96913">
        <ele>1914.12</ele>
        <time>2014-12-11T09:18:26Z</time>
      </trkpt>
      <trkpt lat="40.85507" lon="-3.96916">
        <ele>1915.56</ele>
        <time>2014-12-11T09:18:38Z</time>
      </trkpt>
      <trkpt lat="40.85498" lon="-3.96918">
        <ele>1916.53</ele>
        <time>2014-12-11T09:18:50Z</time>
      </trkpt>
      <trkpt lat="40.85492" lon="-3.96914">
        <ele>1917.97</ele>
        <time>2014-12-11T09:19:01Z</time>
      </trkpt>
      <trkpt lat="40.85485" lon="-3.9691">
        <ele>1919.89</ele>
        <time>2014-12-11T09:19:14Z</time>
      </trkpt>
      <trkpt lat="40.85479" lon="-3.9691">
        <ele>1921.81</ele>
        <time>2014-12-11T09:19:25Z</time>
      </trkpt>
      <trkpt lat="40.85473" lon="-3.96909">
        <ele>1924.22</ele>
        <time>2014-12-11T09:19:36Z</time>
      </trkpt>
      <trkpt lat="40.85472" lon="-3.96902">
        <ele>1926.14</ele>
        <time>2014-12-11T09:19:48Z</time>
      </trkpt>
      <trkpt lat="40.85471" lon="-3.96902">
        <ele>1926.62</ele>
        <time>2014-12-11T09:19:50Z</time>
      </trkpt>
      <trkpt lat="40.85466" lon="-3.96901">
        <ele>1928.54</ele>
        <time>2014-12-11T09:20:03Z</time>
      </trkpt>
      <trkpt lat="40.85463" lon="-3.96895">
        <ele>1930.46</ele>
        <time>2014-12-11T09:20:14Z</time>
      </trkpt>
      <trkpt lat="40.85463" lon="-3.96894">
        <ele>1930.95</ele>
        <time>2014-12-11T09:20:17Z</time>
      </trkpt>
      <trkpt lat="40.85457" lon="-3.96887">
        <ele>1932.39</ele>
        <time>2014-12-11T09:20:30Z</time>
      </trkpt>
      <trkpt lat="40.85456" lon="-3.96888">
        <ele>1932.87</ele>
        <time>2014-12-11T09:20:48Z</time>
      </trkpt>
      <trkpt lat="40.85454" lon="-3.96888">
        <ele>1932.39</ele>
        <time>2014-12-11T09:21:21Z</time>
      </trkpt>
      <trkpt lat="40.85452" lon="-3.96886">
        <ele>1932.87</ele>
        <time>2014-12-11T09:21:38Z</time>
      </trkpt>
      <trkpt lat="40.8545" lon="-3.96883">
        <ele>1933.35</ele>
        <time>2014-12-11T09:21:42Z</time>
      </trkpt>
      <trkpt lat="40.85446" lon="-3.96876">
        <ele>1934.31</ele>
        <time>2014-12-11T09:21:50Z</time>
      </trkpt>
      <trkpt lat="40.85442" lon="-3.96872">
        <ele>1935.75</ele>
        <time>2014-12-11T09:21:56Z</time>
      </trkpt>
      <trkpt lat="40.85438" lon="-3.96869">
        <ele>1936.23</ele>
        <time>2014-12-11T09:22:02Z</time>
      </trkpt>
      <trkpt lat="40.85433" lon="-3.9687">
        <ele>1938.64</ele>
        <time>2014-12-11T09:22:13Z</time>
      </trkpt>
      <trkpt lat="40.85429" lon="-3.96872">
        <ele>1940.08</ele>
        <time>2014-12-11T09:22:22Z</time>
      </trkpt>
      <trkpt lat="40.85424" lon="-3.96868">
        <ele>1941.04</ele>
        <time>2014-12-11T09:22:32Z</time>
      </trkpt>
      <trkpt lat="40.8542" lon="-3.96864">
        <ele>1942.96</ele>
        <time>2014-12-11T09:22:43Z</time>
      </trkpt>
      <trkpt lat="40.85415" lon="-3.96861">
        <ele>1945.36</ele>
        <time>2014-12-11T09:22:54Z</time>
      </trkpt>
      <trkpt lat="40.85413" lon="-3.96859">
        <ele>1946.33</ele>
        <time>2014-12-11T09:23:00Z</time>
      </trkpt>
      <trkpt lat="40.85408" lon="-3.96862">
        <ele>1947.29</ele>
        <time>2014-12-11T09:23:13Z</time>
      </trkpt>
      <trkpt lat="40.85405" lon="-3.9686">
        <ele>1948.73</ele>
        <time>2014-12-11T09:23:36Z</time>
      </trkpt>
      <trkpt lat="40.854" lon="-3.96855">
        <ele>1950.17</ele>
        <time>2014-12-11T09:23:47Z</time>
      </trkpt>
      <trkpt lat="40.85394" lon="-3.96857">
        <ele>1953.06</ele>
        <time>2014-12-11T09:23:59Z</time>
      </trkpt>
      <trkpt lat="40.85388" lon="-3.96856">
        <ele>1954.98</ele>
        <time>2014-12-11T09:24:11Z</time>
      </trkpt>
      <trkpt lat="40.85386" lon="-3.96855">
        <ele>1957.38</ele>
        <time>2014-12-11T09:24:23Z</time>
      </trkpt>
      <trkpt lat="40.85383" lon="-3.96849">
        <ele>1958.34</ele>
        <time>2014-12-11T09:24:36Z</time>
      </trkpt>
      <trkpt lat="40.8538" lon="-3.96845">
        <ele>1960.27</ele>
        <time>2014-12-11T09:24:46Z</time>
      </trkpt>
      <trkpt lat="40.85377" lon="-3.96847">
        <ele>1961.23</ele>
        <time>2014-12-11T09:24:58Z</time>
      </trkpt>
      <trkpt lat="40.85373" lon="-3.96848">
        <ele>1963.15</ele>
        <time>2014-12-11T09:25:09Z</time>
      </trkpt>
      <trkpt lat="40.85369" lon="-3.96852">
        <ele>1965.07</ele>
        <time>2014-12-11T09:25:20Z</time>
      </trkpt>
      <trkpt lat="40.85365" lon="-3.96852">
        <ele>1966.99</ele>
        <time>2014-12-11T09:25:30Z</time>
      </trkpt>
      <trkpt lat="40.85361" lon="-3.96848">
        <ele>1969.4</ele>
        <time>2014-12-11T09:25:42Z</time>
      </trkpt>
      <trkpt lat="40.85359" lon="-3.9685">
        <ele>1970.84</ele>
        <time>2014-12-11T09:25:52Z</time>
      </trkpt>
      <trkpt lat="40.85355" lon="-3.96849">
        <ele>1973.24</ele>
        <time>2014-12-11T09:26:04Z</time>
      </trkpt>
      <trkpt lat="40.8535" lon="-3.96852">
        <ele>1975.17</ele>
        <time>2014-12-11T09:26:16Z</time>
      </trkpt>
      <trkpt lat="40.85348" lon="-3.96852">
        <ele>1977.09</ele>
        <time>2014-12-11T09:26:28Z</time>
      </trkpt>
      <trkpt lat="40.85345" lon="-3.96853">
        <ele>1978.05</ele>
        <time>2014-12-11T09:26:50Z</time>
      </trkpt>
      <trkpt lat="40.85342" lon="-3.96852">
        <ele>1979.97</ele>
        <time>2014-12-11T09:26:59Z</time>
      </trkpt>
      <trkpt lat="40.85342" lon="-3.96852">
        <ele>1980.45</ele>
        <time>2014-12-11T09:27:02Z</time>
      </trkpt>
      <trkpt lat="40.85339" lon="-3.96858">
        <ele>1982.38</ele>
        <time>2014-12-11T09:27:14Z</time>
      </trkpt>
      <trkpt lat="40.85336" lon="-3.96852">
        <ele>1984.3</ele>
        <time>2014-12-11T09:27:25Z</time>
      </trkpt>
      <trkpt lat="40.85332" lon="-3.96859">
        <ele>1986.7</ele>
        <time>2014-12-11T09:27:37Z</time>
      </trkpt>
      <trkpt lat="40.85329" lon="-3.96869">
        <ele>1988.14</ele>
        <time>2014-12-11T09:27:50Z</time>
      </trkpt>
      <trkpt lat="40.85329" lon="-3.9687">
        <ele>1988.14</ele>
        <time>2014-12-11T09:28:09Z</time>
      </trkpt>
      <trkpt lat="40.85329" lon="-3.9687">
        <ele>1988.14</ele>
        <time>2014-12-11T09:28:29Z</time>
      </trkpt>
      <trkpt lat="40.85324" lon="-3.96871">
        <ele>1989.59</ele>
        <time>2014-12-11T09:28:42Z</time>
      </trkpt>
      <trkpt lat="40.85319" lon="-3.96868">
        <ele>1991.99</ele>
        <time>2014-12-11T09:28:52Z</time>
      </trkpt>
      <trkpt lat="40.85319" lon="-3.96866">
        <ele>1992.47</ele>
        <time>2014-12-11T09:28:56Z</time>
      </trkpt>
      <trkpt lat="40.85314" lon="-3.96861">
        <ele>1994.39</ele>
        <time>2014-12-11T09:29:09Z</time>
      </trkpt>
      <trkpt lat="40.85307" lon="-3.96859">
        <ele>1996.32</ele>
        <time>2014-12-11T09:29:21Z</time>
      </trkpt>
      <trkpt lat="40.85303" lon="-3.96857">
        <ele>1998.24</ele>
        <time>2014-12-11T09:29:32Z</time>
      </trkpt>
      <trkpt lat="40.85299" lon="-3.96865">
        <ele>2001.12</ele>
        <time>2014-12-11T09:29:44Z</time>
      </trkpt>
      <trkpt lat="40.85299" lon="-3.96865">
        <ele>2000.64</ele>
        <time>2014-12-11T09:29:45Z</time>
      </trkpt>
      <trkpt lat="40.85295" lon="-3.96867">
        <ele>2002.08</ele>
        <time>2014-12-11T09:29:57Z</time>
      </trkpt>
      <trkpt lat="40.85292" lon="-3.96867">
        <ele>2003.52</ele>
        <time>2014-12-11T09:30:14Z</time>
      </trkpt>
      <trkpt lat="40.8529" lon="-3.96871">
        <ele>2005.45</ele>
        <time>2014-12-11T09:30:24Z</time>
      </trkpt>
      <trkpt lat="40.85288" lon="-3.96872">
        <ele>2005.93</ele>
        <time>2014-12-11T09:30:29Z</time>
      </trkpt>
      <trkpt lat="40.85287" lon="-3.96875">
        <ele>2006.41</ele>
        <time>2014-12-11T09:30:42Z</time>
      </trkpt>
      <trkpt lat="40.85284" lon="-3.96881">
        <ele>2008.81</ele>
        <time>2014-12-11T09:30:54Z</time>
      </trkpt>
      <trkpt lat="40.85283" lon="-3.96891">
        <ele>2009.29</ele>
        <time>2014-12-11T09:31:05Z</time>
      </trkpt>
      <trkpt lat="40.8528" lon="-3.96898">
        <ele>2010.25</ele>
        <time>2014-12-11T09:31:16Z</time>
      </trkpt>
      <trkpt lat="40.8528" lon="-3.96904">
        <ele>2011.7</ele>
        <time>2014-12-11T09:31:26Z</time>
      </trkpt>
      <trkpt lat="40.8528" lon="-3.96903">
        <ele>2011.22</ele>
        <time>2014-12-11T09:31:45Z</time>
      </trkpt>
      <trkpt lat="40.85277" lon="-3.96905">
        <ele>2012.18</ele>
        <time>2014-12-11T09:32:12Z</time>
      </trkpt>
      <trkpt lat="40.85273" lon="-3.96904">
        <ele>2013.62</ele>
        <time>2014-12-11T09:32:22Z</time>
      </trkpt>
      <trkpt lat="40.85273" lon="-3.96906">
        <ele>2014.58</ele>
        <time>2014-12-11T09:32:25Z</time>
      </trkpt>
      <trkpt lat="40.8527" lon="-3.96911">
        <ele>2016.02</ele>
        <time>2014-12-11T09:32:35Z</time>
      </trkpt>
      <trkpt lat="40.85268" lon="-3.96911">
        <ele>2017.46</ele>
        <time>2014-12-11T09:32:44Z</time>
      </trkpt>
      <trkpt lat="40.85266" lon="-3.96903">
        <ele>2018.91</ele>
        <time>2014-12-11T09:32:55Z</time>
      </trkpt>
      <trkpt lat="40.85263" lon="-3.96896">
        <ele>2020.83</ele>
        <time>2014-12-11T09:33:07Z</time>
      </trkpt>
      <trkpt lat="40.85262" lon="-3.96889">
        <ele>2021.79</ele>
        <time>2014-12-11T09:33:18Z</time>
      </trkpt>
      <trkpt lat="40.8526" lon="-3.96884">
        <ele>2023.71</ele>
        <time>2014-12-11T09:33:28Z</time>
      </trkpt>
      <trkpt lat="40.85255" lon="-3.96878">
        <ele>2026.12</ele>
        <time>2014-12-11T09:33:40Z</time>
      </trkpt>
      <trkpt lat="40.85253" lon="-3.96876">
        <ele>2027.56</ele>
        <time>2014-12-11T09:33:51Z</time>
      </trkpt>
      <trkpt lat="40.85248" lon="-3.96874">
        <ele>2029.96</ele>
        <time>2014-12-11T09:34:03Z</time>
      </trkpt>
      <trkpt lat="40.85247" lon="-3.9687">
        <ele>2031.4</ele>
        <time>2014-12-11T09:34:17Z</time>
      </trkpt>
      <trkpt lat="40.85244" lon="-3.96864">
        <ele>2033.81</ele>
        <time>2014-12-11T09:34:28Z</time>
      </trkpt>
      <trkpt lat="40.85243" lon="-3.96863">
        <ele>2034.77</ele>
        <time>2014-12-11T09:34:38Z</time>
      </trkpt>
      <trkpt lat="40.8524" lon="-3.96859">
        <ele>2036.69</ele>
        <time>2014-12-11T09:34:50Z</time>
      </trkpt>
      <trkpt lat="40.85238" lon="-3.96856">
        <ele>2038.61</ele>
        <time>2014-12-11T09:35:02Z</time>
      </trkpt>
      <trkpt lat="40.85236" lon="-3.96854">
        <ele>2040.05</ele>
        <time>2014-12-11T09:35:08Z</time>
      </trkpt>
      <trkpt lat="40.85235" lon="-3.96849">
        <ele>2041.98</ele>
        <time>2014-12-11T09:35:21Z</time>
      </trkpt>
      <trkpt lat="40.85235" lon="-3.96842">
        <ele>2043.9</ele>
        <time>2014-12-11T09:35:34Z</time>
      </trkpt>
      <trkpt lat="40.85233" lon="-3.9684">
        <ele>2043.9</ele>
        <time>2014-12-11T09:35:55Z</time>
      </trkpt>
      <trkpt lat="40.85232" lon="-3.96836">
        <ele>2044.38</ele>
        <time>2014-12-11T09:36:29Z</time>
      </trkpt>
      <trkpt lat="40.85228" lon="-3.96831">
        <ele>2045.82</ele>
        <time>2014-12-11T09:36:38Z</time>
      </trkpt>
      <trkpt lat="40.85224" lon="-3.96834">
        <ele>2048.23</ele>
        <time>2014-12-11T09:36:48Z</time>
      </trkpt>
      <trkpt lat="40.85221" lon="-3.96837">
        <ele>2050.15</ele>
        <time>2014-12-11T09:36:59Z</time>
      </trkpt>
      <trkpt lat="40.85218" lon="-3.96846">
        <ele>2052.07</ele>
        <time>2014-12-11T09:37:11Z</time>
      </trkpt>
      <trkpt lat="40.85217" lon="-3.96846">
        <ele>2053.51</ele>
        <time>2014-12-11T09:37:22Z</time>
      </trkpt>
      <trkpt lat="40.85215" lon="-3.96839">
        <ele>2054.96</ele>
        <time>2014-12-11T09:37:35Z</time>
      </trkpt>
      <trkpt lat="40.85214" lon="-3.96836">
        <ele>2055.92</ele>
        <time>2014-12-11T09:37:46Z</time>
      </trkpt>
      <trkpt lat="40.8521" lon="-3.9683">
        <ele>2057.84</ele>
        <time>2014-12-11T09:37:57Z</time>
      </trkpt>
      <trkpt lat="40.85206" lon="-3.96826">
        <ele>2059.76</ele>
        <time>2014-12-11T09:38:07Z</time>
      </trkpt>
      <trkpt lat="40.85204" lon="-3.96827">
        <ele>2060.24</ele>
        <time>2014-12-11T09:38:27Z</time>
      </trkpt>
      <trkpt lat="40.85201" lon="-3.96828">
        <ele>2061.2</ele>
        <time>2014-12-11T09:38:37Z</time>
      </trkpt>
      <trkpt lat="40.85199" lon="-3.9683">
        <ele>2063.13</ele>
        <time>2014-12-11T09:38:48Z</time>
      </trkpt>
      <trkpt lat="40.85197" lon="-3.96835">
        <ele>2065.05</ele>
        <time>2014-12-11T09:39:01Z</time>
      </trkpt>
      <trkpt lat="40.85196" lon="-3.96839">
        <ele>2066.97</ele>
        <time>2014-12-11T09:39:13Z</time>
      </trkpt>
      <trkpt lat="40.85193" lon="-3.96846">
        <ele>2068.41</ele>
        <time>2014-12-11T09:39:25Z</time>
      </trkpt>
      <trkpt lat="40.8519" lon="-3.96852">
        <ele>2069.86</ele>
        <time>2014-12-11T09:39:37Z</time>
      </trkpt>
      <trkpt lat="40.85188" lon="-3.9685">
        <ele>2070.82</ele>
        <time>2014-12-11T09:39:51Z</time>
      </trkpt>
      <trkpt lat="40.85187" lon="-3.96844">
        <ele>2073.22</ele>
        <time>2014-12-11T09:40:02Z</time>
      </trkpt>
      <trkpt lat="40.85184" lon="-3.96842">
        <ele>2074.66</ele>
        <time>2014-12-11T09:40:14Z</time>
      </trkpt>
      <trkpt lat="40.85179" lon="-3.96845">
        <ele>2076.59</ele>
        <time>2014-12-11T09:40:28Z</time>
      </trkpt>
      <trkpt lat="40.8518" lon="-3.96843">
        <ele>2077.07</ele>
        <time>2014-12-11T09:40:32Z</time>
      </trkpt>
      <trkpt lat="40.85178" lon="-3.96839">
        <ele>2078.51</ele>
        <time>2014-12-11T09:40:45Z</time>
      </trkpt>
      <trkpt lat="40.85174" lon="-3.96837">
        <ele>2080.43</ele>
        <time>2014-12-11T09:40:56Z</time>
      </trkpt>
      <trkpt lat="40.8517" lon="-3.96837">
        <ele>2083.31</ele>
        <time>2014-12-11T09:41:08Z</time>
      </trkpt>
      <trkpt lat="40.85171" lon="-3.96835">
        <ele>2083.31</ele>
        <time>2014-12-11T09:41:14Z</time>
      </trkpt>
      <trkpt lat="40.85172" lon="-3.96828">
        <ele>2084.28</ele>
        <time>2014-12-11T09:41:28Z</time>
      </trkpt>
      <trkpt lat="40.85171" lon="-3.96825">
        <ele>2085.24</ele>
        <time>2014-12-11T09:41:34Z</time>
      </trkpt>
      <trkpt lat="40.85168" lon="-3.96818">
        <ele>2086.68</ele>
        <time>2014-12-11T09:41:45Z</time>
      </trkpt>
      <trkpt lat="40.85166" lon="-3.96813">
        <ele>2088.12</ele>
        <time>2014-12-11T09:41:57Z</time>
      </trkpt>
      <trkpt lat="40.85162" lon="-3.96813">
        <ele>2090.04</ele>
        <time>2014-12-11T09:42:11Z</time>
      </trkpt>
      <trkpt lat="40.85159" lon="-3.96818">
        <ele>2091.49</ele>
        <time>2014-12-11T09:42:27Z</time>
      </trkpt>
      <trkpt lat="40.85157" lon="-3.96812">
        <ele>2092.93</ele>
        <time>2014-12-11T09:42:44Z</time>
      </trkpt>
      <trkpt lat="40.85157" lon="-3.96805">
        <ele>2094.37</ele>
        <time>2014-12-11T09:42:56Z</time>
      </trkpt>
      <trkpt lat="40.85154" lon="-3.96802">
        <ele>2095.33</ele>
        <time>2014-12-11T09:43:06Z</time>
      </trkpt>
      <trkpt lat="40.8515" lon="-3.96803">
        <ele>2097.25</ele>
        <time>2014-12-11T09:43:18Z</time>
      </trkpt>
      <trkpt lat="40.85148" lon="-3.96806">
        <ele>2098.7</ele>
        <time>2014-12-11T09:43:22Z</time>
      </trkpt>
      <trkpt lat="40.85145" lon="-3.96811">
        <ele>2099.18</ele>
        <time>2014-12-11T09:43:34Z</time>
      </trkpt>
      <trkpt lat="40.85141" lon="-3.96809">
        <ele>2101.58</ele>
        <time>2014-12-11T09:43:48Z</time>
      </trkpt>
      <trkpt lat="40.85138" lon="-3.96804">
        <ele>2103.98</ele>
        <time>2014-12-11T09:43:58Z</time>
      </trkpt>
      <trkpt lat="40.85139" lon="-3.96803">
        <ele>2103.98</ele>
        <time>2014-12-11T09:44:13Z</time>
      </trkpt>
      <trkpt lat="40.85139" lon="-3.968">
        <ele>2104.94</ele>
        <time>2014-12-11T09:44:28Z</time>
      </trkpt>
      <trkpt lat="40.85139" lon="-3.96795">
        <ele>2106.39</ele>
        <time>2014-12-11T09:44:41Z</time>
      </trkpt>
      <trkpt lat="40.85135" lon="-3.96797">
        <ele>2107.35</ele>
        <time>2014-12-11T09:44:52Z</time>
      </trkpt>
      <trkpt lat="40.85132" lon="-3.968">
        <ele>2107.83</ele>
        <time>2014-12-11T09:45:06Z</time>
      </trkpt>
      <trkpt lat="40.85132" lon="-3.96803">
        <ele>2108.79</ele>
        <time>2014-12-11T09:45:21Z</time>
      </trkpt>
      <trkpt lat="40.8513" lon="-3.96803">
        <ele>2109.27</ele>
        <time>2014-12-11T09:45:37Z</time>
      </trkpt>
      <trkpt lat="40.85126" lon="-3.96806">
        <ele>2111.19</ele>
        <time>2014-12-11T09:45:50Z</time>
      </trkpt>
      <trkpt lat="40.85123" lon="-3.96808">
        <ele>2112.15</ele>
        <time>2014-12-11T09:46:00Z</time>
      </trkpt>
      <trkpt lat="40.85118" lon="-3.96808">
        <ele>2114.08</ele>
        <time>2014-12-11T09:46:12Z</time>
      </trkpt>
      <trkpt lat="40.85116" lon="-3.96807">
        <ele>2115.04</ele>
        <time>2014-12-11T09:46:25Z</time>
      </trkpt>
      <trkpt lat="40.85113" lon="-3.96806">
        <ele>2117.44</ele>
        <time>2014-12-11T09:46:36Z</time>
      </trkpt>
      <trkpt lat="40.85113" lon="-3.96807">
        <ele>2117.92</ele>
        <time>2014-12-11T09:46:49Z</time>
      </trkpt>
      <trkpt lat="40.85112" lon="-3.96807">
        <ele>2117.92</ele>
        <time>2014-12-11T09:47:07Z</time>
      </trkpt>
      <trkpt lat="40.85112" lon="-3.96807">
        <ele>2118.4</ele>
        <time>2014-12-11T09:47:08Z</time>
      </trkpt>
      <trkpt lat="40.85112" lon="-3.9681">
        <ele>2116.96</ele>
        <time>2014-12-11T09:47:20Z</time>
      </trkpt>
      <trkpt lat="40.85113" lon="-3.96805">
        <ele>2116.96</ele>
        <time>2014-12-11T09:47:47Z</time>
      </trkpt>
      <trkpt lat="40.85112" lon="-3.96805">
        <ele>2117.44</ele>
        <time>2014-12-11T09:48:22Z</time>
      </trkpt>
      <trkpt lat="40.85112" lon="-3.96805">
        <ele>2116.96</ele>
        <time>2014-12-11T09:48:59Z</time>
      </trkpt>
      <trkpt lat="40.85111" lon="-3.96803">
        <ele>2117.44</ele>
        <time>2014-12-11T09:49:16Z</time>
      </trkpt>
      <trkpt lat="40.85111" lon="-3.96804">
        <ele>2117.92</ele>
        <time>2014-12-11T09:49:59Z</time>
      </trkpt>
      <trkpt lat="40.8511" lon="-3.96806">
        <ele>2117.92</ele>
        <time>2014-12-11T09:50:48Z</time>
      </trkpt>
      <trkpt lat="40.85111" lon="-3.96805">
        <ele>2117.92</ele>
        <time>2014-12-11T09:51:28Z</time>
      </trkpt>
      <trkpt lat="40.85111" lon="-3.96806">
        <ele>2117.92</ele>
        <time>2014-12-11T09:52:15Z</time>
      </trkpt>
      <trkpt lat="40.85112" lon="-3.96806">
        <ele>2118.4</ele>
        <time>2014-12-11T09:53:00Z</time>
      </trkpt>
      <trkpt lat="40.85111" lon="-3.9681">
        <ele>2117.92</ele>
        <time>2014-12-11T09:53:18Z</time>
      </trkpt>
      <trkpt lat="40.85112" lon="-3.96809">
        <ele>2117.92</ele>
        <time>2014-12-11T09:53:37Z</time>
      </trkpt>
      <trkpt lat="40.85112" lon="-3.96808">
        <ele>2117.92</ele>
        <time>2014-12-11T09:53:47Z</time>
      </trkpt>
      <trkpt lat="40.85113" lon="-3.96805">
        <ele>2118.88</ele>
        <time>2014-12-11T09:53:59Z</time>
      </trkpt>
      <trkpt lat="40.85112" lon="-3.96805">
        <ele>2118.88</ele>
        <time>2014-12-11T09:54:19Z</time>
      </trkpt>
      <trkpt lat="40.85113" lon="-3.96806">
        <ele>2118.88</ele>
        <time>2014-12-11T09:54:40Z</time>
      </trkpt>
      <trkpt lat="40.85113" lon="-3.96805">
        <ele>2118.88</ele>
        <time>2014-12-11T09:55:04Z</time>
      </trkpt>
      <trkpt lat="40.85113" lon="-3.96808">
        <ele>2119.36</ele>
        <time>2014-12-11T09:55:27Z</time>
      </trkpt>
      <trkpt lat="40.85113" lon="-3.96805">
        <ele>2118.88</ele>
        <time>2014-12-11T09:55:47Z</time>
      </trkpt>
      <trkpt lat="40.85109" lon="-3.96804">
        <ele>2120.81</ele>
        <time>2014-12-11T09:56:06Z</time>
      </trkpt>
      <trkpt lat="40.85105" lon="-3.96799">
        <ele>2122.73</ele>
        <time>2014-12-11T09:56:18Z</time>
      </trkpt>
      <trkpt lat="40.85102" lon="-3.96792">
        <ele>2126.09</ele>
        <time>2014-12-11T09:56:29Z</time>
      </trkpt>
      <trkpt lat="40.85098" lon="-3.96788">
        <ele>2127.53</ele>
        <time>2014-12-11T09:56:41Z</time>
      </trkpt>
      <trkpt lat="40.85095" lon="-3.96784">
        <ele>2129.94</ele>
        <time>2014-12-11T09:56:52Z</time>
      </trkpt>
      <trkpt lat="40.85093" lon="-3.96777">
        <ele>2132.34</ele>
        <time>2014-12-11T09:57:06Z</time>
      </trkpt>
      <trkpt lat="40.85086" lon="-3.96776">
        <ele>2134.74</ele>
        <time>2014-12-11T09:57:19Z</time>
      </trkpt>
      <trkpt lat="40.85082" lon="-3.96777">
        <ele>2136.19</ele>
        <time>2014-12-11T09:57:29Z</time>
      </trkpt>
      <trkpt lat="40.85081" lon="-3.96778">
        <ele>2136.67</ele>
        <time>2014-12-11T09:57:31Z</time>
      </trkpt>
      <trkpt lat="40.85074" lon="-3.96781">
        <ele>2139.07</ele>
        <time>2014-12-11T09:57:43Z</time>
      </trkpt>
      <trkpt lat="40.8507" lon="-3.96781">
        <ele>2140.03</ele>
        <time>2014-12-11T09:57:55Z</time>
      </trkpt>
      <trkpt lat="40.85069" lon="-3.96779">
        <ele>2140.99</ele>
        <time>2014-12-11T09:58:11Z</time>
      </trkpt>
      <trkpt lat="40.85064" lon="-3.9678">
        <ele>2143.4</ele>
        <time>2014-12-11T09:58:20Z</time>
      </trkpt>
      <trkpt lat="40.8506" lon="-3.96782">
        <ele>2145.32</ele>
        <time>2014-12-11T09:58:28Z</time>
      </trkpt>
      <trkpt lat="40.85053" lon="-3.96784">
        <ele>2147.72</ele>
        <time>2014-12-11T09:58:40Z</time>
      </trkpt>
      <trkpt lat="40.85047" lon="-3.96786">
        <ele>2149.65</ele>
        <time>2014-12-11T09:58:52Z</time>
      </trkpt>
      <trkpt lat="40.85047" lon="-3.96785">
        <ele>2149.65</ele>
        <time>2014-12-11T09:59:09Z</time>
      </trkpt>
      <trkpt lat="40.85044" lon="-3.96783">
        <ele>2151.57</ele>
        <time>2014-12-11T09:59:27Z</time>
      </trkpt>
      <trkpt lat="40.85043" lon="-3.96777">
        <ele>2153.97</ele>
        <time>2014-12-11T09:59:37Z</time>
      </trkpt>
      <trkpt lat="40.85039" lon="-3.96776">
        <ele>2156.37</ele>
        <time>2014-12-11T09:59:48Z</time>
      </trkpt>
      <trkpt lat="40.85034" lon="-3.96774">
        <ele>2158.3</ele>
        <time>2014-12-11T10:00:01Z</time>
      </trkpt>
      <trkpt lat="40.85033" lon="-3.96769">
        <ele>2160.22</ele>
        <time>2014-12-11T10:00:10Z</time>
      </trkpt>
      <trkpt lat="40.8503" lon="-3.96768">
        <ele>2161.18</ele>
        <time>2014-12-11T10:00:18Z</time>
      </trkpt>
      <trkpt lat="40.85023" lon="-3.96767">
        <ele>2163.58</ele>
        <time>2014-12-11T10:00:29Z</time>
      </trkpt>
      <trkpt lat="40.8502" lon="-3.96765">
        <ele>2165.51</ele>
        <time>2014-12-11T10:00:41Z</time>
      </trkpt>
      <trkpt lat="40.85016" lon="-3.96768">
        <ele>2166.47</ele>
        <time>2014-12-11T10:00:58Z</time>
      </trkpt>
      <trkpt lat="40.8501" lon="-3.96768">
        <ele>2168.39</ele>
        <time>2014-12-11T10:01:11Z</time>
      </trkpt>
      <trkpt lat="40.85006" lon="-3.96767">
        <ele>2169.83</ele>
        <time>2014-12-11T10:01:19Z</time>
      </trkpt>
      <trkpt lat="40.85002" lon="-3.96765">
        <ele>2172.72</ele>
        <time>2014-12-11T10:01:29Z</time>
      </trkpt>
      <trkpt lat="40.84998" lon="-3.96766">
        <ele>2172.72</ele>
        <time>2014-12-11T10:01:48Z</time>
      </trkpt>
      <trkpt lat="40.84996" lon="-3.96763">
        <ele>2175.12</ele>
        <time>2014-12-11T10:02:00Z</time>
      </trkpt>
      <trkpt lat="40.84991" lon="-3.9676">
        <ele>2177.52</ele>
        <time>2014-12-11T10:02:10Z</time>
      </trkpt>
      <trkpt lat="40.84986" lon="-3.96759">
        <ele>2179.45</ele>
        <time>2014-12-11T10:02:19Z</time>
      </trkpt>
      <trkpt lat="40.84982" lon="-3.96759">
        <ele>2180.41</ele>
        <time>2014-12-11T10:02:32Z</time>
      </trkpt>
      <trkpt lat="40.8498" lon="-3.96755">
        <ele>2182.33</ele>
        <time>2014-12-11T10:02:43Z</time>
      </trkpt>
      <trkpt lat="40.8498" lon="-3.96752">
        <ele>2182.81</ele>
        <time>2014-12-11T10:02:56Z</time>
      </trkpt>
      <trkpt lat="40.84979" lon="-3.96752">
        <ele>2182.33</ele>
        <time>2014-12-11T10:03:17Z</time>
      </trkpt>
      <trkpt lat="40.84977" lon="-3.96752">
        <ele>2182.81</ele>
        <time>2014-12-11T10:03:35Z</time>
      </trkpt>
      <trkpt lat="40.84977" lon="-3.96751">
        <ele>2182.33</ele>
        <time>2014-12-11T10:03:43Z</time>
      </trkpt>
      <trkpt lat="40.84976" lon="-3.96752">
        <ele>2182.81</ele>
        <time>2014-12-11T10:03:45Z</time>
      </trkpt>
      <trkpt lat="40.84968" lon="-3.96756">
        <ele>2184.73</ele>
        <time>2014-12-11T10:03:56Z</time>
      </trkpt>
      <trkpt lat="40.84958" lon="-3.96762">
        <ele>2187.62</ele>
        <time>2014-12-11T10:04:08Z</time>
      </trkpt>
      <trkpt lat="40.84951" lon="-3.96766">
        <ele>2189.54</ele>
        <time>2014-12-11T10:04:19Z</time>
      </trkpt>
      <trkpt lat="40.84948" lon="-3.96768">
        <ele>2190.5</ele>
        <time>2014-12-11T10:04:24Z</time>
      </trkpt>
      <trkpt lat="40.84946" lon="-3.96769">
        <ele>2190.98</ele>
        <time>2014-12-11T10:04:27Z</time>
      </trkpt>
      <trkpt lat="40.84936" lon="-3.96773">
        <ele>2193.39</ele>
        <time>2014-12-11T10:04:40Z</time>
      </trkpt>
      <trkpt lat="40.84928" lon="-3.96774">
        <ele>2195.79</ele>
        <time>2014-12-11T10:04:51Z</time>
      </trkpt>
      <trkpt lat="40.84923" lon="-3.96773">
        <ele>2197.23</ele>
        <time>2014-12-11T10:05:01Z</time>
      </trkpt>
      <trkpt lat="40.84923" lon="-3.96774">
        <ele>2197.23</ele>
        <time>2014-12-11T10:05:16Z</time>
      </trkpt>
      <trkpt lat="40.84924" lon="-3.96776">
        <ele>2197.23</ele>
        <time>2014-12-11T10:05:23Z</time>
      </trkpt>
      <trkpt lat="40.84922" lon="-3.96777">
        <ele>2196.75</ele>
        <time>2014-12-11T10:05:34Z</time>
      </trkpt>
      <trkpt lat="40.84922" lon="-3.96778">
        <ele>2196.75</ele>
        <time>2014-12-11T10:06:03Z</time>
      </trkpt>
      <trkpt lat="40.84922" lon="-3.96778">
        <ele>2196.75</ele>
        <time>2014-12-11T10:06:31Z</time>
      </trkpt>
      <trkpt lat="40.84921" lon="-3.96777">
        <ele>2196.75</ele>
        <time>2014-12-11T10:06:55Z</time>
      </trkpt>
      <trkpt lat="40.84923" lon="-3.96773">
        <ele>2197.23</ele>
        <time>2014-12-11T10:07:08Z</time>
      </trkpt>
      <trkpt lat="40.84923" lon="-3.96775">
        <ele>2199.15</ele>
        <time>2014-12-11T10:07:32Z</time>
      </trkpt>
      <trkpt lat="40.84924" lon="-3.96776">
        <ele>2197.71</ele>
        <time>2014-12-11T10:07:57Z</time>
      </trkpt>
      <trkpt lat="40.84917" lon="-3.96774">
        <ele>2198.19</ele>
        <time>2014-12-11T10:08:09Z</time>
      </trkpt>
      <trkpt lat="40.84913" lon="-3.96773">
        <ele>2199.15</ele>
        <time>2014-12-11T10:08:15Z</time>
      </trkpt>
      <trkpt lat="40.84911" lon="-3.9677">
        <ele>2200.11</ele>
        <time>2014-12-11T10:08:26Z</time>
      </trkpt>
      <trkpt lat="40.84908" lon="-3.9677">
        <ele>2200.59</ele>
        <time>2014-12-11T10:08:36Z</time>
      </trkpt>
      <trkpt lat="40.84906" lon="-3.96769">
        <ele>2200.59</ele>
        <time>2014-12-11T10:08:39Z</time>
      </trkpt>
      <trkpt lat="40.84896" lon="-3.96769">
        <ele>2202.04</ele>
        <time>2014-12-11T10:08:52Z</time>
      </trkpt>
      <trkpt lat="40.84895" lon="-3.96768">
        <ele>2202.52</ele>
        <time>2014-12-11T10:08:54Z</time>
      </trkpt>
      <trkpt lat="40.8489" lon="-3.96765">
        <ele>2203</ele>
        <time>2014-12-11T10:09:08Z</time>
      </trkpt>
      <trkpt lat="40.84888" lon="-3.9676">
        <ele>2203.96</ele>
        <time>2014-12-11T10:09:14Z</time>
      </trkpt>
      <trkpt lat="40.84882" lon="-3.96749">
        <ele>2205.4</ele>
        <time>2014-12-11T10:09:27Z</time>
      </trkpt>
      <trkpt lat="40.84878" lon="-3.96742">
        <ele>2206.84</ele>
        <time>2014-12-11T10:09:35Z</time>
      </trkpt>
      <trkpt lat="40.84869" lon="-3.96731">
        <ele>2208.29</ele>
        <time>2014-12-11T10:09:49Z</time>
      </trkpt>
      <trkpt lat="40.84867" lon="-3.96729">
        <ele>2208.77</ele>
        <time>2014-12-11T10:09:53Z</time>
      </trkpt>
      <trkpt lat="40.8486" lon="-3.96722">
        <ele>2210.21</ele>
        <time>2014-12-11T10:10:03Z</time>
      </trkpt>
      <trkpt lat="40.84855" lon="-3.96714">
        <ele>2211.17</ele>
        <time>2014-12-11T10:10:14Z</time>
      </trkpt>
      <trkpt lat="40.84851" lon="-3.96706">
        <ele>2212.61</ele>
        <time>2014-12-11T10:10:24Z</time>
      </trkpt>
      <trkpt lat="40.84851" lon="-3.96702">
        <ele>2212.61</ele>
        <time>2014-12-11T10:10:28Z</time>
      </trkpt>
      <trkpt lat="40.84846" lon="-3.96692">
        <ele>2214.05</ele>
        <time>2014-12-11T10:10:39Z</time>
      </trkpt>
      <trkpt lat="40.8484" lon="-3.96685">
        <ele>2215.98</ele>
        <time>2014-12-11T10:10:51Z</time>
      </trkpt>
      <trkpt lat="40.84841" lon="-3.96685">
        <ele>2215.5</ele>
        <time>2014-12-11T10:10:57Z</time>
      </trkpt>
      <trkpt lat="40.84839" lon="-3.96685">
        <ele>2215.98</ele>
        <time>2014-12-11T10:10:59Z</time>
      </trkpt>
      <trkpt lat="40.84831" lon="-3.96683">
        <ele>2215.98</ele>
        <time>2014-12-11T10:11:07Z</time>
      </trkpt>
      <trkpt lat="40.84826" lon="-3.9668">
        <ele>2216.46</ele>
        <time>2014-12-11T10:11:13Z</time>
      </trkpt>
      <trkpt lat="40.84828" lon="-3.9667">
        <ele>2217.9</ele>
        <time>2014-12-11T10:11:26Z</time>
      </trkpt>
      <trkpt lat="40.8483" lon="-3.96664">
        <ele>2218.38</ele>
        <time>2014-12-11T10:11:34Z</time>
      </trkpt>
      <trkpt lat="40.84833" lon="-3.96653">
        <ele>2220.78</ele>
        <time>2014-12-11T10:11:47Z</time>
      </trkpt>
      <trkpt lat="40.84834" lon="-3.9665">
        <ele>2220.78</ele>
        <time>2014-12-11T10:11:50Z</time>
      </trkpt>
      <trkpt lat="40.84835" lon="-3.96645">
        <ele>2221.74</ele>
        <time>2014-12-11T10:11:57Z</time>
      </trkpt>
      <trkpt lat="40.84835" lon="-3.96634">
        <ele>2223.19</ele>
        <time>2014-12-11T10:12:10Z</time>
      </trkpt>
      <trkpt lat="40.84836" lon="-3.96627">
        <ele>2224.15</ele>
        <time>2014-12-11T10:12:21Z</time>
      </trkpt>
      <trkpt lat="40.84836" lon="-3.96618">
        <ele>2225.59</ele>
        <time>2014-12-11T10:12:31Z</time>
      </trkpt>
      <trkpt lat="40.8484" lon="-3.96611">
        <ele>2226.55</ele>
        <time>2014-12-11T10:12:41Z</time>
      </trkpt>
      <trkpt lat="40.84842" lon="-3.96604">
        <ele>2227.51</ele>
        <time>2014-12-11T10:12:50Z</time>
      </trkpt>
      <trkpt lat="40.84844" lon="-3.96593">
        <ele>2228.47</ele>
        <time>2014-12-11T10:13:01Z</time>
      </trkpt>
      <trkpt lat="40.84846" lon="-3.96583">
        <ele>2229.92</ele>
        <time>2014-12-11T10:13:13Z</time>
      </trkpt>
      <trkpt lat="40.84844" lon="-3.96574">
        <ele>2231.84</ele>
        <time>2014-12-11T10:13:25Z</time>
      </trkpt>
      <trkpt lat="40.8484" lon="-3.96567">
        <ele>2234.72</ele>
        <time>2014-12-11T10:13:36Z</time>
      </trkpt>
      <trkpt lat="40.84841" lon="-3.96558">
        <ele>2234.72</ele>
        <time>2014-12-11T10:13:48Z</time>
      </trkpt>
      <trkpt lat="40.8484" lon="-3.9655">
        <ele>2236.16</ele>
        <time>2014-12-11T10:13:59Z</time>
      </trkpt>
      <trkpt lat="40.84836" lon="-3.96541">
        <ele>2237.61</ele>
        <time>2014-12-11T10:14:10Z</time>
      </trkpt>
      <trkpt lat="40.84836" lon="-3.96534">
        <ele>2238.57</ele>
        <time>2014-12-11T10:14:20Z</time>
      </trkpt>
      <trkpt lat="40.84833" lon="-3.96526">
        <ele>2240.49</ele>
        <time>2014-12-11T10:14:32Z</time>
      </trkpt>
      <trkpt lat="40.84831" lon="-3.96517">
        <ele>2241.93</ele>
        <time>2014-12-11T10:14:44Z</time>
      </trkpt>
      <trkpt lat="40.8483" lon="-3.9651">
        <ele>2243.37</ele>
        <time>2014-12-11T10:14:54Z</time>
      </trkpt>
      <trkpt lat="40.84828" lon="-3.96502">
        <ele>2244.82</ele>
        <time>2014-12-11T10:15:04Z</time>
      </trkpt>
      <trkpt lat="40.84823" lon="-3.96492">
        <ele>2246.26</ele>
        <time>2014-12-11T10:15:16Z</time>
      </trkpt>
      <trkpt lat="40.8482" lon="-3.96484">
        <ele>2247.22</ele>
        <time>2014-12-11T10:15:27Z</time>
      </trkpt>
      <trkpt lat="40.8482" lon="-3.96476">
        <ele>2249.62</ele>
        <time>2014-12-11T10:15:37Z</time>
      </trkpt>
      <trkpt lat="40.84819" lon="-3.96468">
        <ele>2251.06</ele>
        <time>2014-12-11T10:15:49Z</time>
      </trkpt>
      <trkpt lat="40.84819" lon="-3.96458">
        <ele>2252.51</ele>
        <time>2014-12-11T10:16:01Z</time>
      </trkpt>
      <trkpt lat="40.84819" lon="-3.96455">
        <ele>2252.99</ele>
        <time>2014-12-11T10:16:15Z</time>
      </trkpt>
      <trkpt lat="40.84817" lon="-3.96456">
        <ele>2252.99</ele>
        <time>2014-12-11T10:16:39Z</time>
      </trkpt>
      <trkpt lat="40.84819" lon="-3.96451">
        <ele>2253.47</ele>
        <time>2014-12-11T10:16:54Z</time>
      </trkpt>
      <trkpt lat="40.84819" lon="-3.96441">
        <ele>2255.39</ele>
        <time>2014-12-11T10:17:06Z</time>
      </trkpt>
      <trkpt lat="40.84819" lon="-3.96441">
        <ele>2255.39</ele>
        <time>2014-12-11T10:17:07Z</time>
      </trkpt>
      <trkpt lat="40.84819" lon="-3.9643">
        <ele>2257.31</ele>
        <time>2014-12-11T10:17:18Z</time>
      </trkpt>
      <trkpt lat="40.8482" lon="-3.96421">
        <ele>2258.75</ele>
        <time>2014-12-11T10:17:29Z</time>
      </trkpt>
      <trkpt lat="40.8482" lon="-3.96413">
        <ele>2260.68</ele>
        <time>2014-12-11T10:17:39Z</time>
      </trkpt>
      <trkpt lat="40.84818" lon="-3.96403">
        <ele>2261.64</ele>
        <time>2014-12-11T10:17:50Z</time>
      </trkpt>
      <trkpt lat="40.84818" lon="-3.96395">
        <ele>2263.08</ele>
        <time>2014-12-11T10:18:01Z</time>
      </trkpt>
      <trkpt lat="40.84817" lon="-3.96387">
        <ele>2264.52</ele>
        <time>2014-12-11T10:18:11Z</time>
      </trkpt>
      <trkpt lat="40.84817" lon="-3.96382">
        <ele>2265.48</ele>
        <time>2014-12-11T10:18:23Z</time>
      </trkpt>
      <trkpt lat="40.84817" lon="-3.96375">
        <ele>2266.93</ele>
        <time>2014-12-11T10:18:39Z</time>
      </trkpt>
      <trkpt lat="40.84817" lon="-3.96367">
        <ele>2268.85</ele>
        <time>2014-12-11T10:18:50Z</time>
      </trkpt>
      <trkpt lat="40.84818" lon="-3.96358">
        <ele>2270.29</ele>
        <time>2014-12-11T10:19:02Z</time>
      </trkpt>
      <trkpt lat="40.84817" lon="-3.96349">
        <ele>2271.73</ele>
        <time>2014-12-11T10:19:13Z</time>
      </trkpt>
      <trkpt lat="40.84818" lon="-3.9634">
        <ele>2273.66</ele>
        <time>2014-12-11T10:19:25Z</time>
      </trkpt>
      <trkpt lat="40.84819" lon="-3.9633">
        <ele>2277.02</ele>
        <time>2014-12-11T10:19:38Z</time>
      </trkpt>
      <trkpt lat="40.84819" lon="-3.96328">
        <ele>2276.06</ele>
        <time>2014-12-11T10:19:41Z</time>
      </trkpt>
      <trkpt lat="40.84821" lon="-3.96318">
        <ele>2277.98</ele>
        <time>2014-12-11T10:19:53Z</time>
      </trkpt>
      <trkpt lat="40.84823" lon="-3.9631">
        <ele>2278.94</ele>
        <time>2014-12-11T10:20:04Z</time>
      </trkpt>
      <trkpt lat="40.84825" lon="-3.96298">
        <ele>2280.87</ele>
        <time>2014-12-11T10:20:16Z</time>
      </trkpt>
      <trkpt lat="40.84826" lon="-3.96289">
        <ele>2282.79</ele>
        <time>2014-12-11T10:20:29Z</time>
      </trkpt>
      <trkpt lat="40.84827" lon="-3.96278">
        <ele>2285.19</ele>
        <time>2014-12-11T10:20:44Z</time>
      </trkpt>
      <trkpt lat="40.84825" lon="-3.96274">
        <ele>2285.67</ele>
        <time>2014-12-11T10:21:00Z</time>
      </trkpt>
      <trkpt lat="40.84825" lon="-3.96267">
        <ele>2287.59</ele>
        <time>2014-12-11T10:21:10Z</time>
      </trkpt>
      <trkpt lat="40.84824" lon="-3.96258">
        <ele>2289.04</ele>
        <time>2014-12-11T10:21:22Z</time>
      </trkpt>
      <trkpt lat="40.84825" lon="-3.96249">
        <ele>2290.96</ele>
        <time>2014-12-11T10:21:33Z</time>
      </trkpt>
      <trkpt lat="40.84826" lon="-3.96241">
        <ele>2292.4</ele>
        <time>2014-12-11T10:21:43Z</time>
      </trkpt>
      <trkpt lat="40.84825" lon="-3.96234">
        <ele>2293.84</ele>
        <time>2014-12-11T10:21:52Z</time>
      </trkpt>
      <trkpt lat="40.84824" lon="-3.96225">
        <ele>2295.28</ele>
        <time>2014-12-11T10:22:03Z</time>
      </trkpt>
      <trkpt lat="40.84824" lon="-3.96217">
        <ele>2296.73</ele>
        <time>2014-12-11T10:22:14Z</time>
      </trkpt>
      <trkpt lat="40.84822" lon="-3.96207">
        <ele>2298.17</ele>
        <time>2014-12-11T10:22:25Z</time>
      </trkpt>
      <trkpt lat="40.84822" lon="-3.96199">
        <ele>2299.61</ele>
        <time>2014-12-11T10:22:37Z</time>
      </trkpt>
      <trkpt lat="40.84822" lon="-3.9619">
        <ele>2301.05</ele>
        <time>2014-12-11T10:22:49Z</time>
      </trkpt>
      <trkpt lat="40.84822" lon="-3.96181">
        <ele>2302.98</ele>
        <time>2014-12-11T10:23:00Z</time>
      </trkpt>
      <trkpt lat="40.84821" lon="-3.96172">
        <ele>2304.42</ele>
        <time>2014-12-11T10:23:13Z</time>
      </trkpt>
      <trkpt lat="40.8482" lon="-3.96165">
        <ele>2305.38</ele>
        <time>2014-12-11T10:23:23Z</time>
      </trkpt>
      <trkpt lat="40.84819" lon="-3.96156">
        <ele>2306.82</ele>
        <time>2014-12-11T10:23:35Z</time>
      </trkpt>
      <trkpt lat="40.84818" lon="-3.96151">
        <ele>2307.3</ele>
        <time>2014-12-11T10:24:01Z</time>
      </trkpt>
      <trkpt lat="40.84819" lon="-3.96144">
        <ele>2308.74</ele>
        <time>2014-12-11T10:24:12Z</time>
      </trkpt>
      <trkpt lat="40.84821" lon="-3.96136">
        <ele>2310.67</ele>
        <time>2014-12-11T10:24:23Z</time>
      </trkpt>
      <trkpt lat="40.8482" lon="-3.96128">
        <ele>2312.11</ele>
        <time>2014-12-11T10:24:33Z</time>
      </trkpt>
      <trkpt lat="40.8482" lon="-3.9612">
        <ele>2313.55</ele>
        <time>2014-12-11T10:24:43Z</time>
      </trkpt>
      <trkpt lat="40.84818" lon="-3.96111">
        <ele>2314.99</ele>
        <time>2014-12-11T10:24:55Z</time>
      </trkpt>
      <trkpt lat="40.84817" lon="-3.96105">
        <ele>2315.95</ele>
        <time>2014-12-11T10:25:05Z</time>
      </trkpt>
      <trkpt lat="40.84817" lon="-3.96104">
        <ele>2315.95</ele>
        <time>2014-12-11T10:25:31Z</time>
      </trkpt>
      <trkpt lat="40.84815" lon="-3.96096">
        <ele>2318.84</ele>
        <time>2014-12-11T10:25:41Z</time>
      </trkpt>
      <trkpt lat="40.84813" lon="-3.96088">
        <ele>2318.84</ele>
        <time>2014-12-11T10:25:51Z</time>
      </trkpt>
      <trkpt lat="40.84814" lon="-3.96082">
        <ele>2320.76</ele>
        <time>2014-12-11T10:26:02Z</time>
      </trkpt>
      <trkpt lat="40.84814" lon="-3.96073">
        <ele>2322.2</ele>
        <time>2014-12-11T10:26:12Z</time>
      </trkpt>
      <trkpt lat="40.84815" lon="-3.96065">
        <ele>2324.61</ele>
        <time>2014-12-11T10:26:23Z</time>
      </trkpt>
      <trkpt lat="40.84816" lon="-3.96056">
        <ele>2326.53</ele>
        <time>2014-12-11T10:26:34Z</time>
      </trkpt>
      <trkpt lat="40.84815" lon="-3.96047">
        <ele>2328.93</ele>
        <time>2014-12-11T10:26:49Z</time>
      </trkpt>
      <trkpt lat="40.84816" lon="-3.96039">
        <ele>2329.89</ele>
        <time>2014-12-11T10:27:02Z</time>
      </trkpt>
      <trkpt lat="40.84815" lon="-3.96029">
        <ele>2332.3</ele>
        <time>2014-12-11T10:27:15Z</time>
      </trkpt>
      <trkpt lat="40.84816" lon="-3.96026">
        <ele>2333.26</ele>
        <time>2014-12-11T10:27:19Z</time>
      </trkpt>
      <trkpt lat="40.84818" lon="-3.96019">
        <ele>2334.7</ele>
        <time>2014-12-11T10:27:28Z</time>
      </trkpt>
      <trkpt lat="40.84821" lon="-3.96011">
        <ele>2337.1</ele>
        <time>2014-12-11T10:27:39Z</time>
      </trkpt>
      <trkpt lat="40.84822" lon="-3.9601">
        <ele>2337.1</ele>
        <time>2014-12-11T10:27:40Z</time>
      </trkpt>
      <trkpt lat="40.84825" lon="-3.96001">
        <ele>2339.02</ele>
        <time>2014-12-11T10:27:52Z</time>
      </trkpt>
      <trkpt lat="40.84825" lon="-3.95995">
        <ele>2339.99</ele>
        <time>2014-12-11T10:28:04Z</time>
      </trkpt>
      <trkpt lat="40.84825" lon="-3.95995">
        <ele>2340.47</ele>
        <time>2014-12-11T10:28:26Z</time>
      </trkpt>
      <trkpt lat="40.84825" lon="-3.95984">
        <ele>2341.91</ele>
        <time>2014-12-11T10:28:38Z</time>
      </trkpt>
      <trkpt lat="40.84825" lon="-3.95973">
        <ele>2344.31</ele>
        <time>2014-12-11T10:28:51Z</time>
      </trkpt>
      <trkpt lat="40.84826" lon="-3.95963">
        <ele>2346.72</ele>
        <time>2014-12-11T10:29:03Z</time>
      </trkpt>
      <trkpt lat="40.84828" lon="-3.95958">
        <ele>2347.68</ele>
        <time>2014-12-11T10:29:11Z</time>
      </trkpt>
      <trkpt lat="40.8483" lon="-3.9595">
        <ele>2349.6</ele>
        <time>2014-12-11T10:29:26Z</time>
      </trkpt>
      <trkpt lat="40.84829" lon="-3.95942">
        <ele>2350.08</ele>
        <time>2014-12-11T10:29:50Z</time>
      </trkpt>
      <trkpt lat="40.8483" lon="-3.95928">
        <ele>2353.44</ele>
        <time>2014-12-11T10:30:03Z</time>
      </trkpt>
      <trkpt lat="40.84831" lon="-3.95914">
        <ele>2355.85</ele>
        <time>2014-12-11T10:30:16Z</time>
      </trkpt>
      <trkpt lat="40.84832" lon="-3.95903">
        <ele>2358.25</ele>
        <time>2014-12-11T10:30:29Z</time>
      </trkpt>
      <trkpt lat="40.84834" lon="-3.95897">
        <ele>2359.69</ele>
        <time>2014-12-11T10:30:37Z</time>
      </trkpt>
      <trkpt lat="40.84834" lon="-3.9589">
        <ele>2361.14</ele>
        <time>2014-12-11T10:30:51Z</time>
      </trkpt>
      <trkpt lat="40.84834" lon="-3.95882">
        <ele>2362.1</ele>
        <time>2014-12-11T10:31:08Z</time>
      </trkpt>
      <trkpt lat="40.84844" lon="-3.95873">
        <ele>2364.5</ele>
        <time>2014-12-11T10:31:21Z</time>
      </trkpt>
      <trkpt lat="40.84845" lon="-3.95873">
        <ele>2364.98</ele>
        <time>2014-12-11T10:31:23Z</time>
      </trkpt>
      <trkpt lat="40.84854" lon="-3.95864">
        <ele>2366.9</ele>
        <time>2014-12-11T10:31:35Z</time>
      </trkpt>
      <trkpt lat="40.84859" lon="-3.95859">
        <ele>2369.31</ele>
        <time>2014-12-11T10:31:48Z</time>
      </trkpt>
      <trkpt lat="40.84863" lon="-3.95855">
        <ele>2370.27</ele>
        <time>2014-12-11T10:31:58Z</time>
      </trkpt>
      <trkpt lat="40.84863" lon="-3.95853">
        <ele>2370.75</ele>
        <time>2014-12-11T10:32:21Z</time>
      </trkpt>
      <trkpt lat="40.84871" lon="-3.95847">
        <ele>2373.15</ele>
        <time>2014-12-11T10:32:33Z</time>
      </trkpt>
      <trkpt lat="40.84877" lon="-3.9584">
        <ele>2375.55</ele>
        <time>2014-12-11T10:32:44Z</time>
      </trkpt>
      <trkpt lat="40.8488" lon="-3.95834">
        <ele>2377</ele>
        <time>2014-12-11T10:32:56Z</time>
      </trkpt>
      <trkpt lat="40.84886" lon="-3.9583">
        <ele>2377.96</ele>
        <time>2014-12-11T10:33:08Z</time>
      </trkpt>
      <trkpt lat="40.84893" lon="-3.95824">
        <ele>2380.36</ele>
        <time>2014-12-11T10:33:19Z</time>
      </trkpt>
      <trkpt lat="40.849" lon="-3.95817">
        <ele>2382.76</ele>
        <time>2014-12-11T10:33:33Z</time>
      </trkpt>
      <trkpt lat="40.84903" lon="-3.95811">
        <ele>2384.21</ele>
        <time>2014-12-11T10:33:59Z</time>
      </trkpt>
      <trkpt lat="40.84905" lon="-3.95802">
        <ele>2387.09</ele>
        <time>2014-12-11T10:34:11Z</time>
      </trkpt>
      <trkpt lat="40.84906" lon="-3.95792">
        <ele>2389.97</ele>
        <time>2014-12-11T10:34:25Z</time>
      </trkpt>
      <trkpt lat="40.84907" lon="-3.95783">
        <ele>2392.38</ele>
        <time>2014-12-11T10:34:38Z</time>
      </trkpt>
      <trkpt lat="40.84907" lon="-3.95775">
        <ele>2394.3</ele>
        <time>2014-12-11T10:34:50Z</time>
      </trkpt>
      <trkpt lat="40.84907" lon="-3.95773">
        <ele>2394.78</ele>
        <time>2014-12-11T10:35:04Z</time>
      </trkpt>
      <trkpt lat="40.84908" lon="-3.95767">
        <ele>2396.22</ele>
        <time>2014-12-11T10:35:14Z</time>
      </trkpt>
      <trkpt lat="40.84909" lon="-3.9576">
        <ele>2398.15</ele>
        <time>2014-12-11T10:35:26Z</time>
      </trkpt>
      <trkpt lat="40.84911" lon="-3.95755">
        <ele>2399.11</ele>
        <time>2014-12-11T10:35:34Z</time>
      </trkpt>
      <trkpt lat="40.84911" lon="-3.95751">
        <ele>2400.07</ele>
        <time>2014-12-11T10:35:37Z</time>
      </trkpt>
      <trkpt lat="40.84912" lon="-3.95747">
        <ele>2400.55</ele>
        <time>2014-12-11T10:35:41Z</time>
      </trkpt>
      <trkpt lat="40.84914" lon="-3.95735">
        <ele>2402.95</ele>
        <time>2014-12-11T10:35:54Z</time>
      </trkpt>
      <trkpt lat="40.84916" lon="-3.95733">
        <ele>2403.43</ele>
        <time>2014-12-11T10:35:57Z</time>
      </trkpt>
      <trkpt lat="40.84923" lon="-3.95724">
        <ele>2404.88</ele>
        <time>2014-12-11T10:36:10Z</time>
      </trkpt>
      <trkpt lat="40.84926" lon="-3.9572">
        <ele>2406.32</ele>
        <time>2014-12-11T10:36:17Z</time>
      </trkpt>
      <trkpt lat="40.8493" lon="-3.95716">
        <ele>2407.28</ele>
        <time>2014-12-11T10:36:23Z</time>
      </trkpt>
      <trkpt lat="40.84936" lon="-3.95706">
        <ele>2408.72</ele>
        <time>2014-12-11T10:36:35Z</time>
      </trkpt>
      <trkpt lat="40.84936" lon="-3.95705">
        <ele>2409.2</ele>
        <time>2014-12-11T10:36:54Z</time>
      </trkpt>
      <trkpt lat="40.84937" lon="-3.95702">
        <ele>2409.68</ele>
        <time>2014-12-11T10:36:57Z</time>
      </trkpt>
      <trkpt lat="40.84937" lon="-3.95699">
        <ele>2409.68</ele>
        <time>2014-12-11T10:36:59Z</time>
      </trkpt>
      <trkpt lat="40.84938" lon="-3.95695">
        <ele>2410.16</ele>
        <time>2014-12-11T10:37:03Z</time>
      </trkpt>
      <trkpt lat="40.84942" lon="-3.95688">
        <ele>2411.12</ele>
        <time>2014-12-11T10:37:09Z</time>
      </trkpt>
      <trkpt lat="40.84946" lon="-3.95686">
        <ele>2411.12</ele>
        <time>2014-12-11T10:37:14Z</time>
      </trkpt>
      <trkpt lat="40.8495" lon="-3.9568">
        <ele>2411.6</ele>
        <time>2014-12-11T10:37:19Z</time>
      </trkpt>
      <trkpt lat="40.84951" lon="-3.95677">
        <ele>2412.09</ele>
        <time>2014-12-11T10:37:21Z</time>
      </trkpt>
      <trkpt lat="40.84955" lon="-3.95668">
        <ele>2412.57</ele>
        <time>2014-12-11T10:37:30Z</time>
      </trkpt>
      <trkpt lat="40.84964" lon="-3.95661">
        <ele>2415.45</ele>
        <time>2014-12-11T10:37:44Z</time>
      </trkpt>
      <trkpt lat="40.8497" lon="-3.95655">
        <ele>2416.89</ele>
        <time>2014-12-11T10:37:54Z</time>
      </trkpt>
      <trkpt lat="40.84971" lon="-3.95654">
        <ele>2416.89</ele>
        <time>2014-12-11T10:37:55Z</time>
      </trkpt>
      <trkpt lat="40.84975" lon="-3.95652">
        <ele>2417.37</ele>
        <time>2014-12-11T10:37:59Z</time>
      </trkpt>
      <trkpt lat="40.84976" lon="-3.9565">
        <ele>2417.85</ele>
        <time>2014-12-11T10:38:01Z</time>
      </trkpt>
      <trkpt lat="40.84978" lon="-3.95646">
        <ele>2418.33</ele>
        <time>2014-12-11T10:38:04Z</time>
      </trkpt>
      <trkpt lat="40.84981" lon="-3.9564">
        <ele>2419.3</ele>
        <time>2014-12-11T10:38:11Z</time>
      </trkpt>
      <trkpt lat="40.84987" lon="-3.9563">
        <ele>2421.7</ele>
        <time>2014-12-11T10:38:23Z</time>
      </trkpt>
      <trkpt lat="40.84994" lon="-3.9562">
        <ele>2423.14</ele>
        <time>2014-12-11T10:38:35Z</time>
      </trkpt>
      <trkpt lat="40.85" lon="-3.95613">
        <ele>2425.06</ele>
        <time>2014-12-11T10:38:46Z</time>
      </trkpt>
      <trkpt lat="40.85001" lon="-3.95607">
        <ele>2426.99</ele>
        <time>2014-12-11T10:38:51Z</time>
      </trkpt>
      <trkpt lat="40.85003" lon="-3.95602">
        <ele>2427.47</ele>
        <time>2014-12-11T10:39:06Z</time>
      </trkpt>
      <trkpt lat="40.85001" lon="-3.95601">
        <ele>2428.43</ele>
        <time>2014-12-11T10:39:25Z</time>
      </trkpt>
      <trkpt lat="40.85" lon="-3.95603">
        <ele>2426.99</ele>
        <time>2014-12-11T10:39:38Z</time>
      </trkpt>
      <trkpt lat="40.85002" lon="-3.95599">
        <ele>2427.95</ele>
        <time>2014-12-11T10:39:50Z</time>
      </trkpt>
      <trkpt lat="40.85003" lon="-3.95601">
        <ele>2428.43</ele>
        <time>2014-12-11T10:40:00Z</time>
      </trkpt>
      <trkpt lat="40.85003" lon="-3.95601">
        <ele>2427.95</ele>
        <time>2014-12-11T10:40:25Z</time>
      </trkpt>
      <trkpt lat="40.85002" lon="-3.95598">
        <ele>2428.43</ele>
        <time>2014-12-11T10:40:48Z</time>
      </trkpt>
      <trkpt lat="40.85003" lon="-3.95597">
        <ele>2428.43</ele>
        <time>2014-12-11T10:41:17Z</time>
      </trkpt>
      <trkpt lat="40.85001" lon="-3.95596">
        <ele>2428.91</ele>
        <time>2014-12-11T10:41:37Z</time>
      </trkpt>
      <trkpt lat="40.85001" lon="-3.95599">
        <ele>2427.47</ele>
        <time>2014-12-11T10:41:42Z</time>
      </trkpt>
      <trkpt lat="40.85002" lon="-3.95595">
        <ele>2427.47</ele>
        <time>2014-12-11T10:41:49Z</time>
      </trkpt>
      <trkpt lat="40.85003" lon="-3.95584">
        <ele>2426.99</ele>
        <time>2014-12-11T10:42:02Z</time>
      </trkpt>
      <trkpt lat="40.84999" lon="-3.9558">
        <ele>2425.54</ele>
        <time>2014-12-11T10:42:13Z</time>
      </trkpt>
      <trkpt lat="40.84996" lon="-3.95577">
        <ele>2424.1</ele>
        <time>2014-12-11T10:42:25Z</time>
      </trkpt>
      <trkpt lat="40.84998" lon="-3.95576">
        <ele>2424.1</ele>
        <time>2014-12-11T10:42:31Z</time>
      </trkpt>
      <trkpt lat="40.84997" lon="-3.95578">
        <ele>2423.14</ele>
        <time>2014-12-11T10:42:43Z</time>
      </trkpt>
      <trkpt lat="40.84996" lon="-3.95578">
        <ele>2423.14</ele>
        <time>2014-12-11T10:43:19Z</time>
      </trkpt>
      <trkpt lat="40.84998" lon="-3.95579">
        <ele>2423.14</ele>
        <time>2014-12-11T10:43:46Z</time>
      </trkpt>
      <trkpt lat="40.84996" lon="-3.9558">
        <ele>2423.14</ele>
        <time>2014-12-11T10:44:22Z</time>
      </trkpt>
      <trkpt lat="40.84994" lon="-3.95581">
        <ele>2423.62</ele>
        <time>2014-12-11T10:44:59Z</time>
      </trkpt>
      <trkpt lat="40.84993" lon="-3.9558">
        <ele>2423.62</ele>
        <time>2014-12-11T10:45:43Z</time>
      </trkpt>
      <trkpt lat="40.84996" lon="-3.9558">
        <ele>2424.1</ele>
        <time>2014-12-11T10:46:28Z</time>
      </trkpt>
      <trkpt lat="40.84995" lon="-3.95581">
        <ele>2424.58</ele>
        <time>2014-12-11T10:47:09Z</time>
      </trkpt>
      <trkpt lat="40.84995" lon="-3.95581">
        <ele>2424.58</ele>
        <time>2014-12-11T10:47:44Z</time>
      </trkpt>
      <trkpt lat="40.84995" lon="-3.95581">
        <ele>2425.06</ele>
        <time>2014-12-11T10:48:30Z</time>
      </trkpt>
      <trkpt lat="40.84995" lon="-3.9558">
        <ele>2425.06</ele>
        <time>2014-12-11T10:49:18Z</time>
      </trkpt>
      <trkpt lat="40.84995" lon="-3.9558">
        <ele>2425.54</ele>
        <time>2014-12-11T10:49:55Z</time>
      </trkpt>
      <trkpt lat="40.84995" lon="-3.9558">
        <ele>2425.54</ele>
        <time>2014-12-11T10:50:39Z</time>
      </trkpt>
      <trkpt lat="40.84995" lon="-3.9558">
        <ele>2425.54</ele>
        <time>2014-12-11T10:51:24Z</time>
      </trkpt>
      <trkpt lat="40.84996" lon="-3.95579">
        <ele>2426.02</ele>
        <time>2014-12-11T10:52:07Z</time>
      </trkpt>
      <trkpt lat="40.84996" lon="-3.9558">
        <ele>2426.02</ele>
        <time>2014-12-11T10:52:51Z</time>
      </trkpt>
      <trkpt lat="40.84996" lon="-3.95581">
        <ele>2426.02</ele>
        <time>2014-12-11T10:53:34Z</time>
      </trkpt>
      <trkpt lat="40.84997" lon="-3.95581">
        <ele>2426.5</ele>
        <time>2014-12-11T10:54:24Z</time>
      </trkpt>
      <trkpt lat="40.84998" lon="-3.95579">
        <ele>2426.5</ele>
        <time>2014-12-11T10:55:06Z</time>
      </trkpt>
      <trkpt lat="40.84997" lon="-3.95578">
        <ele>2426.5</ele>
        <time>2014-12-11T10:55:51Z</time>
      </trkpt>
      <trkpt lat="40.84997" lon="-3.95579">
        <ele>2426.99</ele>
        <time>2014-12-11T10:56:45Z</time>
      </trkpt>
      <trkpt lat="40.84996" lon="-3.9558">
        <ele>2426.99</ele>
        <time>2014-12-11T10:57:27Z</time>
      </trkpt>
      <trkpt lat="40.84997" lon="-3.95579">
        <ele>2426.99</ele>
        <time>2014-12-11T10:58:12Z</time>
      </trkpt>
      <trkpt lat="40.84997" lon="-3.9558">
        <ele>2427.47</ele>
        <time>2014-12-11T10:58:51Z</time>
      </trkpt>
      <trkpt lat="40.84997" lon="-3.9558">
        <ele>2427.47</ele>
        <time>2014-12-11T10:59:33Z</time>
      </trkpt>
      <trkpt lat="40.84998" lon="-3.95581">
        <ele>2427.47</ele>
        <time>2014-12-11T11:00:14Z</time>
      </trkpt>
      <trkpt lat="40.84997" lon="-3.9558">
        <ele>2427.47</ele>
        <time>2014-12-11T11:00:47Z</time>
      </trkpt>
      <trkpt lat="40.84997" lon="-3.95579">
        <ele>2427.95</ele>
        <time>2014-12-11T11:01:29Z</time>
      </trkpt>
      <trkpt lat="40.84998" lon="-3.9558">
        <ele>2427.95</ele>
        <time>2014-12-11T11:02:09Z</time>
      </trkpt>
      <trkpt lat="40.84998" lon="-3.9558">
        <ele>2427.95</ele>
        <time>2014-12-11T11:02:53Z</time>
      </trkpt>
      <trkpt lat="40.84997" lon="-3.9558">
        <ele>2429.39</ele>
        <time>2014-12-11T11:03:20Z</time>
      </trkpt>
      <trkpt lat="40.84999" lon="-3.95581">
        <ele>2428.91</ele>
        <time>2014-12-11T11:03:36Z</time>
      </trkpt>
      <trkpt lat="40.85003" lon="-3.95579">
        <ele>2429.39</ele>
        <time>2014-12-11T11:03:48Z</time>
      </trkpt>
      <trkpt lat="40.85003" lon="-3.95585">
        <ele>2431.31</ele>
        <time>2014-12-11T11:04:00Z</time>
      </trkpt>
      <trkpt lat="40.85005" lon="-3.95588">
        <ele>2432.27</ele>
        <time>2014-12-11T11:04:05Z</time>
      </trkpt>
      <trkpt lat="40.85007" lon="-3.95591">
        <ele>2432.27</ele>
        <time>2014-12-11T11:04:17Z</time>
      </trkpt>
      <trkpt lat="40.85008" lon="-3.95593">
        <ele>2431.79</ele>
        <time>2014-12-11T11:04:40Z</time>
      </trkpt>
      <trkpt lat="40.8501" lon="-3.95594">
        <ele>2431.31</ele>
        <time>2014-12-11T11:04:42Z</time>
      </trkpt>
      <trkpt lat="40.85012" lon="-3.95598">
        <ele>2430.83</ele>
        <time>2014-12-11T11:04:46Z</time>
      </trkpt>
      <trkpt lat="40.85011" lon="-3.95612">
        <ele>2430.35</ele>
        <time>2014-12-11T11:04:59Z</time>
      </trkpt>
      <trkpt lat="40.85011" lon="-3.9561">
        <ele>2430.35</ele>
        <time>2014-12-11T11:05:11Z</time>
      </trkpt>
      <trkpt lat="40.8501" lon="-3.95609">
        <ele>2429.87</ele>
        <time>2014-12-11T11:05:23Z</time>
      </trkpt>
      <trkpt lat="40.85011" lon="-3.95612">
        <ele>2430.35</ele>
        <time>2014-12-11T11:05:41Z</time>
      </trkpt>
      <trkpt lat="40.85013" lon="-3.95612">
        <ele>2429.87</ele>
        <time>2014-12-11T11:05:58Z</time>
      </trkpt>
      <trkpt lat="40.85016" lon="-3.95603">
        <ele>2429.87</ele>
        <time>2014-12-11T11:06:06Z</time>
      </trkpt>
      <trkpt lat="40.85021" lon="-3.95602">
        <ele>2428.43</ele>
        <time>2014-12-11T11:06:14Z</time>
      </trkpt>
      <trkpt lat="40.85028" lon="-3.95614">
        <ele>2426.02</ele>
        <time>2014-12-11T11:06:27Z</time>
      </trkpt>
      <trkpt lat="40.85028" lon="-3.95616">
        <ele>2425.54</ele>
        <time>2014-12-11T11:06:28Z</time>
      </trkpt>
      <trkpt lat="40.85028" lon="-3.9562">
        <ele>2425.06</ele>
        <time>2014-12-11T11:06:32Z</time>
      </trkpt>
      <trkpt lat="40.85027" lon="-3.95622">
        <ele>2425.06</ele>
        <time>2014-12-11T11:06:34Z</time>
      </trkpt>
      <trkpt lat="40.85026" lon="-3.95624">
        <ele>2425.06</ele>
        <time>2014-12-11T11:06:36Z</time>
      </trkpt>
      <trkpt lat="40.85026" lon="-3.95627">
        <ele>2424.58</ele>
        <time>2014-12-11T11:06:38Z</time>
      </trkpt>
      <trkpt lat="40.85025" lon="-3.95633">
        <ele>2424.58</ele>
        <time>2014-12-11T11:06:42Z</time>
      </trkpt>
      <trkpt lat="40.85025" lon="-3.95635">
        <ele>2424.1</ele>
        <time>2014-12-11T11:06:44Z</time>
      </trkpt>
      <trkpt lat="40.85024" lon="-3.95645">
        <ele>2423.62</ele>
        <time>2014-12-11T11:06:51Z</time>
      </trkpt>
      <trkpt lat="40.85024" lon="-3.95647">
        <ele>2423.14</ele>
        <time>2014-12-11T11:06:53Z</time>
      </trkpt>
      <trkpt lat="40.85022" lon="-3.95655">
        <ele>2422.66</ele>
        <time>2014-12-11T11:06:59Z</time>
      </trkpt>
      <trkpt lat="40.85016" lon="-3.95664">
        <ele>2421.22</ele>
        <time>2014-12-11T11:07:08Z</time>
      </trkpt>
      <trkpt lat="40.85009" lon="-3.95675">
        <ele>2419.78</ele>
        <time>2014-12-11T11:07:19Z</time>
      </trkpt>
      <trkpt lat="40.85005" lon="-3.95678">
        <ele>2419.3</ele>
        <time>2014-12-11T11:07:24Z</time>
      </trkpt>
      <trkpt lat="40.85" lon="-3.95681">
        <ele>2418.81</ele>
        <time>2014-12-11T11:07:30Z</time>
      </trkpt>
      <trkpt lat="40.84991" lon="-3.95684">
        <ele>2418.33</ele>
        <time>2014-12-11T11:07:42Z</time>
      </trkpt>
      <trkpt lat="40.84983" lon="-3.95687">
        <ele>2417.85</ele>
        <time>2014-12-11T11:07:50Z</time>
      </trkpt>
      <trkpt lat="40.84978" lon="-3.95691">
        <ele>2417.37</ele>
        <time>2014-12-11T11:07:55Z</time>
      </trkpt>
      <trkpt lat="40.84977" lon="-3.95696">
        <ele>2416.89</ele>
        <time>2014-12-11T11:07:58Z</time>
      </trkpt>
      <trkpt lat="40.84975" lon="-3.95699">
        <ele>2416.89</ele>
        <time>2014-12-11T11:08:00Z</time>
      </trkpt>
      <trkpt lat="40.84974" lon="-3.95702">
        <ele>2416.41</ele>
        <time>2014-12-11T11:08:02Z</time>
      </trkpt>
      <trkpt lat="40.8497" lon="-3.95707">
        <ele>2415.93</ele>
        <time>2014-12-11T11:08:08Z</time>
      </trkpt>
      <trkpt lat="40.84968" lon="-3.9571">
        <ele>2415.93</ele>
        <time>2014-12-11T11:08:11Z</time>
      </trkpt>
      <trkpt lat="40.84965" lon="-3.95715">
        <ele>2415.45</ele>
        <time>2014-12-11T11:08:16Z</time>
      </trkpt>
      <trkpt lat="40.84955" lon="-3.9573">
        <ele>2412.09</ele>
        <time>2014-12-11T11:08:31Z</time>
      </trkpt>
      <trkpt lat="40.84946" lon="-3.95743">
        <ele>2410.16</ele>
        <time>2014-12-11T11:08:44Z</time>
      </trkpt>
      <trkpt lat="40.84933" lon="-3.9575">
        <ele>2407.76</ele>
        <time>2014-12-11T11:08:59Z</time>
      </trkpt>
      <trkpt lat="40.84925" lon="-3.95758">
        <ele>2405.84</ele>
        <time>2014-12-11T11:09:10Z</time>
      </trkpt>
      <trkpt lat="40.84915" lon="-3.95768">
        <ele>2402.47</ele>
        <time>2014-12-11T11:09:22Z</time>
      </trkpt>
      <trkpt lat="40.84909" lon="-3.95772">
        <ele>2400.55</ele>
        <time>2014-12-11T11:09:29Z</time>
      </trkpt>
      <trkpt lat="40.84902" lon="-3.95784">
        <ele>2397.18</ele>
        <time>2014-12-11T11:09:42Z</time>
      </trkpt>
      <trkpt lat="40.84904" lon="-3.958">
        <ele>2393.82</ele>
        <time>2014-12-11T11:09:55Z</time>
      </trkpt>
      <trkpt lat="40.84902" lon="-3.95809">
        <ele>2391.42</ele>
        <time>2014-12-11T11:10:02Z</time>
      </trkpt>
      <trkpt lat="40.84895" lon="-3.95818">
        <ele>2387.57</ele>
        <time>2014-12-11T11:10:14Z</time>
      </trkpt>
      <trkpt lat="40.84889" lon="-3.95825">
        <ele>2385.65</ele>
        <time>2014-12-11T11:10:23Z</time>
      </trkpt>
      <trkpt lat="40.84886" lon="-3.95827">
        <ele>2384.69</ele>
        <time>2014-12-11T11:10:27Z</time>
      </trkpt>
      <trkpt lat="40.84882" lon="-3.9583">
        <ele>2383.73</ele>
        <time>2014-12-11T11:10:31Z</time>
      </trkpt>
      <trkpt lat="40.8488" lon="-3.95832">
        <ele>2383.25</ele>
        <time>2014-12-11T11:10:34Z</time>
      </trkpt>
      <trkpt lat="40.84875" lon="-3.95844">
        <ele>2379.88</ele>
        <time>2014-12-11T11:10:46Z</time>
      </trkpt>
      <trkpt lat="40.84875" lon="-3.95853">
        <ele>2377.96</ele>
        <time>2014-12-11T11:10:53Z</time>
      </trkpt>
      <trkpt lat="40.84873" lon="-3.95865">
        <ele>2374.59</ele>
        <time>2014-12-11T11:11:03Z</time>
      </trkpt>
      <trkpt lat="40.84872" lon="-3.95866">
        <ele>2374.11</ele>
        <time>2014-12-11T11:11:04Z</time>
      </trkpt>
      <trkpt lat="40.84871" lon="-3.95874">
        <ele>2372.19</ele>
        <time>2014-12-11T11:11:10Z</time>
      </trkpt>
      <trkpt lat="40.84873" lon="-3.95884">
        <ele>2370.27</ele>
        <time>2014-12-11T11:11:18Z</time>
      </trkpt>
      <trkpt lat="40.8487" lon="-3.95889">
        <ele>2368.83</ele>
        <time>2014-12-11T11:11:24Z</time>
      </trkpt>
      <trkpt lat="40.8487" lon="-3.95892">
        <ele>2368.35</ele>
        <time>2014-12-11T11:11:26Z</time>
      </trkpt>
      <trkpt lat="40.84869" lon="-3.95898">
        <ele>2366.42</ele>
        <time>2014-12-11T11:11:31Z</time>
      </trkpt>
      <trkpt lat="40.84869" lon="-3.95912">
        <ele>2364.02</ele>
        <time>2014-12-11T11:11:40Z</time>
      </trkpt>
      <trkpt lat="40.84865" lon="-3.95927">
        <ele>2360.65</ele>
        <time>2014-12-11T11:11:52Z</time>
      </trkpt>
      <trkpt lat="40.84862" lon="-3.95935">
        <ele>2359.21</ele>
        <time>2014-12-11T11:11:58Z</time>
      </trkpt>
      <trkpt lat="40.84862" lon="-3.95941">
        <ele>2358.25</ele>
        <time>2014-12-11T11:12:02Z</time>
      </trkpt>
      <trkpt lat="40.8486" lon="-3.95956">
        <ele>2354.89</ele>
        <time>2014-12-11T11:12:13Z</time>
      </trkpt>
      <trkpt lat="40.84855" lon="-3.9597">
        <ele>2351.52</ele>
        <time>2014-12-11T11:12:23Z</time>
      </trkpt>
      <trkpt lat="40.84855" lon="-3.95973">
        <ele>2351.04</ele>
        <time>2014-12-11T11:12:25Z</time>
      </trkpt>
      <trkpt lat="40.84854" lon="-3.95979">
        <ele>2350.08</ele>
        <time>2014-12-11T11:12:29Z</time>
      </trkpt>
      <trkpt lat="40.84853" lon="-3.95986">
        <ele>2348.64</ele>
        <time>2014-12-11T11:12:34Z</time>
      </trkpt>
      <trkpt lat="40.84853" lon="-3.95989">
        <ele>2347.68</ele>
        <time>2014-12-11T11:12:36Z</time>
      </trkpt>
      <trkpt lat="40.84851" lon="-3.95996">
        <ele>2346.23</ele>
        <time>2014-12-11T11:12:41Z</time>
      </trkpt>
      <trkpt lat="40.8485" lon="-3.96002">
        <ele>2345.27</ele>
        <time>2014-12-11T11:12:45Z</time>
      </trkpt>
      <trkpt lat="40.8485" lon="-3.96004">
        <ele>2344.31</ele>
        <time>2014-12-11T11:12:47Z</time>
      </trkpt>
      <trkpt lat="40.84848" lon="-3.96017">
        <ele>2341.91</ele>
        <time>2014-12-11T11:12:55Z</time>
      </trkpt>
      <trkpt lat="40.84847" lon="-3.96024">
        <ele>2340.95</ele>
        <time>2014-12-11T11:13:00Z</time>
      </trkpt>
      <trkpt lat="40.84845" lon="-3.96039">
        <ele>2337.58</ele>
        <time>2014-12-11T11:13:11Z</time>
      </trkpt>
      <trkpt lat="40.84844" lon="-3.96045">
        <ele>2336.14</ele>
        <time>2014-12-11T11:13:15Z</time>
      </trkpt>
      <trkpt lat="40.84842" lon="-3.9606">
        <ele>2332.78</ele>
        <time>2014-12-11T11:13:25Z</time>
      </trkpt>
      <trkpt lat="40.84841" lon="-3.96073">
        <ele>2329.89</ele>
        <time>2014-12-11T11:13:34Z</time>
      </trkpt>
      <trkpt lat="40.84841" lon="-3.96085">
        <ele>2327.49</ele>
        <time>2014-12-11T11:13:43Z</time>
      </trkpt>
      <trkpt lat="40.84841" lon="-3.96091">
        <ele>2326.53</ele>
        <time>2014-12-11T11:13:47Z</time>
      </trkpt>
      <trkpt lat="40.84841" lon="-3.96099">
        <ele>2324.61</ele>
        <time>2014-12-11T11:13:53Z</time>
      </trkpt>
      <trkpt lat="40.8484" lon="-3.96115">
        <ele>2321.24</ele>
        <time>2014-12-11T11:14:04Z</time>
      </trkpt>
      <trkpt lat="40.8484" lon="-3.96131">
        <ele>2317.88</ele>
        <time>2014-12-11T11:14:14Z</time>
      </trkpt>
      <trkpt lat="40.8484" lon="-3.96133">
        <ele>2317.4</ele>
        <time>2014-12-11T11:14:15Z</time>
      </trkpt>
      <trkpt lat="40.84838" lon="-3.9615">
        <ele>2314.03</ele>
        <time>2014-12-11T11:14:27Z</time>
      </trkpt>
      <trkpt lat="40.84835" lon="-3.96169">
        <ele>2310.67</ele>
        <time>2014-12-11T11:14:38Z</time>
      </trkpt>
      <trkpt lat="40.84836" lon="-3.96174">
        <ele>2309.7</ele>
        <time>2014-12-11T11:14:42Z</time>
      </trkpt>
      <trkpt lat="40.84837" lon="-3.96194">
        <ele>2306.34</ele>
        <time>2014-12-11T11:14:55Z</time>
      </trkpt>
      <trkpt lat="40.84835" lon="-3.96202">
        <ele>2304.9</ele>
        <time>2014-12-11T11:15:00Z</time>
      </trkpt>
      <trkpt lat="40.84835" lon="-3.96207">
        <ele>2303.46</ele>
        <time>2014-12-11T11:15:04Z</time>
      </trkpt>
      <trkpt lat="40.84833" lon="-3.96221">
        <ele>2301.05</ele>
        <time>2014-12-11T11:15:13Z</time>
      </trkpt>
      <trkpt lat="40.84832" lon="-3.96225">
        <ele>2300.57</ele>
        <time>2014-12-11T11:15:15Z</time>
      </trkpt>
      <trkpt lat="40.84833" lon="-3.96231">
        <ele>2299.13</ele>
        <time>2014-12-11T11:15:19Z</time>
      </trkpt>
      <trkpt lat="40.84828" lon="-3.96247">
        <ele>2296.25</ele>
        <time>2014-12-11T11:15:30Z</time>
      </trkpt>
      <trkpt lat="40.8483" lon="-3.96256">
        <ele>2294.8</ele>
        <time>2014-12-11T11:15:35Z</time>
      </trkpt>
      <trkpt lat="40.8483" lon="-3.96271">
        <ele>2291.44</ele>
        <time>2014-12-11T11:15:44Z</time>
      </trkpt>
      <trkpt lat="40.8483" lon="-3.9628">
        <ele>2290</ele>
        <time>2014-12-11T11:15:50Z</time>
      </trkpt>
      <trkpt lat="40.8483" lon="-3.96287">
        <ele>2288.56</ele>
        <time>2014-12-11T11:15:54Z</time>
      </trkpt>
      <trkpt lat="40.8483" lon="-3.9629">
        <ele>2288.08</ele>
        <time>2014-12-11T11:15:56Z</time>
      </trkpt>
      <trkpt lat="40.84826" lon="-3.96307">
        <ele>2284.23</ele>
        <time>2014-12-11T11:16:07Z</time>
      </trkpt>
      <trkpt lat="40.84826" lon="-3.96313">
        <ele>2283.27</ele>
        <time>2014-12-11T11:16:11Z</time>
      </trkpt>
      <trkpt lat="40.84829" lon="-3.96333">
        <ele>2279.42</ele>
        <time>2014-12-11T11:16:24Z</time>
      </trkpt>
      <trkpt lat="40.84827" lon="-3.96351">
        <ele>2276.54</ele>
        <time>2014-12-11T11:16:35Z</time>
      </trkpt>
      <trkpt lat="40.84825" lon="-3.96363">
        <ele>2274.14</ele>
        <time>2014-12-11T11:16:42Z</time>
      </trkpt>
      <trkpt lat="40.84823" lon="-3.96369">
        <ele>2272.69</ele>
        <time>2014-12-11T11:16:46Z</time>
      </trkpt>
      <trkpt lat="40.84821" lon="-3.96378">
        <ele>2271.25</ele>
        <time>2014-12-11T11:16:52Z</time>
      </trkpt>
      <trkpt lat="40.84821" lon="-3.96397">
        <ele>2268.37</ele>
        <time>2014-12-11T11:17:04Z</time>
      </trkpt>
      <trkpt lat="40.8482" lon="-3.964">
        <ele>2267.41</ele>
        <time>2014-12-11T11:17:06Z</time>
      </trkpt>
      <trkpt lat="40.8482" lon="-3.96405">
        <ele>2266.45</ele>
        <time>2014-12-11T11:17:09Z</time>
      </trkpt>
      <trkpt lat="40.84818" lon="-3.96409">
        <ele>2265.96</ele>
        <time>2014-12-11T11:17:12Z</time>
      </trkpt>
      <trkpt lat="40.84818" lon="-3.96429">
        <ele>2262.6</ele>
        <time>2014-12-11T11:17:25Z</time>
      </trkpt>
      <trkpt lat="40.84818" lon="-3.96446">
        <ele>2259.24</ele>
        <time>2014-12-11T11:17:35Z</time>
      </trkpt>
      <trkpt lat="40.84816" lon="-3.96457">
        <ele>2257.79</ele>
        <time>2014-12-11T11:17:42Z</time>
      </trkpt>
      <trkpt lat="40.84816" lon="-3.96463">
        <ele>2256.83</ele>
        <time>2014-12-11T11:17:46Z</time>
      </trkpt>
      <trkpt lat="40.84816" lon="-3.96466">
        <ele>2256.35</ele>
        <time>2014-12-11T11:17:48Z</time>
      </trkpt>
      <trkpt lat="40.84816" lon="-3.96468">
        <ele>2255.87</ele>
        <time>2014-12-11T11:17:50Z</time>
      </trkpt>
      <trkpt lat="40.84817" lon="-3.96479">
        <ele>2253.95</ele>
        <time>2014-12-11T11:17:57Z</time>
      </trkpt>
      <trkpt lat="40.84819" lon="-3.96488">
        <ele>2251.54</ele>
        <time>2014-12-11T11:18:03Z</time>
      </trkpt>
      <trkpt lat="40.84825" lon="-3.96503">
        <ele>2249.14</ele>
        <time>2014-12-11T11:18:14Z</time>
      </trkpt>
      <trkpt lat="40.84824" lon="-3.96506">
        <ele>2248.66</ele>
        <time>2014-12-11T11:18:16Z</time>
      </trkpt>
      <trkpt lat="40.84829" lon="-3.96525">
        <ele>2245.3</ele>
        <time>2014-12-11T11:18:29Z</time>
      </trkpt>
      <trkpt lat="40.8483" lon="-3.96528">
        <ele>2244.82</ele>
        <time>2014-12-11T11:18:31Z</time>
      </trkpt>
      <trkpt lat="40.84833" lon="-3.96539">
        <ele>2242.89</ele>
        <time>2014-12-11T11:18:38Z</time>
      </trkpt>
      <trkpt lat="40.84835" lon="-3.96541">
        <ele>2241.93</ele>
        <time>2014-12-11T11:18:40Z</time>
      </trkpt>
      <trkpt lat="40.84837" lon="-3.96549">
        <ele>2240.97</ele>
        <time>2014-12-11T11:18:45Z</time>
      </trkpt>
      <trkpt lat="40.84837" lon="-3.96554">
        <ele>2239.53</ele>
        <time>2014-12-11T11:18:48Z</time>
      </trkpt>
      <trkpt lat="40.84841" lon="-3.96572">
        <ele>2236.64</ele>
        <time>2014-12-11T11:19:01Z</time>
      </trkpt>
      <trkpt lat="40.84842" lon="-3.96593">
        <ele>2233.28</ele>
        <time>2014-12-11T11:19:14Z</time>
      </trkpt>
      <trkpt lat="40.84843" lon="-3.96614">
        <ele>2230.4</ele>
        <time>2014-12-11T11:19:28Z</time>
      </trkpt>
      <trkpt lat="40.84848" lon="-3.96622">
        <ele>2228.95</ele>
        <time>2014-12-11T11:19:34Z</time>
      </trkpt>
      <trkpt lat="40.84852" lon="-3.96643">
        <ele>2225.59</ele>
        <time>2014-12-11T11:19:48Z</time>
      </trkpt>
      <trkpt lat="40.84853" lon="-3.96649">
        <ele>2224.63</ele>
        <time>2014-12-11T11:19:52Z</time>
      </trkpt>
      <trkpt lat="40.84857" lon="-3.96668">
        <ele>2221.74</ele>
        <time>2014-12-11T11:20:04Z</time>
      </trkpt>
      <trkpt lat="40.84857" lon="-3.9667">
        <ele>2221.26</ele>
        <time>2014-12-11T11:20:05Z</time>
      </trkpt>
      <trkpt lat="40.84858" lon="-3.96675">
        <ele>2220.3</ele>
        <time>2014-12-11T11:20:09Z</time>
      </trkpt>
      <trkpt lat="40.84857" lon="-3.96678">
        <ele>2219.82</ele>
        <time>2014-12-11T11:20:11Z</time>
      </trkpt>
      <trkpt lat="40.84856" lon="-3.96687">
        <ele>2218.86</ele>
        <time>2014-12-11T11:20:18Z</time>
      </trkpt>
      <trkpt lat="40.8486" lon="-3.96698">
        <ele>2217.9</ele>
        <time>2014-12-11T11:20:32Z</time>
      </trkpt>
      <trkpt lat="40.84862" lon="-3.96702">
        <ele>2216.46</ele>
        <time>2014-12-11T11:20:47Z</time>
      </trkpt>
      <trkpt lat="40.84864" lon="-3.96704">
        <ele>2216.94</ele>
        <time>2014-12-11T11:20:49Z</time>
      </trkpt>
      <trkpt lat="40.84868" lon="-3.96705">
        <ele>2216.94</ele>
        <time>2014-12-11T11:20:53Z</time>
      </trkpt>
      <trkpt lat="40.84874" lon="-3.96713">
        <ele>2215.01</ele>
        <time>2014-12-11T11:21:00Z</time>
      </trkpt>
      <trkpt lat="40.84877" lon="-3.96724">
        <ele>2213.57</ele>
        <time>2014-12-11T11:21:08Z</time>
      </trkpt>
      <trkpt lat="40.84879" lon="-3.96733">
        <ele>2212.13</ele>
        <time>2014-12-11T11:21:14Z</time>
      </trkpt>
      <trkpt lat="40.84882" lon="-3.96758">
        <ele>2209.73</ele>
        <time>2014-12-11T11:21:30Z</time>
      </trkpt>
      <trkpt lat="40.84886" lon="-3.96769">
        <ele>2208.29</ele>
        <time>2014-12-11T11:21:37Z</time>
      </trkpt>
      <trkpt lat="40.8489" lon="-3.96773">
        <ele>2207.81</ele>
        <time>2014-12-11T11:21:41Z</time>
      </trkpt>
      <trkpt lat="40.84901" lon="-3.96776">
        <ele>2205.88</ele>
        <time>2014-12-11T11:21:51Z</time>
      </trkpt>
      <trkpt lat="40.84913" lon="-3.96776">
        <ele>2203.96</ele>
        <time>2014-12-11T11:22:05Z</time>
      </trkpt>
      <trkpt lat="40.84923" lon="-3.96778">
        <ele>2201.08</ele>
        <time>2014-12-11T11:22:17Z</time>
      </trkpt>
      <trkpt lat="40.84929" lon="-3.96782">
        <ele>2199.63</ele>
        <time>2014-12-11T11:22:25Z</time>
      </trkpt>
      <trkpt lat="40.8494" lon="-3.96787">
        <ele>2196.27</ele>
        <time>2014-12-11T11:22:39Z</time>
      </trkpt>
      <trkpt lat="40.84948" lon="-3.96789">
        <ele>2193.39</ele>
        <time>2014-12-11T11:22:50Z</time>
      </trkpt>
      <trkpt lat="40.84947" lon="-3.96792">
        <ele>2193.39</ele>
        <time>2014-12-11T11:23:00Z</time>
      </trkpt>
      <trkpt lat="40.84948" lon="-3.96796">
        <ele>2193.39</ele>
        <time>2014-12-11T11:23:11Z</time>
      </trkpt>
      <trkpt lat="40.84949" lon="-3.96795">
        <ele>2193.39</ele>
        <time>2014-12-11T11:23:26Z</time>
      </trkpt>
      <trkpt lat="40.84949" lon="-3.96795">
        <ele>2192.42</ele>
        <time>2014-12-11T11:23:40Z</time>
      </trkpt>
      <trkpt lat="40.8495" lon="-3.96793">
        <ele>2192.42</ele>
        <time>2014-12-11T11:24:15Z</time>
      </trkpt>
      <trkpt lat="40.84949" lon="-3.96793">
        <ele>2191.94</ele>
        <time>2014-12-11T11:25:04Z</time>
      </trkpt>
      <trkpt lat="40.84949" lon="-3.96793">
        <ele>2191.94</ele>
        <time>2014-12-11T11:25:45Z</time>
      </trkpt>
      <trkpt lat="40.84949" lon="-3.96791">
        <ele>2192.42</ele>
        <time>2014-12-11T11:26:18Z</time>
      </trkpt>
      <trkpt lat="40.84949" lon="-3.9679">
        <ele>2192.42</ele>
        <time>2014-12-11T11:26:58Z</time>
      </trkpt>
      <trkpt lat="40.84948" lon="-3.96789">
        <ele>2193.87</ele>
        <time>2014-12-11T11:27:30Z</time>
      </trkpt>
      <trkpt lat="40.84948" lon="-3.96791">
        <ele>2193.87</ele>
        <time>2014-12-11T11:27:48Z</time>
      </trkpt>
      <trkpt lat="40.84947" lon="-3.96791">
        <ele>2193.87</ele>
        <time>2014-12-11T11:28:21Z</time>
      </trkpt>
      <trkpt lat="40.84949" lon="-3.96791">
        <ele>2193.87</ele>
        <time>2014-12-11T11:28:31Z</time>
      </trkpt>
      <trkpt lat="40.84959" lon="-3.96788">
        <ele>2190.5</ele>
        <time>2014-12-11T11:28:45Z</time>
      </trkpt>
      <trkpt lat="40.84967" lon="-3.96789">
        <ele>2188.1</ele>
        <time>2014-12-11T11:28:56Z</time>
      </trkpt>
      <trkpt lat="40.84975" lon="-3.96785">
        <ele>2185.21</ele>
        <time>2014-12-11T11:29:07Z</time>
      </trkpt>
      <trkpt lat="40.84981" lon="-3.96781">
        <ele>2183.77</ele>
        <time>2014-12-11T11:29:15Z</time>
      </trkpt>
      <trkpt lat="40.8499" lon="-3.96774">
        <ele>2181.37</ele>
        <time>2014-12-11T11:29:28Z</time>
      </trkpt>
      <trkpt lat="40.84993" lon="-3.96771">
        <ele>2180.89</ele>
        <time>2014-12-11T11:29:32Z</time>
      </trkpt>
      <trkpt lat="40.84999" lon="-3.96769">
        <ele>2178.48</ele>
        <time>2014-12-11T11:29:43Z</time>
      </trkpt>
      <trkpt lat="40.85005" lon="-3.96771">
        <ele>2175.12</ele>
        <time>2014-12-11T11:29:54Z</time>
      </trkpt>
      <trkpt lat="40.85009" lon="-3.96775">
        <ele>2172.72</ele>
        <time>2014-12-11T11:30:03Z</time>
      </trkpt>
      <trkpt lat="40.85016" lon="-3.9678">
        <ele>2169.35</ele>
        <time>2014-12-11T11:30:14Z</time>
      </trkpt>
      <trkpt lat="40.85018" lon="-3.9678">
        <ele>2168.39</ele>
        <time>2014-12-11T11:30:25Z</time>
      </trkpt>
      <trkpt lat="40.85019" lon="-3.96779">
        <ele>2169.35</ele>
        <time>2014-12-11T11:30:42Z</time>
      </trkpt>
      <trkpt lat="40.85025" lon="-3.96783">
        <ele>2166.47</ele>
        <time>2014-12-11T11:30:59Z</time>
      </trkpt>
      <trkpt lat="40.85028" lon="-3.96786">
        <ele>2164.06</ele>
        <time>2014-12-11T11:31:11Z</time>
      </trkpt>
      <trkpt lat="40.85037" lon="-3.96784">
        <ele>2160.7</ele>
        <time>2014-12-11T11:31:23Z</time>
      </trkpt>
      <trkpt lat="40.85043" lon="-3.96785">
        <ele>2157.82</ele>
        <time>2014-12-11T11:31:36Z</time>
      </trkpt>
      <trkpt lat="40.85048" lon="-3.96788">
        <ele>2154.93</ele>
        <time>2014-12-11T11:31:48Z</time>
      </trkpt>
      <trkpt lat="40.85055" lon="-3.96788">
        <ele>2152.53</ele>
        <time>2014-12-11T11:32:00Z</time>
      </trkpt>
      <trkpt lat="40.85062" lon="-3.96786">
        <ele>2149.65</ele>
        <time>2014-12-11T11:32:12Z</time>
      </trkpt>
      <trkpt lat="40.85069" lon="-3.96784">
        <ele>2146.76</ele>
        <time>2014-12-11T11:32:24Z</time>
      </trkpt>
      <trkpt lat="40.85076" lon="-3.96785">
        <ele>2143.4</ele>
        <time>2014-12-11T11:32:35Z</time>
      </trkpt>
      <trkpt lat="40.85085" lon="-3.96781">
        <ele>2140.99</ele>
        <time>2014-12-11T11:32:47Z</time>
      </trkpt>
      <trkpt lat="40.85092" lon="-3.96779">
        <ele>2137.63</ele>
        <time>2014-12-11T11:32:59Z</time>
      </trkpt>
      <trkpt lat="40.85092" lon="-3.9678">
        <ele>2137.63</ele>
        <time>2014-12-11T11:33:10Z</time>
      </trkpt>
      <trkpt lat="40.85094" lon="-3.96785">
        <ele>2135.71</ele>
        <time>2014-12-11T11:33:26Z</time>
      </trkpt>
      <trkpt lat="40.85098" lon="-3.96792">
        <ele>2133.3</ele>
        <time>2014-12-11T11:33:36Z</time>
      </trkpt>
      <trkpt lat="40.85103" lon="-3.96798">
        <ele>2129.94</ele>
        <time>2014-12-11T11:33:47Z</time>
      </trkpt>
      <trkpt lat="40.85108" lon="-3.96805">
        <ele>2127.05</ele>
        <time>2014-12-11T11:33:58Z</time>
      </trkpt>
      <trkpt lat="40.85114" lon="-3.96809">
        <ele>2123.69</ele>
        <time>2014-12-11T11:34:09Z</time>
      </trkpt>
      <trkpt lat="40.8512" lon="-3.96809">
        <ele>2121.29</ele>
        <time>2014-12-11T11:34:19Z</time>
      </trkpt>
      <trkpt lat="40.85126" lon="-3.9681">
        <ele>2118.4</ele>
        <time>2014-12-11T11:34:30Z</time>
      </trkpt>
      <trkpt lat="40.85131" lon="-3.96806">
        <ele>2116.48</ele>
        <time>2014-12-11T11:34:40Z</time>
      </trkpt>
      <trkpt lat="40.85135" lon="-3.96802">
        <ele>2114.08</ele>
        <time>2014-12-11T11:34:51Z</time>
      </trkpt>
      <trkpt lat="40.85138" lon="-3.96804">
        <ele>2111.67</ele>
        <time>2014-12-11T11:35:04Z</time>
      </trkpt>
      <trkpt lat="40.85142" lon="-3.96811">
        <ele>2108.31</ele>
        <time>2014-12-11T11:35:17Z</time>
      </trkpt>
      <trkpt lat="40.85149" lon="-3.96811">
        <ele>2105.91</ele>
        <time>2014-12-11T11:35:28Z</time>
      </trkpt>
      <trkpt lat="40.85153" lon="-3.96805">
        <ele>2103.98</ele>
        <time>2014-12-11T11:35:39Z</time>
      </trkpt>
      <trkpt lat="40.85156" lon="-3.96805">
        <ele>2102.06</ele>
        <time>2014-12-11T11:35:46Z</time>
      </trkpt>
      <trkpt lat="40.85159" lon="-3.96813">
        <ele>2098.7</ele>
        <time>2014-12-11T11:35:59Z</time>
      </trkpt>
      <trkpt lat="40.85164" lon="-3.96813">
        <ele>2095.81</ele>
        <time>2014-12-11T11:36:14Z</time>
      </trkpt>
      <trkpt lat="40.85166" lon="-3.96822">
        <ele>2092.93</ele>
        <time>2014-12-11T11:36:26Z</time>
      </trkpt>
      <trkpt lat="40.85166" lon="-3.96824">
        <ele>2092.45</ele>
        <time>2014-12-11T11:36:28Z</time>
      </trkpt>
      <trkpt lat="40.85169" lon="-3.96834">
        <ele>2090.04</ele>
        <time>2014-12-11T11:36:40Z</time>
      </trkpt>
      <trkpt lat="40.85168" lon="-3.96834">
        <ele>2090.04</ele>
        <time>2014-12-11T11:36:56Z</time>
      </trkpt>
      <trkpt lat="40.85174" lon="-3.96837">
        <ele>2088.12</ele>
        <time>2014-12-11T11:37:12Z</time>
      </trkpt>
      <trkpt lat="40.85178" lon="-3.96842">
        <ele>2085.24</ele>
        <time>2014-12-11T11:37:22Z</time>
      </trkpt>
      <trkpt lat="40.85182" lon="-3.96843">
        <ele>2082.83</ele>
        <time>2014-12-11T11:37:33Z</time>
      </trkpt>
      <trkpt lat="40.85185" lon="-3.96847">
        <ele>2079.95</ele>
        <time>2014-12-11T11:37:43Z</time>
      </trkpt>
      <trkpt lat="40.8519" lon="-3.96854">
        <ele>2077.07</ele>
        <time>2014-12-11T11:37:54Z</time>
      </trkpt>
      <trkpt lat="40.85191" lon="-3.96853">
        <ele>2076.59</ele>
        <time>2014-12-11T11:37:56Z</time>
      </trkpt>
      <trkpt lat="40.85198" lon="-3.96841">
        <ele>2073.7</ele>
        <time>2014-12-11T11:38:10Z</time>
      </trkpt>
      <trkpt lat="40.85203" lon="-3.96832">
        <ele>2070.82</ele>
        <time>2014-12-11T11:38:23Z</time>
      </trkpt>
      <trkpt lat="40.85205" lon="-3.96828">
        <ele>2068.89</ele>
        <time>2014-12-11T11:38:36Z</time>
      </trkpt>
      <trkpt lat="40.85209" lon="-3.96833">
        <ele>2066.01</ele>
        <time>2014-12-11T11:38:47Z</time>
      </trkpt>
      <trkpt lat="40.85213" lon="-3.96839">
        <ele>2063.13</ele>
        <time>2014-12-11T11:39:01Z</time>
      </trkpt>
      <trkpt lat="40.85216" lon="-3.96846">
        <ele>2061.2</ele>
        <time>2014-12-11T11:39:10Z</time>
      </trkpt>
      <trkpt lat="40.85221" lon="-3.96846">
        <ele>2058.8</ele>
        <time>2014-12-11T11:39:21Z</time>
      </trkpt>
      <trkpt lat="40.85227" lon="-3.96841">
        <ele>2055.44</ele>
        <time>2014-12-11T11:39:32Z</time>
      </trkpt>
      <trkpt lat="40.85231" lon="-3.96836">
        <ele>2052.55</ele>
        <time>2014-12-11T11:39:43Z</time>
      </trkpt>
      <trkpt lat="40.85233" lon="-3.96838">
        <ele>2051.59</ele>
        <time>2014-12-11T11:39:48Z</time>
      </trkpt>
      <trkpt lat="40.85233" lon="-3.96848">
        <ele>2050.15</ele>
        <time>2014-12-11T11:40:03Z</time>
      </trkpt>
      <trkpt lat="40.85235" lon="-3.96858">
        <ele>2047.26</ele>
        <time>2014-12-11T11:40:14Z</time>
      </trkpt>
      <trkpt lat="40.85241" lon="-3.96863">
        <ele>2043.9</ele>
        <time>2014-12-11T11:40:24Z</time>
      </trkpt>
      <trkpt lat="40.85244" lon="-3.96868">
        <ele>2041.02</ele>
        <time>2014-12-11T11:40:35Z</time>
      </trkpt>
      <trkpt lat="40.85249" lon="-3.96875">
        <ele>2038.13</ele>
        <time>2014-12-11T11:40:47Z</time>
      </trkpt>
      <trkpt lat="40.85253" lon="-3.96879">
        <ele>2035.25</ele>
        <time>2014-12-11T11:40:59Z</time>
      </trkpt>
      <trkpt lat="40.85258" lon="-3.96883">
        <ele>2032.36</ele>
        <time>2014-12-11T11:41:13Z</time>
      </trkpt>
      <trkpt lat="40.85261" lon="-3.96891">
        <ele>2029.48</ele>
        <time>2014-12-11T11:41:24Z</time>
      </trkpt>
      <trkpt lat="40.85261" lon="-3.96901">
        <ele>2027.08</ele>
        <time>2014-12-11T11:41:33Z</time>
      </trkpt>
      <trkpt lat="40.85265" lon="-3.96909">
        <ele>2025.64</ele>
        <time>2014-12-11T11:41:42Z</time>
      </trkpt>
      <trkpt lat="40.85269" lon="-3.96915">
        <ele>2023.71</ele>
        <time>2014-12-11T11:41:51Z</time>
      </trkpt>
      <trkpt lat="40.85274" lon="-3.96912">
        <ele>2022.27</ele>
        <time>2014-12-11T11:41:56Z</time>
      </trkpt>
      <trkpt lat="40.85276" lon="-3.96906">
        <ele>2021.79</ele>
        <time>2014-12-11T11:42:07Z</time>
      </trkpt>
      <trkpt lat="40.85277" lon="-3.96907">
        <ele>2019.87</ele>
        <time>2014-12-11T11:42:10Z</time>
      </trkpt>
      <trkpt lat="40.85281" lon="-3.96906">
        <ele>2018.43</ele>
        <time>2014-12-11T11:42:20Z</time>
      </trkpt>
      <trkpt lat="40.85282" lon="-3.96903">
        <ele>2017.46</ele>
        <time>2014-12-11T11:42:26Z</time>
      </trkpt>
      <trkpt lat="40.85284" lon="-3.96898">
        <ele>2015.54</ele>
        <time>2014-12-11T11:42:34Z</time>
      </trkpt>
      <trkpt lat="40.85286" lon="-3.96885">
        <ele>2015.06</ele>
        <time>2014-12-11T11:42:46Z</time>
      </trkpt>
      <trkpt lat="40.85288" lon="-3.9688">
        <ele>2013.14</ele>
        <time>2014-12-11T11:42:58Z</time>
      </trkpt>
      <trkpt lat="40.85292" lon="-3.96876">
        <ele>2011.7</ele>
        <time>2014-12-11T11:43:09Z</time>
      </trkpt>
      <trkpt lat="40.85294" lon="-3.96871">
        <ele>2009.77</ele>
        <time>2014-12-11T11:43:20Z</time>
      </trkpt>
      <trkpt lat="40.853" lon="-3.96868">
        <ele>2006.89</ele>
        <time>2014-12-11T11:43:32Z</time>
      </trkpt>
      <trkpt lat="40.85305" lon="-3.96862">
        <ele>2004.97</ele>
        <time>2014-12-11T11:43:43Z</time>
      </trkpt>
      <trkpt lat="40.85309" lon="-3.96864">
        <ele>2002.56</ele>
        <time>2014-12-11T11:43:55Z</time>
      </trkpt>
      <trkpt lat="40.85313" lon="-3.96866">
        <ele>2000.64</ele>
        <time>2014-12-11T11:44:03Z</time>
      </trkpt>
      <trkpt lat="40.85318" lon="-3.96867">
        <ele>1999.68</ele>
        <time>2014-12-11T11:44:09Z</time>
      </trkpt>
      <trkpt lat="40.85319" lon="-3.96871">
        <ele>1997.76</ele>
        <time>2014-12-11T11:44:15Z</time>
      </trkpt>
      <trkpt lat="40.85327" lon="-3.96873">
        <ele>1994.87</ele>
        <time>2014-12-11T11:44:27Z</time>
      </trkpt>
      <trkpt lat="40.85332" lon="-3.96866">
        <ele>1992.47</ele>
        <time>2014-12-11T11:44:38Z</time>
      </trkpt>
      <trkpt lat="40.85335" lon="-3.96858">
        <ele>1991.03</ele>
        <time>2014-12-11T11:44:50Z</time>
      </trkpt>
      <trkpt lat="40.85336" lon="-3.96859">
        <ele>1990.07</ele>
        <time>2014-12-11T11:44:55Z</time>
      </trkpt>
      <trkpt lat="40.85342" lon="-3.96857">
        <ele>1987.18</ele>
        <time>2014-12-11T11:45:09Z</time>
      </trkpt>
      <trkpt lat="40.85347" lon="-3.96858">
        <ele>1984.3</ele>
        <time>2014-12-11T11:45:21Z</time>
      </trkpt>
      <trkpt lat="40.85352" lon="-3.96856">
        <ele>1980.93</ele>
        <time>2014-12-11T11:45:33Z</time>
      </trkpt>
      <trkpt lat="40.85356" lon="-3.96856">
        <ele>1978.05</ele>
        <time>2014-12-11T11:45:44Z</time>
      </trkpt>
      <trkpt lat="40.85361" lon="-3.96857">
        <ele>1975.17</ele>
        <time>2014-12-11T11:45:56Z</time>
      </trkpt>
      <trkpt lat="40.85366" lon="-3.96859">
        <ele>1972.28</ele>
        <time>2014-12-11T11:46:06Z</time>
      </trkpt>
      <trkpt lat="40.8537" lon="-3.96858">
        <ele>1970.84</ele>
        <time>2014-12-11T11:46:12Z</time>
      </trkpt>
      <trkpt lat="40.85376" lon="-3.96853">
        <ele>1967.96</ele>
        <time>2014-12-11T11:46:23Z</time>
      </trkpt>
      <trkpt lat="40.85381" lon="-3.96853">
        <ele>1965.07</ele>
        <time>2014-12-11T11:46:35Z</time>
      </trkpt>
      <trkpt lat="40.85385" lon="-3.9686">
        <ele>1962.19</ele>
        <time>2014-12-11T11:46:47Z</time>
      </trkpt>
      <trkpt lat="40.85391" lon="-3.96862">
        <ele>1959.3</ele>
        <time>2014-12-11T11:46:58Z</time>
      </trkpt>
      <trkpt lat="40.85396" lon="-3.96863">
        <ele>1957.38</ele>
        <time>2014-12-11T11:47:05Z</time>
      </trkpt>
      <trkpt lat="40.85399" lon="-3.96862">
        <ele>1956.42</ele>
        <time>2014-12-11T11:47:10Z</time>
      </trkpt>
      <trkpt lat="40.85401" lon="-3.96863">
        <ele>1955.46</ele>
        <time>2014-12-11T11:47:13Z</time>
      </trkpt>
      <trkpt lat="40.85406" lon="-3.96869">
        <ele>1953.06</ele>
        <time>2014-12-11T11:47:22Z</time>
      </trkpt>
      <trkpt lat="40.85416" lon="-3.96869">
        <ele>1949.69</ele>
        <time>2014-12-11T11:47:35Z</time>
      </trkpt>
      <trkpt lat="40.8542" lon="-3.96874">
        <ele>1947.77</ele>
        <time>2014-12-11T11:47:43Z</time>
      </trkpt>
      <trkpt lat="40.8543" lon="-3.96877">
        <ele>1944.88</ele>
        <time>2014-12-11T11:47:55Z</time>
      </trkpt>
      <trkpt lat="40.85435" lon="-3.96876">
        <ele>1942.48</ele>
        <time>2014-12-11T11:48:07Z</time>
      </trkpt>
      <trkpt lat="40.85438" lon="-3.96875">
        <ele>1941.52</ele>
        <time>2014-12-11T11:48:13Z</time>
      </trkpt>
      <trkpt lat="40.85439" lon="-3.96876">
        <ele>1941.52</ele>
        <time>2014-12-11T11:48:27Z</time>
      </trkpt>
      <trkpt lat="40.8544" lon="-3.96878">
        <ele>1941.04</ele>
        <time>2014-12-11T11:48:29Z</time>
      </trkpt>
      <trkpt lat="40.85442" lon="-3.9688">
        <ele>1940.56</ele>
        <time>2014-12-11T11:48:32Z</time>
      </trkpt>
      <trkpt lat="40.85446" lon="-3.96884">
        <ele>1939.6</ele>
        <time>2014-12-11T11:48:37Z</time>
      </trkpt>
      <trkpt lat="40.8545" lon="-3.96893">
        <ele>1938.16</ele>
        <time>2014-12-11T11:48:46Z</time>
      </trkpt>
      <trkpt lat="40.85454" lon="-3.96895">
        <ele>1937.67</ele>
        <time>2014-12-11T11:48:50Z</time>
      </trkpt>
      <trkpt lat="40.85458" lon="-3.96902">
        <ele>1936.23</ele>
        <time>2014-12-11T11:48:57Z</time>
      </trkpt>
      <trkpt lat="40.85462" lon="-3.96907">
        <ele>1934.79</ele>
        <time>2014-12-11T11:49:03Z</time>
      </trkpt>
      <trkpt lat="40.85466" lon="-3.96913">
        <ele>1932.87</ele>
        <time>2014-12-11T11:49:10Z</time>
      </trkpt>
      <trkpt lat="40.85471" lon="-3.96916">
        <ele>1930.46</ele>
        <time>2014-12-11T11:49:22Z</time>
      </trkpt>
      <trkpt lat="40.85477" lon="-3.96919">
        <ele>1928.06</ele>
        <time>2014-12-11T11:49:34Z</time>
      </trkpt>
      <trkpt lat="40.85484" lon="-3.9692">
        <ele>1925.18</ele>
        <time>2014-12-11T11:49:45Z</time>
      </trkpt>
      <trkpt lat="40.85493" lon="-3.96925">
        <ele>1922.77</ele>
        <time>2014-12-11T11:49:56Z</time>
      </trkpt>
      <trkpt lat="40.85497" lon="-3.96927">
        <ele>1922.29</ele>
        <time>2014-12-11T11:50:00Z</time>
      </trkpt>
      <trkpt lat="40.85512" lon="-3.96921">
        <ele>1920.37</ele>
        <time>2014-12-11T11:50:13Z</time>
      </trkpt>
      <trkpt lat="40.85524" lon="-3.96915">
        <ele>1918.93</ele>
        <time>2014-12-11T11:50:26Z</time>
      </trkpt>
      <trkpt lat="40.85527" lon="-3.96914">
        <ele>1918.45</ele>
        <time>2014-12-11T11:50:32Z</time>
      </trkpt>
      <trkpt lat="40.8553" lon="-3.9691">
        <ele>1918.45</ele>
        <time>2014-12-11T11:50:36Z</time>
      </trkpt>
      <trkpt lat="40.8554" lon="-3.96905">
        <ele>1917.01</ele>
        <time>2014-12-11T11:50:49Z</time>
      </trkpt>
      <trkpt lat="40.85544" lon="-3.969">
        <ele>1916.04</ele>
        <time>2014-12-11T11:51:00Z</time>
      </trkpt>
      <trkpt lat="40.85545" lon="-3.96901">
        <ele>1915.56</ele>
        <time>2014-12-11T11:51:02Z</time>
      </trkpt>
      <trkpt lat="40.85549" lon="-3.96902">
        <ele>1914.6</ele>
        <time>2014-12-11T11:51:07Z</time>
      </trkpt>
      <trkpt lat="40.85551" lon="-3.96897">
        <ele>1914.12</ele>
        <time>2014-12-11T11:51:12Z</time>
      </trkpt>
      <trkpt lat="40.85553" lon="-3.96893">
        <ele>1913.64</ele>
        <time>2014-12-11T11:51:16Z</time>
      </trkpt>
      <trkpt lat="40.85559" lon="-3.9688">
        <ele>1912.2</ele>
        <time>2014-12-11T11:51:31Z</time>
      </trkpt>
      <trkpt lat="40.85565" lon="-3.96874">
        <ele>1910.76</ele>
        <time>2014-12-11T11:51:41Z</time>
      </trkpt>
      <trkpt lat="40.85566" lon="-3.96873">
        <ele>1910.76</ele>
        <time>2014-12-11T11:51:42Z</time>
      </trkpt>
      <trkpt lat="40.85574" lon="-3.96866">
        <ele>1909.8</ele>
        <time>2014-12-11T11:51:54Z</time>
      </trkpt>
      <trkpt lat="40.85583" lon="-3.96862">
        <ele>1908.83</ele>
        <time>2014-12-11T11:52:08Z</time>
      </trkpt>
      <trkpt lat="40.85591" lon="-3.96858">
        <ele>1907.87</ele>
        <time>2014-12-11T11:52:22Z</time>
      </trkpt>
      <trkpt lat="40.85592" lon="-3.96858">
        <ele>1907.87</ele>
        <time>2014-12-11T11:52:24Z</time>
      </trkpt>
      <trkpt lat="40.85594" lon="-3.96858">
        <ele>1907.39</ele>
        <time>2014-12-11T11:52:27Z</time>
      </trkpt>
      <trkpt lat="40.85601" lon="-3.9686">
        <ele>1906.91</ele>
        <time>2014-12-11T11:52:34Z</time>
      </trkpt>
      <trkpt lat="40.8561" lon="-3.9685">
        <ele>1906.43</ele>
        <time>2014-12-11T11:52:46Z</time>
      </trkpt>
      <trkpt lat="40.85617" lon="-3.96846">
        <ele>1905.47</ele>
        <time>2014-12-11T11:52:55Z</time>
      </trkpt>
      <trkpt lat="40.85618" lon="-3.96845">
        <ele>1904.99</ele>
        <time>2014-12-11T11:52:57Z</time>
      </trkpt>
      <trkpt lat="40.8562" lon="-3.96845">
        <ele>1904.99</ele>
        <time>2014-12-11T11:52:59Z</time>
      </trkpt>
      <trkpt lat="40.85627" lon="-3.96843">
        <ele>1904.99</ele>
        <time>2014-12-11T11:53:11Z</time>
      </trkpt>
      <trkpt lat="40.85627" lon="-3.96841">
        <ele>1904.99</ele>
        <time>2014-12-11T11:53:28Z</time>
      </trkpt>
      <trkpt lat="40.85626" lon="-3.96841">
        <ele>1904.03</ele>
        <time>2014-12-11T11:53:51Z</time>
      </trkpt>
      <trkpt lat="40.85624" lon="-3.96838">
        <ele>1903.55</ele>
        <time>2014-12-11T11:54:31Z</time>
      </trkpt>
      <trkpt lat="40.85627" lon="-3.96838">
        <ele>1903.55</ele>
        <time>2014-12-11T11:55:06Z</time>
      </trkpt>
      <trkpt lat="40.85625" lon="-3.96835">
        <ele>1903.55</ele>
        <time>2014-12-11T11:55:32Z</time>
      </trkpt>
      <trkpt lat="40.85625" lon="-3.96836">
        <ele>1903.55</ele>
        <time>2014-12-11T11:56:00Z</time>
      </trkpt>
      <trkpt lat="40.85625" lon="-3.96838">
        <ele>1903.07</ele>
        <time>2014-12-11T11:56:24Z</time>
      </trkpt>
      <trkpt lat="40.85626" lon="-3.96839">
        <ele>1903.07</ele>
        <time>2014-12-11T11:56:44Z</time>
      </trkpt>
      <trkpt lat="40.85626" lon="-3.96839">
        <ele>1903.07</ele>
        <time>2014-12-11T11:57:05Z</time>
      </trkpt>
      <trkpt lat="40.85623" lon="-3.9684">
        <ele>1903.07</ele>
        <time>2014-12-11T11:57:46Z</time>
      </trkpt>
      <trkpt lat="40.85624" lon="-3.9684">
        <ele>1903.07</ele>
        <time>2014-12-11T11:58:24Z</time>
      </trkpt>
      <trkpt lat="40.85624" lon="-3.96841">
        <ele>1904.03</ele>
        <time>2014-12-11T11:58:44Z</time>
      </trkpt>
      <trkpt lat="40.85626" lon="-3.96842">
        <ele>1904.03</ele>
        <time>2014-12-11T11:58:58Z</time>
      </trkpt>
      <trkpt lat="40.85628" lon="-3.96841">
        <ele>1904.03</ele>
        <time>2014-12-11T11:59:13Z</time>
      </trkpt>
      <trkpt lat="40.85627" lon="-3.96844">
        <ele>1904.03</ele>
        <time>2014-12-11T11:59:29Z</time>
      </trkpt>
      <trkpt lat="40.85624" lon="-3.96842">
        <ele>1903.55</ele>
        <time>2014-12-11T11:59:46Z</time>
      </trkpt>
      <trkpt lat="40.85624" lon="-3.96842">
        <ele>1903.55</ele>
        <time>2014-12-11T12:00:14Z</time>
      </trkpt>
      <trkpt lat="40.85624" lon="-3.96842">
        <ele>1903.55</ele>
        <time>2014-12-11T12:00:50Z</time>
      </trkpt>
      <trkpt lat="40.85625" lon="-3.9684">
        <ele>1903.55</ele>
        <time>2014-12-11T12:01:19Z</time>
      </trkpt>
      <trkpt lat="40.85623" lon="-3.96844">
        <ele>1903.55</ele>
        <time>2014-12-11T12:01:47Z</time>
      </trkpt>
      <trkpt lat="40.85625" lon="-3.96841">
        <ele>1904.03</ele>
        <time>2014-12-11T12:02:12Z</time>
      </trkpt>
      <trkpt lat="40.85627" lon="-3.96844">
        <ele>1904.03</ele>
        <time>2014-12-11T12:02:31Z</time>
      </trkpt>
      <trkpt lat="40.85625" lon="-3.96845">
        <ele>1904.03</ele>
        <time>2014-12-11T12:02:59Z</time>
      </trkpt>
      <trkpt lat="40.85629" lon="-3.96839">
        <ele>1904.03</ele>
        <time>2014-12-11T12:03:13Z</time>
      </trkpt>
      <trkpt lat="40.85628" lon="-3.96839">
        <ele>1904.03</ele>
        <time>2014-12-11T12:03:14Z</time>
      </trkpt>
      <trkpt lat="40.85626" lon="-3.96839">
        <ele>1902.59</ele>
        <time>2014-12-11T12:03:29Z</time>
      </trkpt>
      <trkpt lat="40.85626" lon="-3.96839">
        <ele>1902.59</ele>
        <time>2014-12-11T12:03:42Z</time>
      </trkpt>
      <trkpt lat="40.85628" lon="-3.96843">
        <ele>1904.03</ele>
        <time>2014-12-11T12:03:51Z</time>
      </trkpt>
      <trkpt lat="40.85628" lon="-3.9684">
        <ele>1904.03</ele>
        <time>2014-12-11T12:04:16Z</time>
      </trkpt>
      <trkpt lat="40.85628" lon="-3.96842">
        <ele>1904.03</ele>
        <time>2014-12-11T12:04:34Z</time>
      </trkpt>
      <trkpt lat="40.85629" lon="-3.96844">
        <ele>1903.55</ele>
        <time>2014-12-11T12:04:55Z</time>
      </trkpt>
      <trkpt lat="40.85636" lon="-3.96834">
        <ele>1901.63</ele>
        <time>2014-12-11T12:05:07Z</time>
      </trkpt>
      <trkpt lat="40.85637" lon="-3.96826">
        <ele>1900.66</ele>
        <time>2014-12-11T12:05:13Z</time>
      </trkpt>
      <trkpt lat="40.85654" lon="-3.9682">
        <ele>1898.74</ele>
        <time>2014-12-11T12:05:29Z</time>
      </trkpt>
      <trkpt lat="40.85664" lon="-3.96817">
        <ele>1897.3</ele>
        <time>2014-12-11T12:05:39Z</time>
      </trkpt>
      <trkpt lat="40.85672" lon="-3.96814">
        <ele>1895.38</ele>
        <time>2014-12-11T12:05:48Z</time>
      </trkpt>
      <trkpt lat="40.85675" lon="-3.96815">
        <ele>1894.9</ele>
        <time>2014-12-11T12:05:51Z</time>
      </trkpt>
      <trkpt lat="40.85679" lon="-3.96816">
        <ele>1894.42</ele>
        <time>2014-12-11T12:05:55Z</time>
      </trkpt>
      <trkpt lat="40.85683" lon="-3.96816">
        <ele>1893.45</ele>
        <time>2014-12-11T12:05:58Z</time>
      </trkpt>
      <trkpt lat="40.85689" lon="-3.96811">
        <ele>1892.97</ele>
        <time>2014-12-11T12:06:04Z</time>
      </trkpt>
      <trkpt lat="40.85691" lon="-3.96807">
        <ele>1892.97</ele>
        <time>2014-12-11T12:06:07Z</time>
      </trkpt>
      <trkpt lat="40.85693" lon="-3.96806">
        <ele>1892.97</ele>
        <time>2014-12-11T12:06:09Z</time>
      </trkpt>
      <trkpt lat="40.85699" lon="-3.96798">
        <ele>1893.45</ele>
        <time>2014-12-11T12:06:17Z</time>
      </trkpt>
      <trkpt lat="40.85705" lon="-3.96794">
        <ele>1893.45</ele>
        <time>2014-12-11T12:06:24Z</time>
      </trkpt>
      <trkpt lat="40.85707" lon="-3.96788">
        <ele>1893.45</ele>
        <time>2014-12-11T12:06:28Z</time>
      </trkpt>
      <trkpt lat="40.85712" lon="-3.96773">
        <ele>1894.42</ele>
        <time>2014-12-11T12:06:41Z</time>
      </trkpt>
      <trkpt lat="40.85713" lon="-3.96772">
        <ele>1894.9</ele>
        <time>2014-12-11T12:06:42Z</time>
      </trkpt>
      <trkpt lat="40.85714" lon="-3.96771">
        <ele>1894.9</ele>
        <time>2014-12-11T12:06:44Z</time>
      </trkpt>
      <trkpt lat="40.85716" lon="-3.9677">
        <ele>1894.42</ele>
        <time>2014-12-11T12:06:46Z</time>
      </trkpt>
      <trkpt lat="40.85718" lon="-3.96764">
        <ele>1894.42</ele>
        <time>2014-12-11T12:06:51Z</time>
      </trkpt>
      <trkpt lat="40.85726" lon="-3.96752">
        <ele>1893.93</ele>
        <time>2014-12-11T12:07:06Z</time>
      </trkpt>
      <trkpt lat="40.85731" lon="-3.96747">
        <ele>1892.97</ele>
        <time>2014-12-11T12:07:14Z</time>
      </trkpt>
      <trkpt lat="40.85735" lon="-3.96743">
        <ele>1892.01</ele>
        <time>2014-12-11T12:07:20Z</time>
      </trkpt>
      <trkpt lat="40.85738" lon="-3.96744">
        <ele>1891.53</ele>
        <time>2014-12-11T12:07:24Z</time>
      </trkpt>
      <trkpt lat="40.85739" lon="-3.96744">
        <ele>1891.05</ele>
        <time>2014-12-11T12:07:26Z</time>
      </trkpt>
      <trkpt lat="40.85742" lon="-3.96743">
        <ele>1891.05</ele>
        <time>2014-12-11T12:07:28Z</time>
      </trkpt>
      <trkpt lat="40.85743" lon="-3.96741">
        <ele>1891.05</ele>
        <time>2014-12-11T12:07:30Z</time>
      </trkpt>
      <trkpt lat="40.85747" lon="-3.96733">
        <ele>1892.49</ele>
        <time>2014-12-11T12:07:41Z</time>
      </trkpt>
      <trkpt lat="40.85751" lon="-3.96724">
        <ele>1894.42</ele>
        <time>2014-12-11T12:07:53Z</time>
      </trkpt>
      <trkpt lat="40.85756" lon="-3.96711">
        <ele>1895.86</ele>
        <time>2014-12-11T12:08:07Z</time>
      </trkpt>
      <trkpt lat="40.85757" lon="-3.96709">
        <ele>1895.86</ele>
        <time>2014-12-11T12:08:09Z</time>
      </trkpt>
      <trkpt lat="40.85762" lon="-3.96697">
        <ele>1896.82</ele>
        <time>2014-12-11T12:08:22Z</time>
      </trkpt>
      <trkpt lat="40.85763" lon="-3.96695">
        <ele>1896.82</ele>
        <time>2014-12-11T12:08:24Z</time>
      </trkpt>
      <trkpt lat="40.85765" lon="-3.96692">
        <ele>1896.82</ele>
        <time>2014-12-11T12:08:27Z</time>
      </trkpt>
      <trkpt lat="40.85771" lon="-3.9669">
        <ele>1896.82</ele>
        <time>2014-12-11T12:08:44Z</time>
      </trkpt>
      <trkpt lat="40.85771" lon="-3.96691">
        <ele>1896.82</ele>
        <time>2014-12-11T12:08:55Z</time>
      </trkpt>
      <trkpt lat="40.85776" lon="-3.96694">
        <ele>1896.34</ele>
        <time>2014-12-11T12:09:00Z</time>
      </trkpt>
      <trkpt lat="40.85796" lon="-3.96698">
        <ele>1894.42</ele>
        <time>2014-12-11T12:09:18Z</time>
      </trkpt>
      <trkpt lat="40.85802" lon="-3.96697">
        <ele>1893.93</ele>
        <time>2014-12-11T12:09:23Z</time>
      </trkpt>
      <trkpt lat="40.85817" lon="-3.96692">
        <ele>1892.49</ele>
        <time>2014-12-11T12:09:39Z</time>
      </trkpt>
      <trkpt lat="40.85834" lon="-3.96686">
        <ele>1891.53</ele>
        <time>2014-12-11T12:09:53Z</time>
      </trkpt>
      <trkpt lat="40.85841" lon="-3.9668">
        <ele>1891.05</ele>
        <time>2014-12-11T12:10:00Z</time>
      </trkpt>
      <trkpt lat="40.85849" lon="-3.96676">
        <ele>1890.57</ele>
        <time>2014-12-11T12:10:08Z</time>
      </trkpt>
      <trkpt lat="40.85852" lon="-3.96668">
        <ele>1890.57</ele>
        <time>2014-12-11T12:10:16Z</time>
      </trkpt>
      <trkpt lat="40.85855" lon="-3.9667">
        <ele>1892.49</ele>
        <time>2014-12-11T12:10:21Z</time>
      </trkpt>
      <trkpt lat="40.85861" lon="-3.9667">
        <ele>1890.57</ele>
        <time>2014-12-11T12:10:28Z</time>
      </trkpt>
      <trkpt lat="40.8588" lon="-3.96665">
        <ele>1889.61</ele>
        <time>2014-12-11T12:10:43Z</time>
      </trkpt>
      <trkpt lat="40.85882" lon="-3.96661">
        <ele>1889.61</ele>
        <time>2014-12-11T12:10:47Z</time>
      </trkpt>
      <trkpt lat="40.85883" lon="-3.96659">
        <ele>1889.61</ele>
        <time>2014-12-11T12:10:49Z</time>
      </trkpt>
      <trkpt lat="40.859" lon="-3.96657">
        <ele>1887.69</ele>
        <time>2014-12-11T12:11:04Z</time>
      </trkpt>
      <trkpt lat="40.85905" lon="-3.96655">
        <ele>1887.21</ele>
        <time>2014-12-11T12:11:09Z</time>
      </trkpt>
      <trkpt lat="40.85909" lon="-3.96649">
        <ele>1886.24</ele>
        <time>2014-12-11T12:11:17Z</time>
      </trkpt>
      <trkpt lat="40.85913" lon="-3.96649">
        <ele>1885.76</ele>
        <time>2014-12-11T12:11:23Z</time>
      </trkpt>
      <trkpt lat="40.85922" lon="-3.96646">
        <ele>1884.8</ele>
        <time>2014-12-11T12:11:33Z</time>
      </trkpt>
      <trkpt lat="40.85939" lon="-3.96641">
        <ele>1883.36</ele>
        <time>2014-12-11T12:11:49Z</time>
      </trkpt>
      <trkpt lat="40.85946" lon="-3.96641">
        <ele>1882.88</ele>
        <time>2014-12-11T12:11:55Z</time>
      </trkpt>
      <trkpt lat="40.85951" lon="-3.96638">
        <ele>1882.4</ele>
        <time>2014-12-11T12:12:00Z</time>
      </trkpt>
      <trkpt lat="40.85956" lon="-3.96635">
        <ele>1881.92</ele>
        <time>2014-12-11T12:12:09Z</time>
      </trkpt>
      <trkpt lat="40.85958" lon="-3.96628">
        <ele>1881.44</ele>
        <time>2014-12-11T12:12:15Z</time>
      </trkpt>
      <trkpt lat="40.8596" lon="-3.96626">
        <ele>1881.44</ele>
        <time>2014-12-11T12:12:17Z</time>
      </trkpt>
      <trkpt lat="40.85962" lon="-3.96626">
        <ele>1881.44</ele>
        <time>2014-12-11T12:12:20Z</time>
      </trkpt>
      <trkpt lat="40.85965" lon="-3.96623">
        <ele>1881.92</ele>
        <time>2014-12-11T12:12:24Z</time>
      </trkpt>
      <trkpt lat="40.85966" lon="-3.96619">
        <ele>1881.44</ele>
        <time>2014-12-11T12:12:27Z</time>
      </trkpt>
      <trkpt lat="40.85967" lon="-3.96616">
        <ele>1881.44</ele>
        <time>2014-12-11T12:12:29Z</time>
      </trkpt>
      <trkpt lat="40.8597" lon="-3.96621">
        <ele>1881.92</ele>
        <time>2014-12-11T12:12:42Z</time>
      </trkpt>
      <trkpt lat="40.85986" lon="-3.96627">
        <ele>1881.44</ele>
        <time>2014-12-11T12:12:58Z</time>
      </trkpt>
      <trkpt lat="40.85987" lon="-3.96627">
        <ele>1881.44</ele>
        <time>2014-12-11T12:12:59Z</time>
      </trkpt>
      <trkpt lat="40.86003" lon="-3.96621">
        <ele>1881.92</ele>
        <time>2014-12-11T12:13:15Z</time>
      </trkpt>
      <trkpt lat="40.86013" lon="-3.96618">
        <ele>1881.92</ele>
        <time>2014-12-11T12:13:25Z</time>
      </trkpt>
      <trkpt lat="40.86024" lon="-3.96615">
        <ele>1881.92</ele>
        <time>2014-12-11T12:13:36Z</time>
      </trkpt>
      <trkpt lat="40.86039" lon="-3.96608">
        <ele>1881.44</ele>
        <time>2014-12-11T12:13:50Z</time>
      </trkpt>
      <trkpt lat="40.8605" lon="-3.96609">
        <ele>1880.96</ele>
        <time>2014-12-11T12:14:01Z</time>
      </trkpt>
      <trkpt lat="40.86062" lon="-3.96614">
        <ele>1880</ele>
        <time>2014-12-11T12:14:15Z</time>
      </trkpt>
      <trkpt lat="40.86066" lon="-3.96614">
        <ele>1880</ele>
        <time>2014-12-11T12:14:18Z</time>
      </trkpt>
      <trkpt lat="40.8607" lon="-3.96614">
        <ele>1879.51</ele>
        <time>2014-12-11T12:14:22Z</time>
      </trkpt>
      <trkpt lat="40.86078" lon="-3.96611">
        <ele>1879.51</ele>
        <time>2014-12-11T12:14:32Z</time>
      </trkpt>
      <trkpt lat="40.8608" lon="-3.96611">
        <ele>1879.03</ele>
        <time>2014-12-11T12:14:35Z</time>
      </trkpt>
      <trkpt lat="40.86084" lon="-3.96612">
        <ele>1879.03</ele>
        <time>2014-12-11T12:14:38Z</time>
      </trkpt>
      <trkpt lat="40.86089" lon="-3.96613">
        <ele>1878.55</ele>
        <time>2014-12-11T12:14:44Z</time>
      </trkpt>
      <trkpt lat="40.86092" lon="-3.96615">
        <ele>1877.59</ele>
        <time>2014-12-11T12:14:47Z</time>
      </trkpt>
      <trkpt lat="40.86098" lon="-3.9662">
        <ele>1876.63</ele>
        <time>2014-12-11T12:14:55Z</time>
      </trkpt>
      <trkpt lat="40.86114" lon="-3.96625">
        <ele>1874.71</ele>
        <time>2014-12-11T12:15:10Z</time>
      </trkpt>
      <trkpt lat="40.86116" lon="-3.96625">
        <ele>1874.71</ele>
        <time>2014-12-11T12:15:12Z</time>
      </trkpt>
      <trkpt lat="40.86127" lon="-3.96635">
        <ele>1874.23</ele>
        <time>2014-12-11T12:15:25Z</time>
      </trkpt>
      <trkpt lat="40.86131" lon="-3.96636">
        <ele>1874.23</ele>
        <time>2014-12-11T12:15:29Z</time>
      </trkpt>
      <trkpt lat="40.86134" lon="-3.9664">
        <ele>1874.23</ele>
        <time>2014-12-11T12:15:33Z</time>
      </trkpt>
      <trkpt lat="40.86136" lon="-3.96656">
        <ele>1872.79</ele>
        <time>2014-12-11T12:15:46Z</time>
      </trkpt>
      <trkpt lat="40.86139" lon="-3.96664">
        <ele>1871.82</ele>
        <time>2014-12-11T12:15:52Z</time>
      </trkpt>
      <trkpt lat="40.86141" lon="-3.96669">
        <ele>1871.82</ele>
        <time>2014-12-11T12:15:56Z</time>
      </trkpt>
      <trkpt lat="40.86151" lon="-3.96684">
        <ele>1870.86</ele>
        <time>2014-12-11T12:16:13Z</time>
      </trkpt>
      <trkpt lat="40.86152" lon="-3.96687">
        <ele>1870.86</ele>
        <time>2014-12-11T12:16:28Z</time>
      </trkpt>
      <trkpt lat="40.86152" lon="-3.96689">
        <ele>1871.34</ele>
        <time>2014-12-11T12:16:30Z</time>
      </trkpt>
      <trkpt lat="40.86151" lon="-3.96694">
        <ele>1870.38</ele>
        <time>2014-12-11T12:16:34Z</time>
      </trkpt>
      <trkpt lat="40.86152" lon="-3.96717">
        <ele>1867.98</ele>
        <time>2014-12-11T12:16:51Z</time>
      </trkpt>
      <trkpt lat="40.86153" lon="-3.96731">
        <ele>1867.02</ele>
        <time>2014-12-11T12:17:01Z</time>
      </trkpt>
      <trkpt lat="40.86157" lon="-3.96737">
        <ele>1866.54</ele>
        <time>2014-12-11T12:17:06Z</time>
      </trkpt>
      <trkpt lat="40.8616" lon="-3.96739">
        <ele>1866.06</ele>
        <time>2014-12-11T12:17:09Z</time>
      </trkpt>
      <trkpt lat="40.86174" lon="-3.96754">
        <ele>1863.65</ele>
        <time>2014-12-11T12:17:25Z</time>
      </trkpt>
      <trkpt lat="40.86188" lon="-3.96744">
        <ele>1862.69</ele>
        <time>2014-12-11T12:17:36Z</time>
      </trkpt>
      <trkpt lat="40.86209" lon="-3.9673">
        <ele>1861.73</ele>
        <time>2014-12-11T12:17:55Z</time>
      </trkpt>
      <trkpt lat="40.86225" lon="-3.96713">
        <ele>1861.25</ele>
        <time>2014-12-11T12:18:12Z</time>
      </trkpt>
      <trkpt lat="40.86246" lon="-3.96708">
        <ele>1860.29</ele>
        <time>2014-12-11T12:18:30Z</time>
      </trkpt>
      <trkpt lat="40.86257" lon="-3.96704">
        <ele>1859.33</ele>
        <time>2014-12-11T12:18:40Z</time>
      </trkpt>
      <trkpt lat="40.86273" lon="-3.96704">
        <ele>1857.89</ele>
        <time>2014-12-11T12:18:54Z</time>
      </trkpt>
      <trkpt lat="40.86277" lon="-3.96701">
        <ele>1857.89</ele>
        <time>2014-12-11T12:18:58Z</time>
      </trkpt>
      <trkpt lat="40.86281" lon="-3.967">
        <ele>1857.4</ele>
        <time>2014-12-11T12:19:01Z</time>
      </trkpt>
      <trkpt lat="40.86293" lon="-3.96687">
        <ele>1857.4</ele>
        <time>2014-12-11T12:19:17Z</time>
      </trkpt>
      <trkpt lat="40.86295" lon="-3.96687">
        <ele>1857.4</ele>
        <time>2014-12-11T12:19:19Z</time>
      </trkpt>
      <trkpt lat="40.86302" lon="-3.96685">
        <ele>1856.92</ele>
        <time>2014-12-11T12:19:26Z</time>
      </trkpt>
      <trkpt lat="40.86312" lon="-3.9668">
        <ele>1856.44</ele>
        <time>2014-12-11T12:19:36Z</time>
      </trkpt>
      <trkpt lat="40.86324" lon="-3.96673">
        <ele>1855.48</ele>
        <time>2014-12-11T12:19:51Z</time>
      </trkpt>
      <trkpt lat="40.8634" lon="-3.9667">
        <ele>1855.96</ele>
        <time>2014-12-11T12:20:06Z</time>
      </trkpt>
      <trkpt lat="40.8635" lon="-3.96667">
        <ele>1855.48</ele>
        <time>2014-12-11T12:20:17Z</time>
      </trkpt>
      <trkpt lat="40.86357" lon="-3.96664">
        <ele>1855.48</ele>
        <time>2014-12-11T12:20:29Z</time>
      </trkpt>
      <trkpt lat="40.86365" lon="-3.9667">
        <ele>1855.48</ele>
        <time>2014-12-11T12:20:41Z</time>
      </trkpt>
      <trkpt lat="40.86368" lon="-3.96669">
        <ele>1855</ele>
        <time>2014-12-11T12:20:45Z</time>
      </trkpt>
      <trkpt lat="40.86381" lon="-3.96668">
        <ele>1854.52</ele>
        <time>2014-12-11T12:20:59Z</time>
      </trkpt>
      <trkpt lat="40.86388" lon="-3.96664">
        <ele>1855</ele>
        <time>2014-12-11T12:21:11Z</time>
      </trkpt>
      <trkpt lat="40.86391" lon="-3.96665">
        <ele>1855</ele>
        <time>2014-12-11T12:21:15Z</time>
      </trkpt>
      <trkpt lat="40.86393" lon="-3.96669">
        <ele>1854.52</ele>
        <time>2014-12-11T12:21:19Z</time>
      </trkpt>
      <trkpt lat="40.864" lon="-3.96677">
        <ele>1854.04</ele>
        <time>2014-12-11T12:21:27Z</time>
      </trkpt>
      <trkpt lat="40.86406" lon="-3.96682">
        <ele>1854.04</ele>
        <time>2014-12-11T12:21:33Z</time>
      </trkpt>
      <trkpt lat="40.86415" lon="-3.96687">
        <ele>1854.04</ele>
        <time>2014-12-11T12:21:42Z</time>
      </trkpt>
      <trkpt lat="40.8644" lon="-3.96688">
        <ele>1853.08</ele>
        <time>2014-12-11T12:22:03Z</time>
      </trkpt>
      <trkpt lat="40.86446" lon="-3.96689">
        <ele>1852.12</ele>
        <time>2014-12-11T12:22:15Z</time>
      </trkpt>
      <trkpt lat="40.8645" lon="-3.96695">
        <ele>1851.16</ele>
        <time>2014-12-11T12:22:27Z</time>
      </trkpt>
      <trkpt lat="40.86451" lon="-3.96696">
        <ele>1850.68</ele>
        <time>2014-12-11T12:22:29Z</time>
      </trkpt>
      <trkpt lat="40.86452" lon="-3.96696">
        <ele>1850.68</ele>
        <time>2014-12-11T12:22:31Z</time>
      </trkpt>
      <trkpt lat="40.86456" lon="-3.967">
        <ele>1850.19</ele>
        <time>2014-12-11T12:22:39Z</time>
      </trkpt>
      <trkpt lat="40.8646" lon="-3.96702">
        <ele>1850.19</ele>
        <time>2014-12-11T12:22:44Z</time>
      </trkpt>
      <trkpt lat="40.86464" lon="-3.96702">
        <ele>1850.19</ele>
        <time>2014-12-11T12:22:49Z</time>
      </trkpt>
      <trkpt lat="40.86472" lon="-3.96699">
        <ele>1849.23</ele>
        <time>2014-12-11T12:23:01Z</time>
      </trkpt>
      <trkpt lat="40.86474" lon="-3.967">
        <ele>1849.23</ele>
        <time>2014-12-11T12:23:04Z</time>
      </trkpt>
      <trkpt lat="40.86487" lon="-3.96706">
        <ele>1847.31</ele>
        <time>2014-12-11T12:23:20Z</time>
      </trkpt>
      <trkpt lat="40.86496" lon="-3.96705">
        <ele>1847.79</ele>
        <time>2014-12-11T12:23:31Z</time>
      </trkpt>
      <trkpt lat="40.86502" lon="-3.96705">
        <ele>1847.31</ele>
        <time>2014-12-11T12:23:39Z</time>
      </trkpt>
      <trkpt lat="40.86514" lon="-3.96708">
        <ele>1846.35</ele>
        <time>2014-12-11T12:23:56Z</time>
      </trkpt>
      <trkpt lat="40.86525" lon="-3.96718">
        <ele>1844.91</ele>
        <time>2014-12-11T12:24:10Z</time>
      </trkpt>
      <trkpt lat="40.86542" lon="-3.96718">
        <ele>1845.39</ele>
        <time>2014-12-11T12:24:28Z</time>
      </trkpt>
      <trkpt lat="40.8655" lon="-3.96719">
        <ele>1844.91</ele>
        <time>2014-12-11T12:24:40Z</time>
      </trkpt>
      <trkpt lat="40.86559" lon="-3.96721">
        <ele>1844.43</ele>
        <time>2014-12-11T12:24:53Z</time>
      </trkpt>
      <trkpt lat="40.8657" lon="-3.96725">
        <ele>1843.47</ele>
        <time>2014-12-11T12:25:06Z</time>
      </trkpt>
      <trkpt lat="40.86571" lon="-3.96726">
        <ele>1843.47</ele>
        <time>2014-12-11T12:25:08Z</time>
      </trkpt>
      <trkpt lat="40.86574" lon="-3.9673">
        <ele>1843.47</ele>
        <time>2014-12-11T12:25:11Z</time>
      </trkpt>
      <trkpt lat="40.86579" lon="-3.9673">
        <ele>1842.98</ele>
        <time>2014-12-11T12:25:14Z</time>
      </trkpt>
      <trkpt lat="40.86593" lon="-3.96738">
        <ele>1843.47</ele>
        <time>2014-12-11T12:25:28Z</time>
      </trkpt>
      <trkpt lat="40.86608" lon="-3.9674">
        <ele>1843.47</ele>
        <time>2014-12-11T12:25:44Z</time>
      </trkpt>
      <trkpt lat="40.86624" lon="-3.96747">
        <ele>1842.98</ele>
        <time>2014-12-11T12:25:57Z</time>
      </trkpt>
      <trkpt lat="40.86637" lon="-3.96751">
        <ele>1842.98</ele>
        <time>2014-12-11T12:26:11Z</time>
      </trkpt>
      <trkpt lat="40.8665" lon="-3.96756">
        <ele>1842.02</ele>
        <time>2014-12-11T12:26:22Z</time>
      </trkpt>
      <trkpt lat="40.86657" lon="-3.96755">
        <ele>1842.5</ele>
        <time>2014-12-11T12:26:27Z</time>
      </trkpt>
      <trkpt lat="40.86674" lon="-3.96757">
        <ele>1842.98</ele>
        <time>2014-12-11T12:26:43Z</time>
      </trkpt>
      <trkpt lat="40.86693" lon="-3.96757">
        <ele>1842.98</ele>
        <time>2014-12-11T12:26:56Z</time>
      </trkpt>
      <trkpt lat="40.86713" lon="-3.96746">
        <ele>1842.98</ele>
        <time>2014-12-11T12:27:14Z</time>
      </trkpt>
      <trkpt lat="40.86728" lon="-3.96745">
        <ele>1842.02</ele>
        <time>2014-12-11T12:27:28Z</time>
      </trkpt>
      <trkpt lat="40.86738" lon="-3.96734">
        <ele>1841.54</ele>
        <time>2014-12-11T12:27:42Z</time>
      </trkpt>
      <trkpt lat="40.86745" lon="-3.9672">
        <ele>1839.14</ele>
        <time>2014-12-11T12:27:57Z</time>
      </trkpt>
      <trkpt lat="40.86752" lon="-3.96702">
        <ele>1836.26</ele>
        <time>2014-12-11T12:28:14Z</time>
      </trkpt>
      <trkpt lat="40.86758" lon="-3.96689">
        <ele>1834.81</ele>
        <time>2014-12-11T12:28:32Z</time>
      </trkpt>
      <trkpt lat="40.86762" lon="-3.96685">
        <ele>1833.37</ele>
        <time>2014-12-11T12:28:51Z</time>
      </trkpt>
      <trkpt lat="40.86764" lon="-3.96687">
        <ele>1834.33</ele>
        <time>2014-12-11T12:28:59Z</time>
      </trkpt>
      <trkpt lat="40.86766" lon="-3.96692">
        <ele>1833.85</ele>
        <time>2014-12-11T12:29:04Z</time>
      </trkpt>
      <trkpt lat="40.8678" lon="-3.96694">
        <ele>1831.93</ele>
        <time>2014-12-11T12:29:18Z</time>
      </trkpt>
      <trkpt lat="40.86785" lon="-3.96693">
        <ele>1831.93</ele>
        <time>2014-12-11T12:29:23Z</time>
      </trkpt>
      <trkpt lat="40.86795" lon="-3.96698">
        <ele>1830.97</ele>
        <time>2014-12-11T12:29:33Z</time>
      </trkpt>
      <trkpt lat="40.86796" lon="-3.96699">
        <ele>1830.97</ele>
        <time>2014-12-11T12:29:35Z</time>
      </trkpt>
      <trkpt lat="40.86799" lon="-3.96702">
        <ele>1830.49</ele>
        <time>2014-12-11T12:29:38Z</time>
      </trkpt>
      <trkpt lat="40.86819" lon="-3.96709">
        <ele>1829.53</ele>
        <time>2014-12-11T12:29:54Z</time>
      </trkpt>
      <trkpt lat="40.86823" lon="-3.96708">
        <ele>1829.05</ele>
        <time>2014-12-11T12:29:57Z</time>
      </trkpt>
      <trkpt lat="40.86843" lon="-3.96704">
        <ele>1828.56</ele>
        <time>2014-12-11T12:30:14Z</time>
      </trkpt>
      <trkpt lat="40.86847" lon="-3.96703">
        <ele>1828.56</ele>
        <time>2014-12-11T12:30:32Z</time>
      </trkpt>
      <trkpt lat="40.86856" lon="-3.96703">
        <ele>1828.56</ele>
        <time>2014-12-11T12:31:05Z</time>
      </trkpt>
      <trkpt lat="40.86862" lon="-3.96699">
        <ele>1828.08</ele>
        <time>2014-12-11T12:31:20Z</time>
      </trkpt>
      <trkpt lat="40.86868" lon="-3.96695">
        <ele>1827.6</ele>
        <time>2014-12-11T12:31:26Z</time>
      </trkpt>
      <trkpt lat="40.86886" lon="-3.96688">
        <ele>1825.2</ele>
        <time>2014-12-11T12:31:44Z</time>
      </trkpt>
      <trkpt lat="40.86902" lon="-3.96682">
        <ele>1823.28</ele>
        <time>2014-12-11T12:31:58Z</time>
      </trkpt>
      <trkpt lat="40.86904" lon="-3.96681">
        <ele>1823.28</ele>
        <time>2014-12-11T12:32:00Z</time>
      </trkpt>
      <trkpt lat="40.86909" lon="-3.96677">
        <ele>1822.8</ele>
        <time>2014-12-11T12:32:05Z</time>
      </trkpt>
      <trkpt lat="40.86929" lon="-3.96668">
        <ele>1820.39</ele>
        <time>2014-12-11T12:32:23Z</time>
      </trkpt>
      <trkpt lat="40.86948" lon="-3.96662">
        <ele>1817.51</ele>
        <time>2014-12-11T12:32:41Z</time>
      </trkpt>
      <trkpt lat="40.86968" lon="-3.96654">
        <ele>1816.07</ele>
        <time>2014-12-11T12:32:56Z</time>
      </trkpt>
      <trkpt lat="40.86981" lon="-3.96648">
        <ele>1814.15</ele>
        <time>2014-12-11T12:33:09Z</time>
      </trkpt>
      <trkpt lat="40.86984" lon="-3.96645">
        <ele>1813.66</ele>
        <time>2014-12-11T12:33:11Z</time>
      </trkpt>
      <trkpt lat="40.87001" lon="-3.96629">
        <ele>1811.26</ele>
        <time>2014-12-11T12:33:28Z</time>
      </trkpt>
      <trkpt lat="40.87006" lon="-3.9662">
        <ele>1810.3</ele>
        <time>2014-12-11T12:33:35Z</time>
      </trkpt>
      <trkpt lat="40.87017" lon="-3.96601">
        <ele>1807.9</ele>
        <time>2014-12-11T12:33:50Z</time>
      </trkpt>
      <trkpt lat="40.87021" lon="-3.96592">
        <ele>1805.97</ele>
        <time>2014-12-11T12:34:03Z</time>
      </trkpt>
      <trkpt lat="40.87025" lon="-3.96584">
        <ele>1803.57</ele>
        <time>2014-12-11T12:34:16Z</time>
      </trkpt>
      <trkpt lat="40.87031" lon="-3.96579">
        <ele>1802.61</ele>
        <time>2014-12-11T12:34:29Z</time>
      </trkpt>
      <trkpt lat="40.87035" lon="-3.96568">
        <ele>1799.73</ele>
        <time>2014-12-11T12:34:40Z</time>
      </trkpt>
      <trkpt lat="40.87038" lon="-3.9655">
        <ele>1797.8</ele>
        <time>2014-12-11T12:34:58Z</time>
      </trkpt>
      <trkpt lat="40.8704" lon="-3.96542">
        <ele>1796.36</ele>
        <time>2014-12-11T12:35:16Z</time>
      </trkpt>
      <trkpt lat="40.87041" lon="-3.96545">
        <ele>1796.36</ele>
        <time>2014-12-11T12:35:34Z</time>
      </trkpt>
      <trkpt lat="40.87045" lon="-3.96546">
        <ele>1797.32</ele>
        <time>2014-12-11T12:35:43Z</time>
      </trkpt>
      <trkpt lat="40.87051" lon="-3.96552">
        <ele>1798.28</ele>
        <time>2014-12-11T12:35:54Z</time>
      </trkpt>
      <trkpt lat="40.87055" lon="-3.96555">
        <ele>1797.8</ele>
        <time>2014-12-11T12:36:13Z</time>
      </trkpt>
      <trkpt lat="40.87062" lon="-3.96555">
        <ele>1798.28</ele>
        <time>2014-12-11T12:36:30Z</time>
      </trkpt>
      <trkpt lat="40.87063" lon="-3.96562">
        <ele>1797.32</ele>
        <time>2014-12-11T12:36:50Z</time>
      </trkpt>
      <trkpt lat="40.87065" lon="-3.96574">
        <ele>1795.4</ele>
        <time>2014-12-11T12:37:00Z</time>
      </trkpt>
      <trkpt lat="40.87066" lon="-3.9659">
        <ele>1793</ele>
        <time>2014-12-11T12:37:14Z</time>
      </trkpt>
      <trkpt lat="40.87069" lon="-3.96603">
        <ele>1790.59</ele>
        <time>2014-12-11T12:37:25Z</time>
      </trkpt>
      <trkpt lat="40.87075" lon="-3.96625">
        <ele>1788.19</ele>
        <time>2014-12-11T12:37:42Z</time>
      </trkpt>
      <trkpt lat="40.87075" lon="-3.96639">
        <ele>1787.23</ele>
        <time>2014-12-11T12:37:53Z</time>
      </trkpt>
      <trkpt lat="40.87077" lon="-3.96656">
        <ele>1784.82</ele>
        <time>2014-12-11T12:38:06Z</time>
      </trkpt>
      <trkpt lat="40.87078" lon="-3.96675">
        <ele>1781.94</ele>
        <time>2014-12-11T12:38:22Z</time>
      </trkpt>
      <trkpt lat="40.87084" lon="-3.96691">
        <ele>1782.42</ele>
        <time>2014-12-11T12:38:31Z</time>
      </trkpt>
      <trkpt lat="40.87085" lon="-3.96709">
        <ele>1779.06</ele>
        <time>2014-12-11T12:38:46Z</time>
      </trkpt>
      <trkpt lat="40.87072" lon="-3.96725">
        <ele>1777.61</ele>
        <time>2014-12-11T12:39:03Z</time>
      </trkpt>
      <trkpt lat="40.87062" lon="-3.96747">
        <ele>1774.73</ele>
        <time>2014-12-11T12:39:19Z</time>
      </trkpt>
      <trkpt lat="40.8706" lon="-3.96767">
        <ele>1771.85</ele>
        <time>2014-12-11T12:39:33Z</time>
      </trkpt>
      <trkpt lat="40.87052" lon="-3.96785">
        <ele>1768.96</ele>
        <time>2014-12-11T12:39:47Z</time>
      </trkpt>
      <trkpt lat="40.87045" lon="-3.96798">
        <ele>1765.6</ele>
        <time>2014-12-11T12:40:00Z</time>
      </trkpt>
      <trkpt lat="40.87041" lon="-3.96817">
        <ele>1763.2</ele>
        <time>2014-12-11T12:40:14Z</time>
      </trkpt>
      <trkpt lat="40.8704" lon="-3.96821">
        <ele>1762.71</ele>
        <time>2014-12-11T12:40:16Z</time>
      </trkpt>
      <trkpt lat="40.87039" lon="-3.96824">
        <ele>1762.23</ele>
        <time>2014-12-11T12:40:18Z</time>
      </trkpt>
      <trkpt lat="40.87033" lon="-3.9684">
        <ele>1760.31</ele>
        <time>2014-12-11T12:40:29Z</time>
      </trkpt>
      <trkpt lat="40.87019" lon="-3.96855">
        <ele>1757.43</ele>
        <time>2014-12-11T12:40:45Z</time>
      </trkpt>
      <trkpt lat="40.87008" lon="-3.96868">
        <ele>1754.06</ele>
        <time>2014-12-11T12:41:00Z</time>
      </trkpt>
      <trkpt lat="40.87003" lon="-3.96889">
        <ele>1753.1</ele>
        <time>2014-12-11T12:41:14Z</time>
      </trkpt>
      <trkpt lat="40.87004" lon="-3.96904">
        <ele>1752.62</ele>
        <time>2014-12-11T12:41:25Z</time>
      </trkpt>
      <trkpt lat="40.87001" lon="-3.96905">
        <ele>1752.62</ele>
        <time>2014-12-11T12:41:39Z</time>
      </trkpt>
      <trkpt lat="40.87001" lon="-3.96914">
        <ele>1752.62</ele>
        <time>2014-12-11T12:41:48Z</time>
      </trkpt>
      <trkpt lat="40.86999" lon="-3.96931">
        <ele>1750.7</ele>
        <time>2014-12-11T12:41:59Z</time>
      </trkpt>
      <trkpt lat="40.87" lon="-3.9695">
        <ele>1748.78</ele>
        <time>2014-12-11T12:42:12Z</time>
      </trkpt>
      <trkpt lat="40.87" lon="-3.96962">
        <ele>1748.29</ele>
        <time>2014-12-11T12:42:20Z</time>
      </trkpt>
      <trkpt lat="40.87" lon="-3.96969">
        <ele>1747.33</ele>
        <time>2014-12-11T12:42:25Z</time>
      </trkpt>
      <trkpt lat="40.87004" lon="-3.96996">
        <ele>1747.33</ele>
        <time>2014-12-11T12:42:41Z</time>
      </trkpt>
      <trkpt lat="40.87008" lon="-3.97015">
        <ele>1746.85</ele>
        <time>2014-12-11T12:42:55Z</time>
      </trkpt>
      <trkpt lat="40.87011" lon="-3.9703">
        <ele>1745.89</ele>
        <time>2014-12-11T12:43:03Z</time>
      </trkpt>
      <trkpt lat="40.87012" lon="-3.97034">
        <ele>1745.41</ele>
        <time>2014-12-11T12:43:05Z</time>
      </trkpt>
      <trkpt lat="40.87012" lon="-3.97044">
        <ele>1744.93</ele>
        <time>2014-12-11T12:43:12Z</time>
      </trkpt>
      <trkpt lat="40.87007" lon="-3.97059">
        <ele>1742.53</ele>
        <time>2014-12-11T12:43:28Z</time>
      </trkpt>
      <trkpt lat="40.87007" lon="-3.97063">
        <ele>1742.05</ele>
        <time>2014-12-11T12:43:53Z</time>
      </trkpt>
      <trkpt lat="40.86997" lon="-3.97074">
        <ele>1739.16</ele>
        <time>2014-12-11T12:44:06Z</time>
      </trkpt>
      <trkpt lat="40.86991" lon="-3.97082">
        <ele>1736.76</ele>
        <time>2014-12-11T12:44:18Z</time>
      </trkpt>
      <trkpt lat="40.86984" lon="-3.97091">
        <ele>1734.36</ele>
        <time>2014-12-11T12:44:31Z</time>
      </trkpt>
      <trkpt lat="40.86981" lon="-3.97101">
        <ele>1732.43</ele>
        <time>2014-12-11T12:44:43Z</time>
      </trkpt>
      <trkpt lat="40.8698" lon="-3.97121">
        <ele>1730.03</ele>
        <time>2014-12-11T12:44:57Z</time>
      </trkpt>
      <trkpt lat="40.86983" lon="-3.97141">
        <ele>1728.59</ele>
        <time>2014-12-11T12:45:13Z</time>
      </trkpt>
      <trkpt lat="40.86986" lon="-3.97147">
        <ele>1728.59</ele>
        <time>2014-12-11T12:45:20Z</time>
      </trkpt>
      <trkpt lat="40.86982" lon="-3.97156">
        <ele>1727.15</ele>
        <time>2014-12-11T12:45:32Z</time>
      </trkpt>
      <trkpt lat="40.86978" lon="-3.9717">
        <ele>1724.26</ele>
        <time>2014-12-11T12:45:47Z</time>
      </trkpt>
      <trkpt lat="40.86979" lon="-3.97188">
        <ele>1722.34</ele>
        <time>2014-12-11T12:46:02Z</time>
      </trkpt>
      <trkpt lat="40.86978" lon="-3.97195">
        <ele>1721.38</ele>
        <time>2014-12-11T12:46:10Z</time>
      </trkpt>
      <trkpt lat="40.8698" lon="-3.9721">
        <ele>1720.42</ele>
        <time>2014-12-11T12:46:20Z</time>
      </trkpt>
      <trkpt lat="40.86982" lon="-3.97226">
        <ele>1719.94</ele>
        <time>2014-12-11T12:46:36Z</time>
      </trkpt>
      <trkpt lat="40.86983" lon="-3.97242">
        <ele>1717.53</ele>
        <time>2014-12-11T12:46:49Z</time>
      </trkpt>
      <trkpt lat="40.86982" lon="-3.9726">
        <ele>1715.13</ele>
        <time>2014-12-11T12:47:05Z</time>
      </trkpt>
      <trkpt lat="40.86978" lon="-3.97278">
        <ele>1712.73</ele>
        <time>2014-12-11T12:47:20Z</time>
      </trkpt>
      <trkpt lat="40.86976" lon="-3.97289">
        <ele>1711.28</ele>
        <time>2014-12-11T12:47:28Z</time>
      </trkpt>
      <trkpt lat="40.86973" lon="-3.97308">
        <ele>1707.92</ele>
        <time>2014-12-11T12:47:43Z</time>
      </trkpt>
      <trkpt lat="40.86971" lon="-3.97319">
        <ele>1707.92</ele>
        <time>2014-12-11T12:48:03Z</time>
      </trkpt>
      <trkpt lat="40.86973" lon="-3.9732">
        <ele>1707.44</ele>
        <time>2014-12-11T12:48:29Z</time>
      </trkpt>
      <trkpt lat="40.86967" lon="-3.97331">
        <ele>1706.48</ele>
        <time>2014-12-11T12:48:43Z</time>
      </trkpt>
      <trkpt lat="40.86954" lon="-3.97353">
        <ele>1704.07</ele>
        <time>2014-12-11T12:49:02Z</time>
      </trkpt>
      <trkpt lat="40.86946" lon="-3.97378">
        <ele>1701.19</ele>
        <time>2014-12-11T12:49:18Z</time>
      </trkpt>
      <trkpt lat="40.86944" lon="-3.97387">
        <ele>1700.23</ele>
        <time>2014-12-11T12:49:23Z</time>
      </trkpt>
      <trkpt lat="40.86938" lon="-3.9742">
        <ele>1698.31</ele>
        <time>2014-12-11T12:49:42Z</time>
      </trkpt>
      <trkpt lat="40.86929" lon="-3.97449">
        <ele>1697.34</ele>
        <time>2014-12-11T12:49:59Z</time>
      </trkpt>
      <trkpt lat="40.86923" lon="-3.97471">
        <ele>1695.9</ele>
        <time>2014-12-11T12:50:13Z</time>
      </trkpt>
      <trkpt lat="40.86913" lon="-3.97499">
        <ele>1693.98</ele>
        <time>2014-12-11T12:50:30Z</time>
      </trkpt>
      <trkpt lat="40.86912" lon="-3.97507">
        <ele>1693.02</ele>
        <time>2014-12-11T12:50:35Z</time>
      </trkpt>
      <trkpt lat="40.86905" lon="-3.97537">
        <ele>1690.62</ele>
        <time>2014-12-11T12:50:51Z</time>
      </trkpt>
      <trkpt lat="40.869" lon="-3.97566">
        <ele>1688.21</ele>
        <time>2014-12-11T12:51:08Z</time>
      </trkpt>
      <trkpt lat="40.86894" lon="-3.97594">
        <ele>1685.33</ele>
        <time>2014-12-11T12:51:25Z</time>
      </trkpt>
      <trkpt lat="40.8689" lon="-3.97615">
        <ele>1683.41</ele>
        <time>2014-12-11T12:51:41Z</time>
      </trkpt>
      <trkpt lat="40.86886" lon="-3.97628">
        <ele>1682.44</ele>
        <time>2014-12-11T12:51:54Z</time>
      </trkpt>
      <trkpt lat="40.86886" lon="-3.97638">
        <ele>1681.96</ele>
        <time>2014-12-11T12:52:07Z</time>
      </trkpt>
      <trkpt lat="40.86877" lon="-3.97657">
        <ele>1681.48</ele>
        <time>2014-12-11T12:52:26Z</time>
      </trkpt>
      <trkpt lat="40.86868" lon="-3.97679">
        <ele>1680.04</ele>
        <time>2014-12-11T12:52:41Z</time>
      </trkpt>
      <trkpt lat="40.86867" lon="-3.97685">
        <ele>1679.56</ele>
        <time>2014-12-11T12:52:45Z</time>
      </trkpt>
      <trkpt lat="40.86866" lon="-3.97689">
        <ele>1679.56</ele>
        <time>2014-12-11T12:52:48Z</time>
      </trkpt>
      <trkpt lat="40.86863" lon="-3.977">
        <ele>1679.08</ele>
        <time>2014-12-11T12:52:55Z</time>
      </trkpt>
      <trkpt lat="40.86856" lon="-3.97726">
        <ele>1679.08</ele>
        <time>2014-12-11T12:53:10Z</time>
      </trkpt>
      <trkpt lat="40.86851" lon="-3.97751">
        <ele>1679.08</ele>
        <time>2014-12-11T12:53:24Z</time>
      </trkpt>
      <trkpt lat="40.86843" lon="-3.97774">
        <ele>1678.6</ele>
        <time>2014-12-11T12:53:39Z</time>
      </trkpt>
      <trkpt lat="40.8684" lon="-3.97786">
        <ele>1678.12</ele>
        <time>2014-12-11T12:53:56Z</time>
      </trkpt>
      <trkpt lat="40.8684" lon="-3.97797">
        <ele>1676.68</ele>
        <time>2014-12-11T12:54:19Z</time>
      </trkpt>
      <trkpt lat="40.86835" lon="-3.97812">
        <ele>1674.27</ele>
        <time>2014-12-11T12:54:29Z</time>
      </trkpt>
      <trkpt lat="40.86826" lon="-3.97827">
        <ele>1673.31</ele>
        <time>2014-12-11T12:54:42Z</time>
      </trkpt>
      <trkpt lat="40.86819" lon="-3.9784">
        <ele>1672.83</ele>
        <time>2014-12-11T12:54:53Z</time>
      </trkpt>
      <trkpt lat="40.86811" lon="-3.97858">
        <ele>1671.39</ele>
        <time>2014-12-11T12:55:06Z</time>
      </trkpt>
      <trkpt lat="40.86803" lon="-3.97876">
        <ele>1669.47</ele>
        <time>2014-12-11T12:55:18Z</time>
      </trkpt>
      <trkpt lat="40.86801" lon="-3.97881">
        <ele>1668.51</ele>
        <time>2014-12-11T12:55:22Z</time>
      </trkpt>
      <trkpt lat="40.86792" lon="-3.97895">
        <ele>1665.14</ele>
        <time>2014-12-11T12:55:35Z</time>
      </trkpt>
      <trkpt lat="40.86794" lon="-3.9791">
        <ele>1662.26</ele>
        <time>2014-12-11T12:55:47Z</time>
      </trkpt>
      <trkpt lat="40.86796" lon="-3.97922">
        <ele>1660.33</ele>
        <time>2014-12-11T12:55:56Z</time>
      </trkpt>
      <trkpt lat="40.8679" lon="-3.97943">
        <ele>1656.97</ele>
        <time>2014-12-11T12:56:12Z</time>
      </trkpt>
      <trkpt lat="40.86788" lon="-3.97947">
        <ele>1656.49</ele>
        <time>2014-12-11T12:56:15Z</time>
      </trkpt>
      <trkpt lat="40.86785" lon="-3.97974">
        <ele>1653.6</ele>
        <time>2014-12-11T12:56:31Z</time>
      </trkpt>
      <trkpt lat="40.86782" lon="-3.97988">
        <ele>1652.64</ele>
        <time>2014-12-11T12:56:40Z</time>
      </trkpt>
      <trkpt lat="40.86761" lon="-3.97997">
        <ele>1649.76</ele>
        <time>2014-12-11T12:56:57Z</time>
      </trkpt>
      <trkpt lat="40.86751" lon="-3.97996">
        <ele>1647.36</ele>
        <time>2014-12-11T12:57:10Z</time>
      </trkpt>
      <trkpt lat="40.8674" lon="-3.97993">
        <ele>1644.47</ele>
        <time>2014-12-11T12:57:23Z</time>
      </trkpt>
      <trkpt lat="40.8673" lon="-3.9799">
        <ele>1641.11</ele>
        <time>2014-12-11T12:57:36Z</time>
      </trkpt>
      <trkpt lat="40.86728" lon="-3.97991">
        <ele>1640.15</ele>
        <time>2014-12-11T12:57:38Z</time>
      </trkpt>
      <trkpt lat="40.86722" lon="-3.97992">
        <ele>1639.19</ele>
        <time>2014-12-11T12:57:43Z</time>
      </trkpt>
      <trkpt lat="40.86719" lon="-3.97993">
        <ele>1638.7</ele>
        <time>2014-12-11T12:57:45Z</time>
      </trkpt>
      <trkpt lat="40.86707" lon="-3.97995">
        <ele>1635.34</ele>
        <time>2014-12-11T12:58:00Z</time>
      </trkpt>
      <trkpt lat="40.86703" lon="-3.97997">
        <ele>1634.38</ele>
        <time>2014-12-11T12:58:07Z</time>
      </trkpt>
      <trkpt lat="40.86699" lon="-3.97998">
        <ele>1632.94</ele>
        <time>2014-12-11T12:58:21Z</time>
      </trkpt>
      <trkpt lat="40.86689" lon="-3.97997">
        <ele>1631.98</ele>
        <time>2014-12-11T12:58:35Z</time>
      </trkpt>
      <trkpt lat="40.86684" lon="-3.98001">
        <ele>1630.53</ele>
        <time>2014-12-11T12:58:48Z</time>
      </trkpt>
      <trkpt lat="40.86676" lon="-3.98006">
        <ele>1628.13</ele>
        <time>2014-12-11T12:59:02Z</time>
      </trkpt>
      <trkpt lat="40.86666" lon="-3.98009">
        <ele>1625.73</ele>
        <time>2014-12-11T12:59:17Z</time>
      </trkpt>
      <trkpt lat="40.86661" lon="-3.98015">
        <ele>1623.8</ele>
        <time>2014-12-11T12:59:31Z</time>
      </trkpt>
      <trkpt lat="40.8666" lon="-3.98026">
        <ele>1621.4</ele>
        <time>2014-12-11T12:59:46Z</time>
      </trkpt>
      <trkpt lat="40.86657" lon="-3.98031">
        <ele>1619</ele>
        <time>2014-12-11T12:59:59Z</time>
      </trkpt>
      <trkpt lat="40.86651" lon="-3.98035">
        <ele>1617.07</ele>
        <time>2014-12-11T13:00:13Z</time>
      </trkpt>
      <trkpt lat="40.86648" lon="-3.98038">
        <ele>1614.67</ele>
        <time>2014-12-11T13:00:28Z</time>
      </trkpt>
      <trkpt lat="40.86644" lon="-3.98047">
        <ele>1613.71</ele>
        <time>2014-12-11T13:00:43Z</time>
      </trkpt>
      <trkpt lat="40.86642" lon="-3.98059">
        <ele>1611.31</ele>
        <time>2014-12-11T13:00:59Z</time>
      </trkpt>
      <trkpt lat="40.86644" lon="-3.98063">
        <ele>1610.83</ele>
        <time>2014-12-11T13:01:03Z</time>
      </trkpt>
      <trkpt lat="40.86637" lon="-3.98066">
        <ele>1608.42</ele>
        <time>2014-12-11T13:01:15Z</time>
      </trkpt>
      <trkpt lat="40.86627" lon="-3.98073">
        <ele>1605.54</ele>
        <time>2014-12-11T13:01:29Z</time>
      </trkpt>
      <trkpt lat="40.86623" lon="-3.98081">
        <ele>1605.06</ele>
        <time>2014-12-11T13:01:43Z</time>
      </trkpt>
      <trkpt lat="40.8662" lon="-3.98085">
        <ele>1604.58</ele>
        <time>2014-12-11T13:01:50Z</time>
      </trkpt>
      <trkpt lat="40.8661" lon="-3.98092">
        <ele>1604.58</ele>
        <time>2014-12-11T13:02:02Z</time>
      </trkpt>
      <trkpt lat="40.86601" lon="-3.98101">
        <ele>1602.17</ele>
        <time>2014-12-11T13:02:14Z</time>
      </trkpt>
      <trkpt lat="40.86599" lon="-3.98101">
        <ele>1602.17</ele>
        <time>2014-12-11T13:02:17Z</time>
      </trkpt>
      <trkpt lat="40.8659" lon="-3.98105">
        <ele>1601.69</ele>
        <time>2014-12-11T13:02:31Z</time>
      </trkpt>
      <trkpt lat="40.86586" lon="-3.98111">
        <ele>1602.17</ele>
        <time>2014-12-11T13:02:42Z</time>
      </trkpt>
      <trkpt lat="40.86584" lon="-3.98113">
        <ele>1603.62</ele>
        <time>2014-12-11T13:02:45Z</time>
      </trkpt>
      <trkpt lat="40.86581" lon="-3.98117">
        <ele>1602.17</ele>
        <time>2014-12-11T13:02:49Z</time>
      </trkpt>
      <trkpt lat="40.8657" lon="-3.9814">
        <ele>1602.66</ele>
        <time>2014-12-11T13:03:06Z</time>
      </trkpt>
      <trkpt lat="40.86564" lon="-3.98157">
        <ele>1602.17</ele>
        <time>2014-12-11T13:03:20Z</time>
      </trkpt>
      <trkpt lat="40.86561" lon="-3.9818">
        <ele>1601.21</ele>
        <time>2014-12-11T13:03:36Z</time>
      </trkpt>
      <trkpt lat="40.86555" lon="-3.982">
        <ele>1600.73</ele>
        <time>2014-12-11T13:03:50Z</time>
      </trkpt>
      <trkpt lat="40.86547" lon="-3.98216">
        <ele>1599.29</ele>
        <time>2014-12-11T13:04:04Z</time>
      </trkpt>
      <trkpt lat="40.86541" lon="-3.98234">
        <ele>1597.85</ele>
        <time>2014-12-11T13:04:19Z</time>
      </trkpt>
      <trkpt lat="40.86534" lon="-3.98252">
        <ele>1596.89</ele>
        <time>2014-12-11T13:04:32Z</time>
      </trkpt>
      <trkpt lat="40.86526" lon="-3.98272">
        <ele>1594</ele>
        <time>2014-12-11T13:04:49Z</time>
      </trkpt>
      <trkpt lat="40.86526" lon="-3.98274">
        <ele>1593.52</ele>
        <time>2014-12-11T13:04:50Z</time>
      </trkpt>
      <trkpt lat="40.86516" lon="-3.98292">
        <ele>1593.04</ele>
        <time>2014-12-11T13:05:06Z</time>
      </trkpt>
      <trkpt lat="40.86513" lon="-3.98299">
        <ele>1591.12</ele>
        <time>2014-12-11T13:05:13Z</time>
      </trkpt>
      <trkpt lat="40.86512" lon="-3.98306">
        <ele>1590.64</ele>
        <time>2014-12-11T13:05:17Z</time>
      </trkpt>
      <trkpt lat="40.86508" lon="-3.98315">
        <ele>1589.68</ele>
        <time>2014-12-11T13:05:24Z</time>
      </trkpt>
      <trkpt lat="40.86499" lon="-3.98335">
        <ele>1587.75</ele>
        <time>2014-12-11T13:05:39Z</time>
      </trkpt>
      <trkpt lat="40.86497" lon="-3.98353">
        <ele>1584.87</ele>
        <time>2014-12-11T13:05:52Z</time>
      </trkpt>
      <trkpt lat="40.86495" lon="-3.98368">
        <ele>1581.99</ele>
        <time>2014-12-11T13:06:04Z</time>
      </trkpt>
      <trkpt lat="40.86491" lon="-3.98386">
        <ele>1579.1</ele>
        <time>2014-12-11T13:06:18Z</time>
      </trkpt>
      <trkpt lat="40.86489" lon="-3.98401">
        <ele>1576.7</ele>
        <time>2014-12-11T13:06:32Z</time>
      </trkpt>
      <trkpt lat="40.86481" lon="-3.98414">
        <ele>1574.3</ele>
        <time>2014-12-11T13:06:52Z</time>
      </trkpt>
      <trkpt lat="40.8648" lon="-3.98414">
        <ele>1574.3</ele>
        <time>2014-12-11T13:06:53Z</time>
      </trkpt>
      <trkpt lat="40.86477" lon="-3.98416">
        <ele>1573.33</ele>
        <time>2014-12-11T13:06:56Z</time>
      </trkpt>
      <trkpt lat="40.86466" lon="-3.98423">
        <ele>1571.89</ele>
        <time>2014-12-11T13:07:07Z</time>
      </trkpt>
      <trkpt lat="40.86464" lon="-3.98424">
        <ele>1571.41</ele>
        <time>2014-12-11T13:07:09Z</time>
      </trkpt>
      <trkpt lat="40.86453" lon="-3.98421">
        <ele>1569.97</ele>
        <time>2014-12-11T13:07:24Z</time>
      </trkpt>
      <trkpt lat="40.86442" lon="-3.98419">
        <ele>1568.05</ele>
        <time>2014-12-11T13:07:38Z</time>
      </trkpt>
      <trkpt lat="40.8643" lon="-3.98417">
        <ele>1566.61</ele>
        <time>2014-12-11T13:07:50Z</time>
      </trkpt>
      <trkpt lat="40.86419" lon="-3.98415">
        <ele>1563.24</ele>
        <time>2014-12-11T13:08:01Z</time>
      </trkpt>
      <trkpt lat="40.86414" lon="-3.98431">
        <ele>1560.36</ele>
        <time>2014-12-11T13:08:13Z</time>
      </trkpt>
      <trkpt lat="40.86414" lon="-3.98435">
        <ele>1559.4</ele>
        <time>2014-12-11T13:08:16Z</time>
      </trkpt>
      <trkpt lat="40.86427" lon="-3.98457">
        <ele>1557.47</ele>
        <time>2014-12-11T13:08:32Z</time>
      </trkpt>
      <trkpt lat="40.86436" lon="-3.98476">
        <ele>1554.59</ele>
        <time>2014-12-11T13:08:46Z</time>
      </trkpt>
      <trkpt lat="40.86439" lon="-3.98483">
        <ele>1553.15</ele>
        <time>2014-12-11T13:08:52Z</time>
      </trkpt>
      <trkpt lat="40.86447" lon="-3.98494">
        <ele>1551.71</ele>
        <time>2014-12-11T13:09:03Z</time>
      </trkpt>
      <trkpt lat="40.86458" lon="-3.98509">
        <ele>1549.3</ele>
        <time>2014-12-11T13:09:15Z</time>
      </trkpt>
      <trkpt lat="40.86469" lon="-3.98521">
        <ele>1545.94</ele>
        <time>2014-12-11T13:09:27Z</time>
      </trkpt>
      <trkpt lat="40.86476" lon="-3.9853">
        <ele>1543.05</ele>
        <time>2014-12-11T13:09:37Z</time>
      </trkpt>
      <trkpt lat="40.86479" lon="-3.98533">
        <ele>1542.09</ele>
        <time>2014-12-11T13:09:41Z</time>
      </trkpt>
      <trkpt lat="40.86492" lon="-3.98547">
        <ele>1539.21</ele>
        <time>2014-12-11T13:09:56Z</time>
      </trkpt>
      <trkpt lat="40.86498" lon="-3.98559">
        <ele>1536.32</ele>
        <time>2014-12-11T13:10:07Z</time>
      </trkpt>
      <trkpt lat="40.86496" lon="-3.98573">
        <ele>1533.92</ele>
        <time>2014-12-11T13:10:18Z</time>
      </trkpt>
      <trkpt lat="40.865" lon="-3.98589">
        <ele>1530.56</ele>
        <time>2014-12-11T13:10:33Z</time>
      </trkpt>
      <trkpt lat="40.86503" lon="-3.98598">
        <ele>1527.67</ele>
        <time>2014-12-11T13:10:44Z</time>
      </trkpt>
      <trkpt lat="40.86505" lon="-3.98607">
        <ele>1524.79</ele>
        <time>2014-12-11T13:10:53Z</time>
      </trkpt>
      <trkpt lat="40.86503" lon="-3.98617">
        <ele>1521.9</ele>
        <time>2014-12-11T13:11:05Z</time>
      </trkpt>
      <trkpt lat="40.86505" lon="-3.98628">
        <ele>1518.54</ele>
        <time>2014-12-11T13:11:17Z</time>
      </trkpt>
      <trkpt lat="40.86504" lon="-3.98641">
        <ele>1515.18</ele>
        <time>2014-12-11T13:11:29Z</time>
      </trkpt>
      <trkpt lat="40.86504" lon="-3.98656">
        <ele>1512.29</ele>
        <time>2014-12-11T13:11:41Z</time>
      </trkpt>
      <trkpt lat="40.86508" lon="-3.98668">
        <ele>1509.41</ele>
        <time>2014-12-11T13:11:52Z</time>
      </trkpt>
      <trkpt lat="40.86514" lon="-3.98681">
        <ele>1506.04</ele>
        <time>2014-12-11T13:12:05Z</time>
      </trkpt>
      <trkpt lat="40.86519" lon="-3.9869">
        <ele>1503.64</ele>
        <time>2014-12-11T13:12:15Z</time>
      </trkpt>
      <trkpt lat="40.86521" lon="-3.987">
        <ele>1502.2</ele>
        <time>2014-12-11T13:12:22Z</time>
      </trkpt>
      <trkpt lat="40.86523" lon="-3.98709">
        <ele>1500.76</ele>
        <time>2014-12-11T13:12:29Z</time>
      </trkpt>
      <trkpt lat="40.86534" lon="-3.98724">
        <ele>1497.87</ele>
        <time>2014-12-11T13:12:44Z</time>
      </trkpt>
      <trkpt lat="40.86537" lon="-3.98731">
        <ele>1494.99</ele>
        <time>2014-12-11T13:12:55Z</time>
      </trkpt>
      <trkpt lat="40.86538" lon="-3.98746">
        <ele>1491.62</ele>
        <time>2014-12-11T13:13:09Z</time>
      </trkpt>
      <trkpt lat="40.86545" lon="-3.98757">
        <ele>1488.74</ele>
        <time>2014-12-11T13:13:21Z</time>
      </trkpt>
      <trkpt lat="40.86548" lon="-3.98767">
        <ele>1488.26</ele>
        <time>2014-12-11T13:13:34Z</time>
      </trkpt>
      <trkpt lat="40.86547" lon="-3.98777">
        <ele>1486.34</ele>
        <time>2014-12-11T13:13:50Z</time>
      </trkpt>
      <trkpt lat="40.86546" lon="-3.98778">
        <ele>1485.37</ele>
        <time>2014-12-11T13:14:08Z</time>
      </trkpt>
      <trkpt lat="40.86549" lon="-3.98801">
        <ele>1483.45</ele>
        <time>2014-12-11T13:14:23Z</time>
      </trkpt>
      <trkpt lat="40.86548" lon="-3.98823">
        <ele>1481.53</ele>
        <time>2014-12-11T13:14:39Z</time>
      </trkpt>
      <trkpt lat="40.86547" lon="-3.98831">
        <ele>1481.05</ele>
        <time>2014-12-11T13:14:43Z</time>
      </trkpt>
      <trkpt lat="40.86547" lon="-3.98836">
        <ele>1480.57</ele>
        <time>2014-12-11T13:14:46Z</time>
      </trkpt>
      <trkpt lat="40.86547" lon="-3.98841">
        <ele>1480.09</ele>
        <time>2014-12-11T13:14:50Z</time>
      </trkpt>
      <trkpt lat="40.86548" lon="-3.9886">
        <ele>1476.72</ele>
        <time>2014-12-11T13:15:06Z</time>
      </trkpt>
      <trkpt lat="40.8655" lon="-3.98879">
        <ele>1474.32</ele>
        <time>2014-12-11T13:15:21Z</time>
      </trkpt>
      <trkpt lat="40.8655" lon="-3.98895">
        <ele>1471.44</ele>
        <time>2014-12-11T13:15:33Z</time>
      </trkpt>
      <trkpt lat="40.86551" lon="-3.98901">
        <ele>1470.95</ele>
        <time>2014-12-11T13:15:52Z</time>
      </trkpt>
      <trkpt lat="40.86562" lon="-3.98923">
        <ele>1468.55</ele>
        <time>2014-12-11T13:16:06Z</time>
      </trkpt>
      <trkpt lat="40.86566" lon="-3.98941">
        <ele>1466.63</ele>
        <time>2014-12-11T13:16:21Z</time>
      </trkpt>
      <trkpt lat="40.86566" lon="-3.98942">
        <ele>1465.19</ele>
        <time>2014-12-11T13:16:33Z</time>
      </trkpt>
      <trkpt lat="40.86567" lon="-3.98944">
        <ele>1464.71</ele>
        <time>2014-12-11T13:17:11Z</time>
      </trkpt>
      <trkpt lat="40.86567" lon="-3.98933">
        <ele>1465.67</ele>
        <time>2014-12-11T13:17:25Z</time>
      </trkpt>
      <trkpt lat="40.86567" lon="-3.98938">
        <ele>1464.71</ele>
        <time>2014-12-11T13:17:45Z</time>
      </trkpt>
      <trkpt lat="40.86568" lon="-3.98939">
        <ele>1464.71</ele>
        <time>2014-12-11T13:18:21Z</time>
      </trkpt>
      <trkpt lat="40.86569" lon="-3.98942">
        <ele>1465.19</ele>
        <time>2014-12-11T13:18:41Z</time>
      </trkpt>
      <trkpt lat="40.86571" lon="-3.98936">
        <ele>1465.19</ele>
        <time>2014-12-11T13:19:02Z</time>
      </trkpt>
      <trkpt lat="40.8656" lon="-3.98941">
        <ele>1464.23</ele>
        <time>2014-12-11T13:19:24Z</time>
      </trkpt>
      <trkpt lat="40.86558" lon="-3.98961">
        <ele>1461.82</ele>
        <time>2014-12-11T13:19:35Z</time>
      </trkpt>
      <trkpt lat="40.8656" lon="-3.98964">
        <ele>1461.34</ele>
        <time>2014-12-11T13:19:37Z</time>
      </trkpt>
      <trkpt lat="40.86565" lon="-3.98986">
        <ele>1458.94</ele>
        <time>2014-12-11T13:19:50Z</time>
      </trkpt>
      <trkpt lat="40.86565" lon="-3.99002">
        <ele>1456.05</ele>
        <time>2014-12-11T13:20:02Z</time>
      </trkpt>
      <trkpt lat="40.86564" lon="-3.99022">
        <ele>1453.65</ele>
        <time>2014-12-11T13:20:15Z</time>
      </trkpt>
      <trkpt lat="40.86564" lon="-3.99032">
        <ele>1452.69</ele>
        <time>2014-12-11T13:20:22Z</time>
      </trkpt>
      <trkpt lat="40.86563" lon="-3.99036">
        <ele>1452.21</ele>
        <time>2014-12-11T13:20:25Z</time>
      </trkpt>
      <trkpt lat="40.86562" lon="-3.99043">
        <ele>1451.25</ele>
        <time>2014-12-11T13:20:29Z</time>
      </trkpt>
      <trkpt lat="40.86562" lon="-3.99064">
        <ele>1448.36</ele>
        <time>2014-12-11T13:20:45Z</time>
      </trkpt>
      <trkpt lat="40.8656" lon="-3.99085">
        <ele>1445.96</ele>
        <time>2014-12-11T13:20:58Z</time>
      </trkpt>
      <trkpt lat="40.8656" lon="-3.99089">
        <ele>1445.48</ele>
        <time>2014-12-11T13:21:00Z</time>
      </trkpt>
      <trkpt lat="40.86561" lon="-3.99105">
        <ele>1444.52</ele>
        <time>2014-12-11T13:21:10Z</time>
      </trkpt>
      <trkpt lat="40.86561" lon="-3.9911">
        <ele>1443.56</ele>
        <time>2014-12-11T13:21:14Z</time>
      </trkpt>
      <trkpt lat="40.8656" lon="-3.99117">
        <ele>1442.6</ele>
        <time>2014-12-11T13:21:19Z</time>
      </trkpt>
      <trkpt lat="40.86558" lon="-3.99127">
        <ele>1441.63</ele>
        <time>2014-12-11T13:21:25Z</time>
      </trkpt>
      <trkpt lat="40.8655" lon="-3.99151">
        <ele>1438.75</ele>
        <time>2014-12-11T13:21:41Z</time>
      </trkpt>
      <trkpt lat="40.86538" lon="-3.99171">
        <ele>1435.87</ele>
        <time>2014-12-11T13:21:56Z</time>
      </trkpt>
      <trkpt lat="40.86529" lon="-3.99181">
        <ele>1432.98</ele>
        <time>2014-12-11T13:22:07Z</time>
      </trkpt>
      <trkpt lat="40.86519" lon="-3.9919">
        <ele>1430.1</ele>
        <time>2014-12-11T13:22:19Z</time>
      </trkpt>
      <trkpt lat="40.86508" lon="-3.99199">
        <ele>1426.73</ele>
        <time>2014-12-11T13:22:31Z</time>
      </trkpt>
      <trkpt lat="40.86491" lon="-3.99209">
        <ele>1424.81</ele>
        <time>2014-12-11T13:22:45Z</time>
      </trkpt>
      <trkpt lat="40.86489" lon="-3.99211">
        <ele>1424.33</ele>
        <time>2014-12-11T13:22:48Z</time>
      </trkpt>
      <trkpt lat="40.86473" lon="-3.99226">
        <ele>1422.41</ele>
        <time>2014-12-11T13:23:02Z</time>
      </trkpt>
      <trkpt lat="40.86457" lon="-3.99235">
        <ele>1420.97</ele>
        <time>2014-12-11T13:23:15Z</time>
      </trkpt>
      <trkpt lat="40.86442" lon="-3.99243">
        <ele>1419.52</ele>
        <time>2014-12-11T13:23:27Z</time>
      </trkpt>
      <trkpt lat="40.86432" lon="-3.99262">
        <ele>1418.56</ele>
        <time>2014-12-11T13:23:40Z</time>
      </trkpt>
      <trkpt lat="40.86434" lon="-3.99276">
        <ele>1419.04</ele>
        <time>2014-12-11T13:23:49Z</time>
      </trkpt>
      <trkpt lat="40.8644" lon="-3.99285">
        <ele>1419.04</ele>
        <time>2014-12-11T13:23:54Z</time>
      </trkpt>
      <trkpt lat="40.86449" lon="-3.99314">
        <ele>1419.04</ele>
        <time>2014-12-11T13:24:11Z</time>
      </trkpt>
      <trkpt lat="40.86457" lon="-3.99334">
        <ele>1419.52</ele>
        <time>2014-12-11T13:24:23Z</time>
      </trkpt>
      <trkpt lat="40.86461" lon="-3.99347">
        <ele>1419.52</ele>
        <time>2014-12-11T13:24:30Z</time>
      </trkpt>
      <trkpt lat="40.86472" lon="-3.99375">
        <ele>1418.56</ele>
        <time>2014-12-11T13:24:47Z</time>
      </trkpt>
      <trkpt lat="40.86489" lon="-3.99399">
        <ele>1418.08</ele>
        <time>2014-12-11T13:25:03Z</time>
      </trkpt>
      <trkpt lat="40.86504" lon="-3.99415">
        <ele>1418.08</ele>
        <time>2014-12-11T13:25:17Z</time>
      </trkpt>
      <trkpt lat="40.86506" lon="-3.99416">
        <ele>1418.08</ele>
        <time>2014-12-11T13:25:19Z</time>
      </trkpt>
      <trkpt lat="40.86515" lon="-3.99426">
        <ele>1417.6</ele>
        <time>2014-12-11T13:25:27Z</time>
      </trkpt>
      <trkpt lat="40.86533" lon="-3.99449">
        <ele>1417.6</ele>
        <time>2014-12-11T13:25:44Z</time>
      </trkpt>
      <trkpt lat="40.86552" lon="-3.99478">
        <ele>1416.16</ele>
        <time>2014-12-11T13:26:05Z</time>
      </trkpt>
      <trkpt lat="40.86563" lon="-3.99507">
        <ele>1413.76</ele>
        <time>2014-12-11T13:26:24Z</time>
      </trkpt>
      <trkpt lat="40.86574" lon="-3.99527">
        <ele>1411.83</ele>
        <time>2014-12-11T13:26:37Z</time>
      </trkpt>
      <trkpt lat="40.86579" lon="-3.99532">
        <ele>1411.35</ele>
        <time>2014-12-11T13:26:41Z</time>
      </trkpt>
      <trkpt lat="40.86597" lon="-3.99552">
        <ele>1409.43</ele>
        <time>2014-12-11T13:26:57Z</time>
      </trkpt>
      <trkpt lat="40.86615" lon="-3.99568">
        <ele>1407.51</ele>
        <time>2014-12-11T13:27:13Z</time>
      </trkpt>
      <trkpt lat="40.86635" lon="-3.99583">
        <ele>1407.03</ele>
        <time>2014-12-11T13:27:29Z</time>
      </trkpt>
      <trkpt lat="40.86652" lon="-3.99596">
        <ele>1405.58</ele>
        <time>2014-12-11T13:27:43Z</time>
      </trkpt>
      <trkpt lat="40.86655" lon="-3.99598">
        <ele>1405.58</ele>
        <time>2014-12-11T13:27:45Z</time>
      </trkpt>
      <trkpt lat="40.86672" lon="-3.99616">
        <ele>1405.1</ele>
        <time>2014-12-11T13:28:00Z</time>
      </trkpt>
      <trkpt lat="40.86692" lon="-3.99632">
        <ele>1405.1</ele>
        <time>2014-12-11T13:28:15Z</time>
      </trkpt>
      <trkpt lat="40.86712" lon="-3.99647">
        <ele>1404.62</ele>
        <time>2014-12-11T13:28:32Z</time>
      </trkpt>
      <trkpt lat="40.86716" lon="-3.99649">
        <ele>1403.66</ele>
        <time>2014-12-11T13:28:41Z</time>
      </trkpt>
      <trkpt lat="40.86709" lon="-3.99646">
        <ele>1404.14</ele>
        <time>2014-12-11T13:28:46Z</time>
      </trkpt>
      <trkpt lat="40.86698" lon="-3.99663">
        <ele>1405.58</ele>
        <time>2014-12-11T13:28:58Z</time>
      </trkpt>
      <trkpt lat="40.86695" lon="-3.99663">
        <ele>1405.58</ele>
        <time>2014-12-11T13:29:01Z</time>
      </trkpt>
      <trkpt lat="40.86689" lon="-3.9967">
        <ele>1406.07</ele>
        <time>2014-12-11T13:29:06Z</time>
      </trkpt>
      <trkpt lat="40.86681" lon="-3.99688">
        <ele>1407.03</ele>
        <time>2014-12-11T13:29:19Z</time>
      </trkpt>
      <trkpt lat="40.86679" lon="-3.99695">
        <ele>1407.51</ele>
        <time>2014-12-11T13:29:24Z</time>
      </trkpt>
      <trkpt lat="40.86689" lon="-3.99712">
        <ele>1406.07</ele>
        <time>2014-12-11T13:29:37Z</time>
      </trkpt>
      <trkpt lat="40.86691" lon="-3.99714">
        <ele>1406.07</ele>
        <time>2014-12-11T13:29:39Z</time>
      </trkpt>
      <trkpt lat="40.86696" lon="-3.99726">
        <ele>1406.07</ele>
        <time>2014-12-11T13:29:53Z</time>
      </trkpt>
      <trkpt lat="40.86694" lon="-3.99738">
        <ele>1405.58</ele>
        <time>2014-12-11T13:30:01Z</time>
      </trkpt>
      <trkpt lat="40.86697" lon="-3.99747">
        <ele>1405.58</ele>
        <time>2014-12-11T13:30:06Z</time>
      </trkpt>
      <trkpt lat="40.86701" lon="-3.99767">
        <ele>1404.62</ele>
        <time>2014-12-11T13:30:22Z</time>
      </trkpt>
      <trkpt lat="40.86686" lon="-3.99769">
        <ele>1404.62</ele>
        <time>2014-12-11T13:30:34Z</time>
      </trkpt>
      <trkpt lat="40.86664" lon="-3.99773">
        <ele>1404.62</ele>
        <time>2014-12-11T13:30:49Z</time>
      </trkpt>
      <trkpt lat="40.86661" lon="-3.99776">
        <ele>1404.14</ele>
        <time>2014-12-11T13:30:52Z</time>
      </trkpt>
      <trkpt lat="40.86655" lon="-3.99782">
        <ele>1403.66</ele>
        <time>2014-12-11T13:30:58Z</time>
      </trkpt>
      <trkpt lat="40.86652" lon="-3.99784">
        <ele>1403.66</ele>
        <time>2014-12-11T13:31:01Z</time>
      </trkpt>
      <trkpt lat="40.86647" lon="-3.99808">
        <ele>1402.22</ele>
        <time>2014-12-11T13:31:16Z</time>
      </trkpt>
      <trkpt lat="40.86647" lon="-3.9981">
        <ele>1402.22</ele>
        <time>2014-12-11T13:31:17Z</time>
      </trkpt>
      <trkpt lat="40.8665" lon="-3.9982">
        <ele>1400.78</ele>
        <time>2014-12-11T13:31:23Z</time>
      </trkpt>
      <trkpt lat="40.86652" lon="-3.99826">
        <ele>1400.3</ele>
        <time>2014-12-11T13:31:27Z</time>
      </trkpt>
      <trkpt lat="40.86655" lon="-3.99835">
        <ele>1399.82</ele>
        <time>2014-12-11T13:31:32Z</time>
      </trkpt>
      <trkpt lat="40.86658" lon="-3.99848">
        <ele>1398.37</ele>
        <time>2014-12-11T13:31:39Z</time>
      </trkpt>
      <trkpt lat="40.86663" lon="-3.99877">
        <ele>1395.01</ele>
        <time>2014-12-11T13:31:56Z</time>
      </trkpt>
      <trkpt lat="40.86667" lon="-3.99902">
        <ele>1391.65</ele>
        <time>2014-12-11T13:32:10Z</time>
      </trkpt>
      <trkpt lat="40.86667" lon="-3.99922">
        <ele>1388.76</ele>
        <time>2014-12-11T13:32:23Z</time>
      </trkpt>
      <trkpt lat="40.86667" lon="-3.9994">
        <ele>1385.4</ele>
        <time>2014-12-11T13:32:35Z</time>
      </trkpt>
      <trkpt lat="40.8666" lon="-3.99954">
        <ele>1382.03</ele>
        <time>2014-12-11T13:32:47Z</time>
      </trkpt>
      <trkpt lat="40.86655" lon="-3.99971">
        <ele>1379.63</ele>
        <time>2014-12-11T13:33:01Z</time>
      </trkpt>
      <trkpt lat="40.86654" lon="-3.99981">
        <ele>1378.19</ele>
        <time>2014-12-11T13:33:08Z</time>
      </trkpt>
      <trkpt lat="40.86656" lon="-3.99984">
        <ele>1377.23</ele>
        <time>2014-12-11T13:33:11Z</time>
      </trkpt>
      <trkpt lat="40.86656" lon="-3.99995">
        <ele>1375.3</ele>
        <time>2014-12-11T13:33:18Z</time>
      </trkpt>
      <trkpt lat="40.86649" lon="-4.00005">
        <ele>1373.38</ele>
        <time>2014-12-11T13:33:28Z</time>
      </trkpt>
      <trkpt lat="40.86641" lon="-4.00027">
        <ele>1370.02</ele>
        <time>2014-12-11T13:33:43Z</time>
      </trkpt>
      <trkpt lat="40.86638" lon="-4.00051">
        <ele>1367.61</ele>
        <time>2014-12-11T13:33:57Z</time>
      </trkpt>
      <trkpt lat="40.86636" lon="-4.00059">
        <ele>1367.13</ele>
        <time>2014-12-11T13:34:03Z</time>
      </trkpt>
      <trkpt lat="40.86632" lon="-4.00074">
        <ele>1364.73</ele>
        <time>2014-12-11T13:34:14Z</time>
      </trkpt>
      <trkpt lat="40.86626" lon="-4.00091">
        <ele>1361.84</ele>
        <time>2014-12-11T13:34:27Z</time>
      </trkpt>
      <trkpt lat="40.86623" lon="-4.00114">
        <ele>1358.48</ele>
        <time>2014-12-11T13:34:41Z</time>
      </trkpt>
      <trkpt lat="40.86621" lon="-4.00118">
        <ele>1358</ele>
        <time>2014-12-11T13:34:44Z</time>
      </trkpt>
      <trkpt lat="40.8662" lon="-4.0012">
        <ele>1357.52</ele>
        <time>2014-12-11T13:34:46Z</time>
      </trkpt>
      <trkpt lat="40.86609" lon="-4.00136">
        <ele>1354.15</ele>
        <time>2014-12-11T13:35:01Z</time>
      </trkpt>
      <trkpt lat="40.86602" lon="-4.00147">
        <ele>1350.79</ele>
        <time>2014-12-11T13:35:12Z</time>
      </trkpt>
      <trkpt lat="40.86593" lon="-4.00168">
        <ele>1347.91</ele>
        <time>2014-12-11T13:35:25Z</time>
      </trkpt>
      <trkpt lat="40.86582" lon="-4.00182">
        <ele>1345.5</ele>
        <time>2014-12-11T13:35:38Z</time>
      </trkpt>
      <trkpt lat="40.86571" lon="-4.00194">
        <ele>1342.62</ele>
        <time>2014-12-11T13:35:50Z</time>
      </trkpt>
      <trkpt lat="40.86562" lon="-4.0021">
        <ele>1340.7</ele>
        <time>2014-12-11T13:36:02Z</time>
      </trkpt>
      <trkpt lat="40.86549" lon="-4.00229">
        <ele>1337.33</ele>
        <time>2014-12-11T13:36:15Z</time>
      </trkpt>
      <trkpt lat="40.86544" lon="-4.00241">
        <ele>1334.45</ele>
        <time>2014-12-11T13:36:25Z</time>
      </trkpt>
      <trkpt lat="40.86546" lon="-4.00249">
        <ele>1333.01</ele>
        <time>2014-12-11T13:36:31Z</time>
      </trkpt>
      <trkpt lat="40.86552" lon="-4.00282">
        <ele>1330.12</ele>
        <time>2014-12-11T13:36:49Z</time>
      </trkpt>
      <trkpt lat="40.86546" lon="-4.00302">
        <ele>1328.2</ele>
        <time>2014-12-11T13:37:02Z</time>
      </trkpt>
      <trkpt lat="40.86527" lon="-4.00319">
        <ele>1325.8</ele>
        <time>2014-12-11T13:37:18Z</time>
      </trkpt>
      <trkpt lat="40.86523" lon="-4.00327">
        <ele>1325.31</ele>
        <time>2014-12-11T13:37:24Z</time>
      </trkpt>
      <trkpt lat="40.86518" lon="-4.00334">
        <ele>1324.83</ele>
        <time>2014-12-11T13:37:29Z</time>
      </trkpt>
      <trkpt lat="40.86516" lon="-4.00336">
        <ele>1324.35</ele>
        <time>2014-12-11T13:37:31Z</time>
      </trkpt>
      <trkpt lat="40.86514" lon="-4.0036">
        <ele>1323.39</ele>
        <time>2014-12-11T13:37:44Z</time>
      </trkpt>
      <trkpt lat="40.86518" lon="-4.00372">
        <ele>1321.95</ele>
        <time>2014-12-11T13:37:51Z</time>
      </trkpt>
      <trkpt lat="40.86528" lon="-4.00396">
        <ele>1320.99</ele>
        <time>2014-12-11T13:38:06Z</time>
      </trkpt>
      <trkpt lat="40.86531" lon="-4.00404">
        <ele>1320.51</ele>
        <time>2014-12-11T13:38:12Z</time>
      </trkpt>
      <trkpt lat="40.86539" lon="-4.0042">
        <ele>1320.03</ele>
        <time>2014-12-11T13:38:21Z</time>
      </trkpt>
      <trkpt lat="40.86544" lon="-4.00429">
        <ele>1319.07</ele>
        <time>2014-12-11T13:38:27Z</time>
      </trkpt>
      <trkpt lat="40.86559" lon="-4.00441">
        <ele>1318.1</ele>
        <time>2014-12-11T13:38:39Z</time>
      </trkpt>
      <trkpt lat="40.86574" lon="-4.00465">
        <ele>1316.18</ele>
        <time>2014-12-11T13:38:57Z</time>
      </trkpt>
      <trkpt lat="40.86579" lon="-4.00489">
        <ele>1314.26</ele>
        <time>2014-12-11T13:39:11Z</time>
      </trkpt>
      <trkpt lat="40.86581" lon="-4.00493">
        <ele>1314.26</ele>
        <time>2014-12-11T13:39:14Z</time>
      </trkpt>
      <trkpt lat="40.86585" lon="-4.00504">
        <ele>1313.3</ele>
        <time>2014-12-11T13:39:21Z</time>
      </trkpt>
      <trkpt lat="40.86603" lon="-4.00526">
        <ele>1311.38</ele>
        <time>2014-12-11T13:39:38Z</time>
      </trkpt>
      <trkpt lat="40.86616" lon="-4.00554">
        <ele>1308.97</ele>
        <time>2014-12-11T13:39:55Z</time>
      </trkpt>
      <trkpt lat="40.86628" lon="-4.00576">
        <ele>1306.57</ele>
        <time>2014-12-11T13:40:10Z</time>
      </trkpt>
      <trkpt lat="40.8664" lon="-4.00602">
        <ele>1304.65</ele>
        <time>2014-12-11T13:40:26Z</time>
      </trkpt>
      <trkpt lat="40.86645" lon="-4.00627">
        <ele>1302.72</ele>
        <time>2014-12-11T13:40:42Z</time>
      </trkpt>
      <trkpt lat="40.86649" lon="-4.00654">
        <ele>1302.24</ele>
        <time>2014-12-11T13:40:56Z</time>
      </trkpt>
      <trkpt lat="40.86653" lon="-4.00678">
        <ele>1301.76</ele>
        <time>2014-12-11T13:41:11Z</time>
      </trkpt>
      <trkpt lat="40.86655" lon="-4.00683">
        <ele>1301.76</ele>
        <time>2014-12-11T13:41:15Z</time>
      </trkpt>
      <trkpt lat="40.86662" lon="-4.00695">
        <ele>1301.76</ele>
        <time>2014-12-11T13:41:22Z</time>
      </trkpt>
      <trkpt lat="40.86669" lon="-4.00712">
        <ele>1301.28</ele>
        <time>2014-12-11T13:41:32Z</time>
      </trkpt>
      <trkpt lat="40.86675" lon="-4.00726">
        <ele>1300.8</ele>
        <time>2014-12-11T13:41:41Z</time>
      </trkpt>
      <trkpt lat="40.86678" lon="-4.00733">
        <ele>1300.8</ele>
        <time>2014-12-11T13:41:46Z</time>
      </trkpt>
      <trkpt lat="40.86679" lon="-4.0076">
        <ele>1299.36</ele>
        <time>2014-12-11T13:42:01Z</time>
      </trkpt>
      <trkpt lat="40.86686" lon="-4.00786">
        <ele>1297.92</ele>
        <time>2014-12-11T13:42:17Z</time>
      </trkpt>
      <trkpt lat="40.86695" lon="-4.00809">
        <ele>1296.48</ele>
        <time>2014-12-11T13:42:31Z</time>
      </trkpt>
      <trkpt lat="40.86699" lon="-4.00816">
        <ele>1295.99</ele>
        <time>2014-12-11T13:42:37Z</time>
      </trkpt>
      <trkpt lat="40.8671" lon="-4.00843">
        <ele>1294.55</ele>
        <time>2014-12-11T13:42:52Z</time>
      </trkpt>
      <trkpt lat="40.86713" lon="-4.00873">
        <ele>1293.11</ele>
        <time>2014-12-11T13:43:07Z</time>
      </trkpt>
      <trkpt lat="40.86715" lon="-4.00884">
        <ele>1292.63</ele>
        <time>2014-12-11T13:43:13Z</time>
      </trkpt>
      <trkpt lat="40.86716" lon="-4.00889">
        <ele>1292.15</ele>
        <time>2014-12-11T13:43:16Z</time>
      </trkpt>
      <trkpt lat="40.86724" lon="-4.00913">
        <ele>1290.71</ele>
        <time>2014-12-11T13:43:31Z</time>
      </trkpt>
      <trkpt lat="40.86735" lon="-4.00935">
        <ele>1288.78</ele>
        <time>2014-12-11T13:43:47Z</time>
      </trkpt>
      <trkpt lat="40.86744" lon="-4.00955">
        <ele>1286.86</ele>
        <time>2014-12-11T13:44:01Z</time>
      </trkpt>
      <trkpt lat="40.86745" lon="-4.00967">
        <ele>1285.9</ele>
        <time>2014-12-11T13:44:08Z</time>
      </trkpt>
      <trkpt lat="40.86746" lon="-4.00992">
        <ele>1282.54</ele>
        <time>2014-12-11T13:44:24Z</time>
      </trkpt>
      <trkpt lat="40.86749" lon="-4.01003">
        <ele>1281.57</ele>
        <time>2014-12-11T13:44:32Z</time>
      </trkpt>
      <trkpt lat="40.86752" lon="-4.01027">
        <ele>1280.13</ele>
        <time>2014-12-11T13:44:45Z</time>
      </trkpt>
      <trkpt lat="40.86755" lon="-4.01071">
        <ele>1278.21</ele>
        <time>2014-12-11T13:45:05Z</time>
      </trkpt>
      <trkpt lat="40.86749" lon="-4.01102">
        <ele>1276.77</ele>
        <time>2014-12-11T13:45:22Z</time>
      </trkpt>
      <trkpt lat="40.8675" lon="-4.01107">
        <ele>1276.29</ele>
        <time>2014-12-11T13:45:25Z</time>
      </trkpt>
      <trkpt lat="40.86749" lon="-4.01116">
        <ele>1275.33</ele>
        <time>2014-12-11T13:45:30Z</time>
      </trkpt>
      <trkpt lat="40.86765" lon="-4.01143">
        <ele>1272.44</ele>
        <time>2014-12-11T13:45:48Z</time>
      </trkpt>
      <trkpt lat="40.86766" lon="-4.01144">
        <ele>1272.44</ele>
        <time>2014-12-11T13:45:49Z</time>
      </trkpt>
      <trkpt lat="40.8679" lon="-4.01159">
        <ele>1270.52</ele>
        <time>2014-12-11T13:46:08Z</time>
      </trkpt>
      <trkpt lat="40.86795" lon="-4.01161">
        <ele>1270.52</ele>
        <time>2014-12-11T13:46:12Z</time>
      </trkpt>
      <trkpt lat="40.86816" lon="-4.01175">
        <ele>1270.52</ele>
        <time>2014-12-11T13:46:30Z</time>
      </trkpt>
      <trkpt lat="40.86827" lon="-4.01198">
        <ele>1269.56</ele>
        <time>2014-12-11T13:46:46Z</time>
      </trkpt>
      <trkpt lat="40.86828" lon="-4.01202">
        <ele>1269.56</ele>
        <time>2014-12-11T13:46:48Z</time>
      </trkpt>
      <trkpt lat="40.86826" lon="-4.01215">
        <ele>1269.08</ele>
        <time>2014-12-11T13:46:55Z</time>
      </trkpt>
      <trkpt lat="40.8681" lon="-4.01234">
        <ele>1266.19</ele>
        <time>2014-12-11T13:47:11Z</time>
      </trkpt>
      <trkpt lat="40.86804" lon="-4.01249">
        <ele>1264.75</ele>
        <time>2014-12-11T13:47:20Z</time>
      </trkpt>
      <trkpt lat="40.86805" lon="-4.01279">
        <ele>1262.35</ele>
        <time>2014-12-11T13:47:37Z</time>
      </trkpt>
      <trkpt lat="40.86817" lon="-4.01305">
        <ele>1261.87</ele>
        <time>2014-12-11T13:47:53Z</time>
      </trkpt>
      <trkpt lat="40.86833" lon="-4.01324">
        <ele>1261.87</ele>
        <time>2014-12-11T13:48:09Z</time>
      </trkpt>
      <trkpt lat="40.86842" lon="-4.01329">
        <ele>1261.39</ele>
        <time>2014-12-11T13:48:16Z</time>
      </trkpt>
      <trkpt lat="40.86846" lon="-4.01335">
        <ele>1261.39</ele>
        <time>2014-12-11T13:48:21Z</time>
      </trkpt>
      <trkpt lat="40.86857" lon="-4.01358">
        <ele>1259.46</ele>
        <time>2014-12-11T13:48:37Z</time>
      </trkpt>
      <trkpt lat="40.86863" lon="-4.01389">
        <ele>1258.98</ele>
        <time>2014-12-11T13:48:55Z</time>
      </trkpt>
      <trkpt lat="40.86863" lon="-4.01395">
        <ele>1258.98</ele>
        <time>2014-12-11T13:48:59Z</time>
      </trkpt>
      <trkpt lat="40.86868" lon="-4.01422">
        <ele>1257.06</ele>
        <time>2014-12-11T13:49:15Z</time>
      </trkpt>
      <trkpt lat="40.86869" lon="-4.0143">
        <ele>1256.1</ele>
        <time>2014-12-11T13:49:20Z</time>
      </trkpt>
      <trkpt lat="40.86876" lon="-4.01462">
        <ele>1253.7</ele>
        <time>2014-12-11T13:49:37Z</time>
      </trkpt>
      <trkpt lat="40.86881" lon="-4.01494">
        <ele>1252.25</ele>
        <time>2014-12-11T13:49:55Z</time>
      </trkpt>
      <trkpt lat="40.86887" lon="-4.01514">
        <ele>1251.77</ele>
        <time>2014-12-11T13:50:06Z</time>
      </trkpt>
      <trkpt lat="40.86889" lon="-4.0152">
        <ele>1251.29</ele>
        <time>2014-12-11T13:50:10Z</time>
      </trkpt>
      <trkpt lat="40.86892" lon="-4.01525">
        <ele>1250.81</ele>
        <time>2014-12-11T13:50:13Z</time>
      </trkpt>
      <trkpt lat="40.86905" lon="-4.01548">
        <ele>1248.89</ele>
        <time>2014-12-11T13:50:29Z</time>
      </trkpt>
      <trkpt lat="40.86913" lon="-4.01562">
        <ele>1248.41</ele>
        <time>2014-12-11T13:50:39Z</time>
      </trkpt>
      <trkpt lat="40.86922" lon="-4.01582">
        <ele>1246.97</ele>
        <time>2014-12-11T13:50:52Z</time>
      </trkpt>
      <trkpt lat="40.86924" lon="-4.01585">
        <ele>1246.97</ele>
        <time>2014-12-11T13:50:54Z</time>
      </trkpt>
      <trkpt lat="40.86932" lon="-4.01598">
        <ele>1245.53</ele>
        <time>2014-12-11T13:51:05Z</time>
      </trkpt>
      <trkpt lat="40.86939" lon="-4.01609">
        <ele>1245.04</ele>
        <time>2014-12-11T13:51:13Z</time>
      </trkpt>
      <trkpt lat="40.86949" lon="-4.01628">
        <ele>1243.12</ele>
        <time>2014-12-11T13:51:27Z</time>
      </trkpt>
      <trkpt lat="40.86957" lon="-4.01636">
        <ele>1242.16</ele>
        <time>2014-12-11T13:51:38Z</time>
      </trkpt>
      <trkpt lat="40.86967" lon="-4.01655">
        <ele>1241.2</ele>
        <time>2014-12-11T13:51:52Z</time>
      </trkpt>
      <trkpt lat="40.86978" lon="-4.01659">
        <ele>1239.76</ele>
        <time>2014-12-11T13:52:03Z</time>
      </trkpt>
      <trkpt lat="40.86999" lon="-4.01658">
        <ele>1238.32</ele>
        <time>2014-12-11T13:52:18Z</time>
      </trkpt>
      <trkpt lat="40.87009" lon="-4.01666">
        <ele>1238.32</ele>
        <time>2014-12-11T13:52:31Z</time>
      </trkpt>
      <trkpt lat="40.87006" lon="-4.01662">
        <ele>1238.8</ele>
        <time>2014-12-11T13:52:54Z</time>
      </trkpt>
      <trkpt lat="40.87011" lon="-4.01669">
        <ele>1238.32</ele>
        <time>2014-12-11T13:53:11Z</time>
      </trkpt>
      <trkpt lat="40.87036" lon="-4.0168">
        <ele>1236.39</ele>
        <time>2014-12-11T13:53:29Z</time>
      </trkpt>
      <trkpt lat="40.87057" lon="-4.01691">
        <ele>1235.91</ele>
        <time>2014-12-11T13:53:45Z</time>
      </trkpt>
      <trkpt lat="40.87073" lon="-4.01712">
        <ele>1233.99</ele>
        <time>2014-12-11T13:54:02Z</time>
      </trkpt>
      <trkpt lat="40.87083" lon="-4.01739">
        <ele>1232.55</ele>
        <time>2014-12-11T13:54:19Z</time>
      </trkpt>
      <trkpt lat="40.87085" lon="-4.01771">
        <ele>1231.11</ele>
        <time>2014-12-11T13:54:37Z</time>
      </trkpt>
      <trkpt lat="40.871" lon="-4.01791">
        <ele>1229.18</ele>
        <time>2014-12-11T13:54:52Z</time>
      </trkpt>
      <trkpt lat="40.87108" lon="-4.01798">
        <ele>1228.22</ele>
        <time>2014-12-11T13:54:59Z</time>
      </trkpt>
      <trkpt lat="40.87127" lon="-4.01799">
        <ele>1227.26</ele>
        <time>2014-12-11T13:55:13Z</time>
      </trkpt>
      <trkpt lat="40.87151" lon="-4.01799">
        <ele>1226.78</ele>
        <time>2014-12-11T13:55:30Z</time>
      </trkpt>
      <trkpt lat="40.87161" lon="-4.01794">
        <ele>1226.3</ele>
        <time>2014-12-11T13:55:39Z</time>
      </trkpt>
      <trkpt lat="40.87182" lon="-4.01804">
        <ele>1226.3</ele>
        <time>2014-12-11T13:55:56Z</time>
      </trkpt>
      <trkpt lat="40.87189" lon="-4.01824">
        <ele>1223.9</ele>
        <time>2014-12-11T13:56:10Z</time>
      </trkpt>
      <trkpt lat="40.87194" lon="-4.01849">
        <ele>1222.45</ele>
        <time>2014-12-11T13:56:25Z</time>
      </trkpt>
      <trkpt lat="40.87188" lon="-4.01879">
        <ele>1221.97</ele>
        <time>2014-12-11T13:56:42Z</time>
      </trkpt>
      <trkpt lat="40.87187" lon="-4.0191">
        <ele>1220.53</ele>
        <time>2014-12-11T13:56:59Z</time>
      </trkpt>
      <trkpt lat="40.87176" lon="-4.01937">
        <ele>1219.09</ele>
        <time>2014-12-11T13:57:16Z</time>
      </trkpt>
      <trkpt lat="40.87174" lon="-4.0194">
        <ele>1219.09</ele>
        <time>2014-12-11T13:57:18Z</time>
      </trkpt>
      <trkpt lat="40.87172" lon="-4.01958">
        <ele>1217.65</ele>
        <time>2014-12-11T13:57:29Z</time>
      </trkpt>
      <trkpt lat="40.87193" lon="-4.01978">
        <ele>1215.24</ele>
        <time>2014-12-11T13:57:47Z</time>
      </trkpt>
      <trkpt lat="40.87208" lon="-4.01982">
        <ele>1214.76</ele>
        <time>2014-12-11T13:58:02Z</time>
      </trkpt>
      <trkpt lat="40.87213" lon="-4.01981">
        <ele>1214.76</ele>
        <time>2014-12-11T13:58:05Z</time>
      </trkpt>
      <trkpt lat="40.8723" lon="-4.01971">
        <ele>1215.24</ele>
        <time>2014-12-11T13:58:18Z</time>
      </trkpt>
      <trkpt lat="40.87241" lon="-4.01968">
        <ele>1214.76</ele>
        <time>2014-12-11T13:58:33Z</time>
      </trkpt>
      <trkpt lat="40.87241" lon="-4.01967">
        <ele>1214.76</ele>
        <time>2014-12-11T13:58:48Z</time>
      </trkpt>
      <trkpt lat="40.87255" lon="-4.01979">
        <ele>1213.8</ele>
        <time>2014-12-11T13:58:59Z</time>
      </trkpt>
      <trkpt lat="40.87277" lon="-4.01993">
        <ele>1211.88</ele>
        <time>2014-12-11T13:59:17Z</time>
      </trkpt>
      <trkpt lat="40.87291" lon="-4.02015">
        <ele>1209.96</ele>
        <time>2014-12-11T13:59:33Z</time>
      </trkpt>
      <trkpt lat="40.87291" lon="-4.02021">
        <ele>1208.51</ele>
        <time>2014-12-11T13:59:37Z</time>
      </trkpt>
      <trkpt lat="40.87292" lon="-4.02047">
        <ele>1206.59</ele>
        <time>2014-12-11T13:59:56Z</time>
      </trkpt>
    </trkseg>
  </trk>
</gpx>